[[{"header":{"parameterUnit":"m.s-1","parameterCategory":1,"la1":31.0,"la2":29.5877,"lo1":-88.7671,"lo2":-86.6584,"dy":0.0162,"dx":0.0185,"nx":115,"ny":88,"refTime":"2024-07-04T18:00:00:Z","depth":0,"parameterNumber":2,"parameterNumberName":"U-component_of_WINDS"},"data":[0.0,0.0,0.0,0.0,0.0,0.0,0.0,0.0,0.0,0.0,0.0,0.0,0.0,0.0,0.0,0.0,0.0,0.0,0.0,0.0,0.0,0.0,0.0,0.0,0.0,0.0,0.0,0.0,0.0,0.0,0.0,0.0,0.0,0.0,0.0,0.0,0.0,0.0,0.0,0.0,0.0,0.0,0.0,0.0,0.0,0.0,0.0,0.0,0.0,0.0,0.0,0.0,0.0,0.0,0.0,0.0,0.0,0.0,0.0,0.0,0.0,0.0,0.0,0.0,0.0,0.0,0.0,0.0,0.0,0.0,0.0,0.0,0.0,0.0,0.0,0.0,0.0,0.0,0.0,0.0,0.0,0.0,0.0,0.0,0.0,0.0,0.0,0.0,0.0,0.0,0.0,0.0,0.0,0.0,0.0,0.0,0.0,0.0,0.0,0.0,0.0,0.0,0.0,0.0,0.0,0.0,0.0,0.0,0.0,0.0,0.0,0.0,0.0,0.0,0.0,0.0,0.0,0.0,0.0,0.0,0.0,0.0,0.0,0.0,0.0,0.0,0.0,0.0,0.0,0.0,0.0,0.0,0.0,0.0,0.0,0.0,0.0,0.0,0.0,0.0,0.0,0.0,0.0,0.0,0.0,0.0,0.0,0.0,0.0,0.0,0.0,0.0,0.0,0.0,0.0,0.0,0.0,0.0,0.0,0.0,0.0,0.0,0.0,0.0,0.0,0.0,0.0,0.0,0.0,0.0,0.0,0.0,0.0,0.0,0.0,0.0,0.0,0.0,0.0,0.0,0.0,0.0,0.0,0.0,0.0,0.0,0.0,0.0,0.0,0.0,0.0,0.0,0.0,0.0,0.0,0.0,0.0,0.0,0.0,0.0,0.0,0.0,0.0,0.0,0.0,0.0,0.0,0.0,0.0,0.0,0.0,0.0,0.0,0.0,0.0,0.0,0.0,0.0,0.0,0.0,0.0,0.0,0.0,0.0,0.0,0.0,0.0,0.0,0.0,0.0,0.0,0.0,0.0,0.0,0.0,0.0,0.0,0.0,0.0,0.0,0.0,0.0,0.0,0.0,0.0,0.0,0.0,0.0,0.0,0.0,0.0,0.0,0.0,0.0,0.0,0.0,0.0,0.0,0.0,0.0,0.0,0.0,0.0,0.0,0.0,0.0,0.0,0.0,0.0,0.0,0.0,0.0,0.0,0.0,0.0,0.0,0.0,0.0,0.0,0.0,0.0,0.0,0.0,0.0,0.0,0.0,0.0,0.0,0.0,0.0,0.0,0.0,0.0,0.0,0.0,0.0,0.0,0.0,0.0,0.0,0.0,0.0,0.0,0.0,0.0,0.0,0.0,0.0,0.0,0.0,0.0,0.0,0.0,0.0,0.0,0.0,0.0,0.0,0.0,0.0,0.0,0.0,0.0,0.0,0.0,0.0,0.0,0.0,0.0,0.0,0.0,0.0,0.0,0.0,0.0,0.0,0.0,0.0,0.0,0.0,0.0,0.0,0.0,0.0,0.0,0.0,0.0,0.0,0.0,0.0,0.0,0.0,0.0,0.0,0.0,0.0,0.0,0.0,0.0,0.0,0.0,0.0,0.0,0.0,0.0,0.0,0.0,0.0,0.0,0.0,0.0,0.0,0.0,0.0,0.0,0.0,0.0,0.0,0.0,0.0,0.0,0.0,0.0,0.0,0.0,0.0,0.0,0.0,0.0,0.0,0.0,0.0,0.0,0.0,0.0,0.0,0.0,0.0,0.0,0.0,0.0,0.0,0.0,0.0,0.0,0.0,0.0,0.0,0.0,0.0,0.0,0.0,0.0,0.0,0.0,0.0,0.0,0.0,0.0,0.0,0.0,0.0,0.0,0.0,0.0,0.0,0.0,0.0,0.0,0.0,0.0,0.0,0.0,0.0,0.0,0.0,0.0,0.0,0.0,0.0,0.0,0.0,0.0,0.0,0.0,0.0,0.0,0.0,0.0,0.0,0.0,0.0,0.0,0.0,0.0,0.0,0.0,0.0,0.0,0.0,0.0,0.0,0.0,0.0,0.0,0.0,0.0,0.0,0.0,0.0,0.0,0.0,0.0,0.0,0.0,0.0,0.0,0.0,0.0,0.0,0.0,0.0,0.0,0.0,0.0,0.0,0.0,0.0,0.0,0.0,0.0,0.0,0.0,0.0,0.0,0.0,0.0,0.0,0.0,0.0,0.0,0.0,0.0,0.0,0.0,0.0,0.0,0.0,0.0,0.0,0.0,0.0,0.0,0.0,0.0,0.0,0.0,0.0,0.0,0.0,0.0,0.0,0.0,0.0,0.0,0.0,0.0,0.0,0.0,0.0,0.0,0.0,0.0,0.0,0.0,0.0,0.0,0.0,0.0,0.0,0.0,0.0,0.0,0.0,0.0,0.0,0.0,0.0,0.0,0.0,0.0,0.0,0.0,0.0,0.0,0.0,0.0,0.0,0.0,0.0,0.0,0.0,0.0,0.0,0.0,0.0,0.0,0.0,0.0,0.0,0.0,0.0,0.0,0.0,0.0,0.0,0.0,0.0,0.0,0.0,0.0,0.0,0.0,0.0,0.0,0.0,0.0,0.0,0.0,0.0,0.0,0.0,0.0,0.0,0.0,0.0,0.0,0.0,0.0,0.0,0.0,0.0,0.0,0.0,0.0,0.0,0.0,0.0,0.0,0.0,0.0,0.0,0.0,0.0,0.0,0.0,0.0,0.0,0.0,0.0,0.0,0.0,0.0,0.0,0.0,0.0,0.0,0.0,0.0,0.0,0.0,0.0,0.0,0.0,0.0,0.0,0.0,0.0,0.0,0.0,0.0,0.0,0.0,0.0,0.0,0.0,0.0,0.0,0.0,0.0,0.0,0.0,0.0,0.0,0.0,0.0,0.0,0.0,0.0,0.0,0.0,0.0,0.0,0.0,0.0,0.0,0.0,0.0,0.0,0.0,0.0,0.0,0.0,0.0,0.0,0.0,0.0,0.0,0.0,0.0,0.0,0.0,0.0,0.0,0.0,0.0,0.0,0.0,0.0,0.0,0.0,0.0,0.0,0.0,0.0,0.0,0.0,0.0,0.0,0.0,0.0,0.0,0.0,0.0,0.0,0.0,0.0,0.0,0.0,0.0,0.0,0.0,0.0,0.0,0.0,0.0,0.0,0.0,0.0,0.0,0.0,0.0,0.0,0.0,0.0,0.0,0.0,0.0,0.0,0.0,0.0,0.0,0.0,0.0,0.0,0.0,0.0,0.0,0.0,0.0,0.0,0.0,0.0,0.0,0.0,0.0,0.0,0.0,0.0,0.0,0.0,0.0,0.0,0.0,0.0,0.0,0.0,0.0,0.0,0.0,0.0,0.0,0.0,0.0,0.0,0.0,0.0,0.0,0.0,0.0,0.0,0.0,0.0,0.0,0.0,0.0,0.0,0.0,0.0,0.0,0.0,0.0,0.0,0.0,0.0,0.0,0.0,0.0,0.0,0.0,0.0,0.0,0.0,0.0,0.0,0.0,0.0,0.0,0.0,0.0,0.0,0.0,0.0,0.0,0.0,0.0,0.0,0.0,0.0,0.0,0.0,0.0,0.0,0.0,0.0,0.0,0.0,0.0,0.0,0.0,0.0,0.0,0.0,0.0,0.0,0.0,0.0,0.0,0.0,0.0,0.0,0.0,0.0,0.0,0.0,0.0,0.0,0.0,0.0,0.0,0.0,0.0,0.0,0.0,0.0,0.0,0.0,0.0,0.0,0.0,0.0,0.0,0.0,0.0,0.0,0.0,0.0,0.0,0.0,0.0,0.0,0.0,0.0,0.0,0.0,0.0,0.0,0.0,0.0,0.0,0.0,0.0,0.0,0.0,0.0,0.0,0.0,0.0,0.0,0.0,0.0,0.0,0.0,0.0,0.0,0.0,0.0,0.0,0.0,0.0,0.0,0.0,0.0,0.0,0.0,0.0,0.0,0.0,0.0,0.0,0.0,0.0,0.0,0.0,0.0,0.0,0.0,0.0,0.0,0.0,0.0,0.0,0.0,0.0,0.0,0.0,0.0,0.0,0.0,0.0,0.0,0.0,0.0,0.0,0.0,0.0,0.0,0.0,0.0,0.0,0.0,0.0,0.0,0.0,0.0,0.0,0.0,0.0,0.0,0.0,0.0,0.0,0.0,0.0,0.0,0.0,0.0,0.0,0.0,0.0,0.0,0.0,0.0,0.0,0.0,0.0,0.0,0.0,0.0,0.0,0.0,0.0,0.0,0.0,0.0,0.0,0.3232,0.0,0.0,0.0,0.0,0.0,0.0,0.0,0.0,0.0,0.0,0.0,0.0,0.0,0.0,0.0,0.0,0.0,0.0,0.0,0.0,0.0,0.0,0.0,0.0,0.0,0.0,0.0,0.0,0.0,0.0,0.0,0.0,0.0,0.0,0.0,0.0,0.0,0.0,0.0,0.0,0.0,0.0,0.0,0.0,0.0,0.0,0.0,0.0,0.0,0.0,0.0,0.0,0.0,0.0,0.0,0.0,0.0,0.0,0.0,0.0,0.0,0.0,0.0,0.0,0.0,0.0,0.0,0.0,0.0,0.0,0.0,0.0,0.0,0.0,0.0,0.0,0.0,0.0,0.0,0.0,0.0,0.0,0.0,0.0,0.0,0.0,0.0,0.0,0.0,0.0,0.0,0.0,0.0,0.0,0.0,0.0,0.0,0.0,0.0,0.0,0.0,0.0,0.0,0.0,0.0,0.0,0.0,0.0,0.0,0.0,-1.3944,-1.158,-0.987,-0.6851,-0.2444,0.0,0.0,0.0,0.0,0.0,0.0,0.0,0.0,0.0,0.0,0.0,0.0,0.0,0.0,0.0,0.0,0.0,0.0,0.0,0.0,0.0,0.0,0.0,0.0,0.0,0.0,0.0,0.0,0.0,0.0,0.0,0.0,0.0,0.0,0.0,0.0,0.0,0.0,0.0,0.0,0.0,0.0,0.0,0.0,0.0,0.0,0.0,0.0,0.0,0.0,0.0,0.0,0.0,0.0,0.0,0.0,0.0,0.0,0.0,0.0,0.0,0.0,0.0,0.0,0.0,0.0,0.0,0.0,0.0,0.0,0.0,0.0,0.0,0.0,0.0,0.0,0.0,0.0,0.0,0.0,0.0,0.0,0.0,0.0,0.0,0.0,0.0,0.0,0.0,0.0,0.0,0.0,0.0,0.0,0.0,0.0,0.0,0.0,0.0,0.0,0.0,0.0,0.0,0.0,0.0,0.0,0.0,0.0,0.0,0.0,0.0,0.0,-1.6148,-1.2576,-0.8041,0.0,0.0,0.0,0.0,0.0,0.0,0.0,0.0,0.0,0.0,0.0,0.0,0.0,0.0,0.0,0.0,0.0,0.0,0.0,0.0,0.0,0.0,0.0,0.0,0.0,0.0,0.0,0.0,0.0,0.0,0.0,0.0,0.0,0.0,0.0,0.0,0.0,0.0,0.0,0.0,0.0,0.0,0.0,0.0,0.0,0.0,0.0,0.0,0.0,0.0,0.0,0.0,0.0,0.0,0.0,0.0,0.0,0.0,0.0,0.0,0.0,0.0,0.0,0.0,0.0,0.0,0.0,0.0,0.0,0.0,0.0,0.0,0.0,0.0,0.0,0.0,0.0,0.0,0.0,0.0,0.0,0.0,0.0,0.0,0.0,0.0,0.0,0.0,0.0,0.0,0.0,0.0,0.0,0.0,0.0,0.0,0.0,0.0,0.0,0.0,0.0,0.0,0.0,0.0,0.0,0.0,0.0,0.0,0.0,0.0,-2.3603,-2.2764,-2.1152,0.0,-1.4417,0.0,0.0,0.0,0.0,0.0,0.0,0.0,0.0,0.0,0.0,0.0,0.0,0.0,0.0,0.0,0.0,0.0,0.0,0.0,0.0,0.0,0.0,0.0,0.0,0.0,0.0,0.0,0.0,0.0,0.0,0.0,0.0,0.0,0.0,0.0,0.0,0.0,0.0,0.0,0.0,0.0,0.0,0.0,0.0,0.0,0.0,0.0,0.0,0.0,0.0,0.0,0.0,0.0,0.0,0.0,0.0,0.0,0.0,0.0,0.0,0.0,0.0,0.0,0.0,0.0,0.0,0.0,0.0,0.0,0.0,0.0,0.0,0.0,0.0,0.0,0.0,0.0,0.0,0.0,0.0,0.0,0.0,0.0,0.0,0.0,0.0,0.0,0.0,0.0,0.0,0.0,0.0,0.0,0.0,0.0,0.0,0.0,0.0,0.0,0.0,0.0,0.0,0.0,0.0,0.0,0.0,0.0,0.0,0.0,0.0,-2.4062,-2.3361,-2.1347,-1.9318,0.0,0.0,0.0,0.0,0.0,0.0,0.0,0.0,0.0,0.0,0.0,0.0,0.0,0.0,0.0,0.0,0.0,0.0,0.0,0.0,0.0,0.0,0.0,0.0,0.0,0.0,0.0,0.0,0.0,0.0,0.0,0.0,0.0,0.0,0.0,0.0,0.0,0.0,0.0,0.0,0.0,0.0,0.0,0.0,0.0,0.0,0.0,0.0,0.0,0.0,0.0,0.0,0.0,0.0,0.0,0.0,0.0,0.0,0.0,0.0,0.0,0.0,0.0,0.0,0.0,0.0,0.0,0.0,0.0,0.0,0.0,0.0,0.0,0.0,0.0,0.0,0.0,0.0,0.0,0.0,0.0,0.0,0.0,0.0,0.0,0.0,0.0,0.0,0.0,0.0,0.0,0.0,0.0,0.0,0.0,0.0,0.0,0.0,0.0,0.0,0.0,0.0,0.0,0.0,0.0,0.0,0.0,0.0,0.0,0.0,-2.451,-2.4118,-2.3356,-2.1146,-1.9591,-1.8872,0.0,0.0,0.0,0.0,0.0,0.0,0.0,0.0,0.0,0.0,0.0,0.0,0.0,0.0,0.0,0.0,0.0,0.0,0.0,0.0,0.0,0.0,0.0,0.0,0.0,0.0,0.0,0.0,0.0,0.0,0.0,0.0,0.0,0.0,0.0,0.0,0.0,0.0,0.0,0.0,0.0,0.0,0.0,0.0,0.0,0.0,0.0,0.0,0.0,0.0,0.0,0.0,0.0,0.0,0.0,0.0,0.0,0.0,0.0,0.0,0.0,0.0,0.0,0.0,0.0,0.0,0.0,0.0,0.0,0.0,0.0,0.0,0.0,0.0,0.0,0.0,0.0,0.0,0.0,0.0,0.0,0.0,0.0,0.0,0.0,0.0,0.0,0.0,0.0,0.0,0.0,0.0,0.0,0.0,0.0,0.0,0.0,0.0,0.0,0.0,0.0,0.0,0.0,0.0,0.0,0.0,0.0,0.0,-2.4596,-2.4532,-2.4173,-2.3468,-2.1522,-2.0091,0.0,0.0,0.0,0.0,0.0,0.0,0.0,0.0,0.0,0.0,0.0,0.0,0.0,0.0,0.0,0.0,0.0,0.0,0.0,0.0,0.0,0.0,0.0,0.0,0.0,0.0,0.0,0.0,0.0,0.0,0.0,0.0,0.0,0.0,0.0,0.0,0.0,0.0,0.0,0.0,0.0,0.0,0.0,0.0,0.0,0.0,0.0,0.0,0.0,0.0,0.0,0.0,0.0,0.0,0.0,0.0,0.0,0.0,0.0,0.0,0.0,0.0,0.0,0.0,0.0,0.0,0.0,0.0,0.0,0.0,0.0,0.0,0.0,0.0,0.0,0.0,0.0,0.0,0.0,0.0,0.0,0.0,0.0,0.0,0.0,0.0,0.0,0.0,0.0,0.0,0.0,0.0,0.0,0.0,0.0,0.0,0.0,0.0,0.0,0.0,0.0,0.0,0.0,0.0,0.0,0.0,0.0,0.0,0.0,-2.4594,-2.4375,-2.4018,-2.353,-2.167,-2.0336,0.0,0.0,0.0,0.0,0.0,0.0,0.0,0.0,0.0,0.0,0.0,0.0,0.0,0.0,0.0,0.0,0.0,0.0,0.0,0.0,0.0,0.0,0.0,0.0,0.0,0.0,0.0,0.0,0.0,0.0,0.0,0.0,0.0,0.0,0.0,0.0,0.0,0.0,0.0,0.0,0.0,0.0,0.0,0.0,0.0,0.0,0.0,0.0,0.0,0.0,0.0,0.0,0.0,0.0,0.0,0.0,0.0,0.0,0.0,0.0,0.0,0.0,0.0,0.0,0.0,0.0,0.0,0.0,0.0,0.0,0.0,0.0,0.0,0.0,0.0,0.0,0.0,0.0,0.0,0.0,0.0,0.0,0.0,0.0,0.0,0.0,0.0,0.0,0.0,0.0,0.0,0.0,0.0,0.0,0.0,0.0,0.0,0.0,0.0,0.0,0.0,0.0,0.0,0.0,0.0,0.0,0.0,0.0,0.0,-2.4458,0.0,-2.3896,-2.3512,-2.1693,-2.0471,0.0,0.0,0.0,0.0,0.0,0.0,0.0,0.0,0.0,0.0,0.0,0.0,0.0,0.0,0.0,0.0,0.0,0.0,0.0,0.0,0.0,0.0,0.0,0.0,0.0,0.0,0.0,0.0,0.0,0.0,0.0,0.0,0.0,0.0,0.0,0.0,0.0,0.0,0.0,0.0,0.0,0.0,0.0,0.0,0.0,0.0,0.0,0.0,0.0,0.0,0.0,0.0,0.0,0.0,0.0,0.0,0.0,0.0,0.0,0.0,0.0,0.0,0.0,0.0,0.0,0.0,0.0,0.0,0.0,0.0,0.0,0.0,0.0,0.0,0.0,0.0,0.0,0.0,0.0,0.0,0.0,0.0,0.0,0.0,0.0,0.0,0.0,0.0,0.0,0.0,0.0,0.0,0.0,0.0,0.0,0.0,0.0,0.0,0.0,0.0,0.0,0.0,0.0,0.0,0.0,0.0,0.0,0.0,-2.4462,-2.421,-2.4057,-2.3837,-2.3486,-2.1706,-2.0506,0.0,0.0,0.0,0.0,0.0,0.0,0.0,0.0,0.0,0.0,0.0,0.0,0.0,0.0,0.0,0.0,0.0,0.0,0.0,0.0,0.0,0.0,0.0,0.0,0.0,0.0,0.0,0.0,0.0,0.0,0.0,0.0,0.0,0.0,0.0,0.0,0.0,0.0,0.0,0.0,0.0,0.0,0.0,0.0,0.0,0.0,0.0,0.0,0.0,0.0,0.0,0.0,0.0,0.0,0.0,0.0,0.0,0.0,0.0,0.0,0.0,0.0,0.0,0.0,0.0,0.0,0.0,0.0,0.0,0.0,0.0,0.0,0.0,0.0,0.0,0.0,0.0,0.0,0.0,0.0,0.0,0.0,0.0,0.0,0.0,0.0,0.0,0.0,0.0,0.0,0.0,0.0,0.0,0.0,0.0,0.0,0.0,0.0,0.0,0.0,0.0,0.0,0.0,0.0,0.0,0.0,0.0,0.0,0.0,-2.4075,-2.3933,-2.3743,-2.3468,-2.2171,-2.1049,0.0,0.0,0.0,0.0,0.0,0.0,0.0,0.0,0.0,0.0,0.0,0.0,0.0,0.0,0.0,0.0,0.0,0.0,0.0,0.0,0.0,0.0,0.0,0.0,0.0,0.0,0.0,0.0,0.0,0.0,0.0,0.0,0.0,0.0,0.0,0.0,0.0,0.0,0.0,0.0,0.0,0.0,0.0,0.0,0.0,0.0,0.0,0.0,0.0,0.0,0.0,0.0,0.0,0.0,0.0,0.0,0.0,0.0,0.0,0.0,0.0,0.0,0.0,0.0,0.0,0.0,0.0,0.0,0.0,0.0,0.0,0.0,0.0,0.0,0.0,0.0,0.0,0.0,0.0,0.0,0.0,0.0,0.0,0.0,0.0,0.0,0.0,0.0,0.0,0.0,0.0,0.0,0.0,0.0,0.0,0.0,0.0,0.0,0.0,0.0,0.0,0.0,0.0,0.0,0.0,0.0,0.0,0.0,0.0,-2.3917,-2.3828,-2.3696,-2.3544,-2.2394,-2.143,-2.066,0.0,0.0,0.0,0.0,0.0,0.0,0.0,0.0,0.0,0.0,0.0,0.0,0.0,0.0,0.0,0.0,0.0,0.0,0.0,0.0,0.0,0.0,0.0,0.0,0.0,0.0,0.0,0.0,0.0,0.0,0.0,0.0,0.0,0.0,0.0,0.0,0.0,0.0,0.0,0.0,0.0,0.0,0.0,0.0,0.0,0.0,0.0,0.0,0.0,0.0,0.0,0.0,0.0,0.0,0.0,0.0,0.0,0.0,0.0,0.0,0.0,0.0,0.0,0.0,0.0,0.0,0.0,0.0,0.0,0.0,0.0,0.0,0.0,0.0,0.0,0.0,0.0,0.0,0.0,0.0,0.0,0.0,0.0,0.0,0.0,0.0,0.0,0.0,0.0,0.0,0.0,0.0,0.0,0.0,0.0,0.0,0.0,0.0,0.0,0.0,0.0,0.0,0.0,0.0,0.0,0.0,0.0,0.0,-2.3816,-2.3747,-2.366,-2.3571,-2.2471,-2.1707,0.0,0.0,0.0,0.0,0.0,0.0,0.0,0.0,0.0,0.0,0.0,0.0,0.0,0.0,0.0,0.0,0.0,0.0,0.0,0.0,0.0,0.0,0.0,0.0,0.0,0.0,0.0,0.0,0.0,0.0,0.0,0.0,0.0,0.0,0.0,0.0,0.0,0.0,0.0,0.0,0.0,0.0,0.0,0.0,0.0,0.0,0.0,0.0,0.0,0.0,0.0,0.0,0.0,0.0,0.0,0.0,0.0,0.0,0.0,0.0,0.0,0.0,0.0,0.0,0.0,0.0,0.0,0.0,0.0,0.0,0.0,0.0,0.0,0.0,0.0,0.0,0.0,0.0,0.0,0.0,0.0,0.0,0.0,0.0,0.0,0.0,0.0,0.0,0.0,0.0,0.0,0.0,0.0,0.0,0.0,0.0,0.0,0.0,0.0,0.0,0.0,0.0,0.0,0.0,0.0,0.0,0.0,0.0,0.0,-2.3876,-2.3747,-2.3611,-2.3453,-2.2909,-2.2219,0.0,0.0,0.0,0.0,0.0,0.0,0.0,0.0,0.0,0.0,0.0,0.0,0.0,0.0,0.0,0.0,0.0,0.0,0.0,0.0,0.0,0.0,0.0,0.0,0.0,0.0,0.0,0.0,0.0,0.0,0.0,0.0,0.0,0.0,0.0,0.0,0.0,0.0,0.0,0.0,0.0,0.0,0.0,0.0,0.0,0.0,0.0,0.0,0.0,0.0,0.0,0.0,0.0,0.0,0.0,0.0,0.0,0.0,0.0,0.0,0.0,0.0,0.0,0.0,0.0,0.0,0.0,0.0,0.0,0.0,0.0,0.0,0.0,0.0,0.0,0.0,0.0,0.0,0.0,0.0,0.0,0.0,0.0,0.0,0.0,0.0,0.0,0.0,0.0,0.0,0.0,0.0,0.0,0.0,0.0,0.0,0.0,0.0,0.0,0.0,0.0,0.0,0.0,0.0,0.0,0.0,0.0,0.0,-2.3976,-2.3852,-2.3765,-2.3589,-2.3313,-2.3045,-2.2557,0.0,0.0,0.0,0.0,0.0,0.0,0.0,0.0,0.0,0.0,0.0,0.0,0.0,0.0,0.0,0.0,0.0,0.0,0.0,0.0,0.0,0.0,0.0,0.0,0.0,0.0,0.0,0.0,0.0,0.0,0.0,0.0,0.0,0.0,0.0,0.0,0.0,0.0,0.0,0.0,0.0,0.0,0.0,0.0,0.0,0.0,0.0,0.0,0.0,0.0,0.0,0.0,0.0,0.0,0.0,0.0,0.0,0.0,0.0,0.0,0.0,0.0,0.0,0.0,0.0,0.0,0.0,0.0,0.0,0.0,0.0,0.0,0.0,0.0,0.0,0.0,0.0,0.0,0.0,0.0,0.0,0.0,0.0,0.0,0.0,0.0,0.0,0.0,0.0,0.0,0.0,0.0,0.0,0.0,0.0,0.0,0.0,0.0,0.0,0.0,0.0,0.0,0.0,0.0,0.0,0.0,0.0,0.0,-2.3994,-2.3804,-2.3739,-2.3544,-2.3217,-2.2995,-2.2738,0.0,0.0,0.0,0.0,0.0,0.0,0.0,0.0,0.0,0.0,0.0,0.0,0.0,0.0,0.0,0.0,0.0,0.0,0.0,0.0,0.0,0.0,0.0,0.0,0.0,0.0,0.0,0.0,0.0,0.0,0.0,0.0,0.0,0.0,0.0,0.0,0.0,0.0,0.0,0.0,0.0,0.0,0.0,0.0,0.0,0.0,0.0,0.0,0.0,0.0,0.0,0.0,0.0,0.0,0.0,0.0,0.0,0.0,0.0,0.0,0.0,0.0,0.0,0.0,0.0,0.0,0.0,0.0,0.0,0.0,0.0,0.0,0.0,0.0,0.0,0.0,0.0,0.0,0.0,0.0,0.0,0.0,0.0,0.0,0.0,0.0,0.0,0.0,0.0,0.0,0.0,0.0,0.0,0.0,0.0,0.0,0.0,0.0,0.0,0.0,0.0,0.0,0.0,0.0,0.0,0.0,0.0,0.0,-2.3894,-2.3804,-2.3696,-2.3476,-2.3217,-2.297,-2.2659,0.0,0.0,0.0,0.0,0.0,0.0,0.0,0.0,0.0,0.0,0.0,0.0,0.0,0.0,0.0,0.0,0.0,0.0,0.0,0.0,0.0,0.0,0.0,0.0,0.0,0.0,0.0,0.0,0.0,0.0,0.0,0.0,0.0,0.0,0.0,0.0,0.0,0.0,0.0,0.0,0.0,0.0,0.0,0.0,0.0,0.0,0.0,0.0,-2.3833,0.0,0.0,0.0,0.0,0.0,0.0,0.0,0.0,0.0,0.0,0.0,0.0,0.0,0.0,0.0,0.0,0.0,0.0,0.0,0.0,0.0,0.0,0.0,0.0,0.0,0.0,0.0,0.0,0.0,0.0,0.0,0.0,0.0,0.0,0.0,0.0,0.0,0.0,0.0,0.0,0.0,0.0,0.0,0.0,0.0,0.0,0.0,0.0,0.0,0.0,0.0,0.0,0.0,0.0,0.0,0.0,0.0,0.0,0.0,-2.3852,-2.3743,-2.3607,-2.336,-2.3052,-2.279,-2.2525,0.0,0.0,0.0,0.0,0.0,0.0,0.0,0.0,0.0,0.0,0.0,0.0,0.0,0.0,0.0,0.0,0.0,0.0,0.0,0.0,0.0,0.0,0.0,0.0,0.0,0.0,0.0,0.0,0.0,0.0,0.0,0.0,0.0,0.0,0.0,0.0,0.0,0.0,0.0,0.0,0.0,0.0,0.0,0.0,0.0,0.0,0.0,0.0,0.0,0.0,0.0,0.0,0.0,0.0,0.0,0.0,0.0,0.0,0.0,0.0,0.0,0.0,0.0,0.0,0.0,0.0,0.0,0.0,0.0,0.0,0.0,0.0,0.0,0.0,0.0,0.0,0.0,0.0,0.0,0.0,0.0,0.0,0.0,0.0,0.0,0.0,0.0,0.0,0.0,0.0,0.0,0.0,0.0,0.0,0.0,0.0,0.0,0.0,0.0,0.0,0.0,0.0,0.0,0.0,0.0,0.0,0.0,-2.3915,-2.3789,-2.3656,-2.3453,-2.3217,-2.2876,-2.2632,-2.236,-2.2039,0.0,0.0,0.0,0.0,0.0,0.0,0.0,0.0,0.0,0.0,0.0,0.0,0.0,0.0,0.0,0.0,0.0,0.0,0.0,0.0,0.0,0.0,0.0,0.0,0.0,0.0,0.0,0.0,0.0,0.0,0.0,0.0,0.0,0.0,0.0,0.0,0.0,0.0,-2.3861,-2.4769,0.0,0.0,0.0,0.0,0.0,0.0,0.0,0.0,-2.7988,0.0,0.0,0.0,0.0,0.0,0.0,0.0,0.0,0.0,0.0,0.0,0.0,0.0,0.0,0.0,0.0,0.0,0.0,0.0,0.0,0.0,0.0,0.0,0.0,0.0,0.0,0.0,0.0,0.0,0.0,0.0,0.0,0.0,0.0,0.0,0.0,0.0,0.0,0.0,0.0,0.0,0.0,0.0,0.0,0.0,0.0,0.0,0.0,0.0,0.0,0.0,0.0,0.0,0.0,0.0,0.0,-2.3855,-2.3721,-2.3585,-2.3471,-2.3265,-2.3045,-2.2799,-2.2552,-2.2248,-2.1886,0.0,0.0,0.0,0.0,0.0,0.0,0.0,0.0,0.0,0.0,0.0,0.0,0.0,0.0,0.0,0.0,0.0,0.0,0.0,0.0,0.0,0.0,0.0,0.0,0.0,0.0,0.0,0.0,0.0,0.0,0.0,0.0,0.0,0.0,0.0,0.0,0.0,0.0,0.0,-2.6614,-2.7678,0.0,0.0,0.0,0.0,0.0,0.0,0.0,0.0,-2.823,0.0,0.0,0.0,0.0,0.0,0.0,0.0,0.0,0.0,0.0,0.0,0.0,0.0,0.0,0.0,0.0,0.0,0.0,0.0,0.0,0.0,0.0,0.0,0.0,0.0,0.0,0.0,0.0,0.0,0.0,0.0,0.0,0.0,0.0,0.0,0.0,0.0,0.0,0.0,0.0,0.0,0.0,0.0,0.0,0.0,0.0,0.0,0.0,0.0,0.0,0.0,0.0,0.0,0.0,0.0,-2.3692,-2.3571,-2.343,-2.3289,-2.3052,-2.2825,-2.2649,-2.2304,-2.1945,0.0,0.0,0.0,0.0,0.0,0.0,0.0,0.0,0.0,0.0,0.0,0.0,0.0,0.0,0.0,0.0,0.0,0.0,0.0,0.0,0.0,0.0,0.0,0.0,0.0,0.0,0.0,0.0,0.0,0.0,0.0,0.0,0.0,0.0,0.0,0.0,0.0,0.0,0.0,0.0,-2.7601,-2.8229,-2.9285,0.0,0.0,0.0,0.0,0.0,0.0,-2.9984,-2.9646,0.0,0.0,0.0,0.0,0.0,0.0,0.0,0.0,0.0,0.0,0.0,0.0,0.0,0.0,0.0,0.0,0.0,0.0,0.0,0.0,0.0,0.0,0.0,0.0,0.0,0.0,0.0,0.0,0.0,0.0,0.0,0.0,0.0,0.0,0.0,0.0,0.0,0.0,0.0,0.0,0.0,0.0,0.0,0.0,0.0,0.0,0.0,0.0,0.0,0.0,0.0,0.0,0.0,0.0,0.0,-2.3518,-2.3365,-2.3217,-2.307,-2.2825,-2.2588,-2.2388,-2.1974,-2.1601,0.0,0.0,0.0,0.0,0.0,0.0,0.0,0.0,0.0,0.0,0.0,0.0,0.0,0.0,0.0,0.0,0.0,0.0,0.0,0.0,0.0,0.0,0.0,0.0,0.0,0.0,0.0,0.0,0.0,0.0,0.0,0.0,0.0,0.0,0.0,0.0,0.0,0.0,0.0,0.0,0.0,-2.8853,-3.0085,-3.0324,0.0,0.0,0.0,0.0,-3.1325,-3.1083,0.0,0.0,0.0,0.0,0.0,0.0,0.0,0.0,0.0,0.0,0.0,0.0,0.0,0.0,0.0,0.0,0.0,0.0,0.0,0.0,0.0,0.0,0.0,0.0,0.0,0.0,0.0,0.0,0.0,0.0,0.0,0.0,0.0,0.0,0.0,0.0,0.0,0.0,0.0,0.0,0.0,0.0,0.0,0.0,0.0,0.0,0.0,0.0,0.0,0.0,0.0,0.0,0.0,0.0,0.0,0.0,-2.3247,-2.3052,-2.2868,-2.2659,-2.2419,-2.2181,-2.1969,-2.1631,-2.1277,0.0,0.0,0.0,0.0,0.0,0.0,0.0,0.0,0.0,0.0,0.0,0.0,0.0,0.0,0.0,0.0,0.0,0.0,0.0,0.0,0.0,0.0,0.0,0.0,0.0,0.0,0.0,0.0,0.0,0.0,0.0,0.0,0.0,0.0,0.0,0.0,0.0,0.0,0.0,0.0,0.0,-3.0564,-3.1076,-3.1734,-3.2176,0.0,0.0,-3.1861,-3.16,-3.1329,0.0,0.0,0.0,0.0,0.0,0.0,0.0,0.0,0.0,0.0,0.0,0.0,0.0,0.0,0.0,0.0,0.0,0.0,0.0,0.0,0.0,0.0,0.0,0.0,0.0,0.0,0.0,0.0,0.0,0.0,0.0,0.0,0.0,0.0,0.0,0.0,0.0,0.0,0.0,0.0,0.0,0.0,0.0,0.0,0.0,0.0,0.0,0.0,0.0,0.0,0.0,0.0,0.0,0.0,0.0,-2.3126,-2.2977,-2.279,-2.2561,-2.2326,-2.2084,-2.1882,-2.1675,-2.1293,-2.0909,0.0,0.0,0.0,0.0,0.0,0.0,0.0,0.0,0.0,0.0,0.0,0.0,0.0,0.0,0.0,0.0,0.0,0.0,0.0,0.0,0.0,0.0,0.0,0.0,0.0,0.0,0.0,0.0,0.0,0.0,0.0,0.0,0.0,0.0,0.0,0.0,0.0,0.0,0.0,0.0,0.0,0.0,-3.1906,-3.2125,0.0,0.0,0.0,-3.1873,-3.1654,0.0,0.0,0.0,0.0,0.0,0.0,0.0,0.0,0.0,0.0,0.0,0.0,0.0,0.0,0.0,0.0,0.0,0.0,0.0,0.0,0.0,0.0,0.0,0.0,0.0,0.0,0.0,0.0,0.0,0.0,0.0,0.0,0.0,0.0,0.0,0.0,0.0,0.0,0.0,0.0,0.0,0.0,0.0,0.0,0.0,0.0,0.0,0.0,0.0,0.0,0.0,0.0,0.0,0.0,0.0,0.0,0.0,-2.2642,-2.2426,-2.2186,-2.1924,-2.1735,-2.154,-2.126,-2.0861,0.0,0.0,0.0,0.0,0.0,0.0,0.0,0.0,0.0,0.0,0.0,0.0,0.0,0.0,0.0,0.0,0.0,0.0,0.0,0.0,0.0,0.0,0.0,0.0,0.0,0.0,0.0,-2.1494,0.0,0.0,0.0,0.0,0.0,0.0,0.0,0.0,0.0,0.0,0.0,0.0,0.0,0.0,-3.1912,-3.2435,-3.2249,-3.2037,0.0,0.0,-3.1763,-3.1596,-3.1428,-3.1274,0.0,0.0,0.0,0.0,0.0,0.0,0.0,0.0,0.0,0.0,0.0,0.0,0.0,0.0,0.0,0.0,0.0,0.0,0.0,0.0,0.0,0.0,0.0,0.0,0.0,0.0,0.0,0.0,0.0,0.0,0.0,0.0,0.0,0.0,0.0,0.0,0.0,0.0,0.0,0.0,0.0,0.0,0.0,0.0,0.0,0.0,0.0,0.0,0.0,0.0,0.0,0.0,0.0,0.0,-2.248,-2.2153,-2.1998,-2.1781,-2.1448,-2.1324,-2.1023,-2.0581,-2.0345,-1.9914,0.0,0.0,0.0,0.0,0.0,0.0,0.0,0.0,0.0,0.0,0.0,0.0,0.0,0.0,0.0,0.0,0.0,0.0,0.0,0.0,0.0,0.0,0.0,0.0,0.0,0.0,0.0,0.0,0.0,0.0,0.0,0.0,0.0,0.0,0.0,0.0,0.0,0.0,0.0,0.0,0.0,-3.1907,-3.2417,-3.2267,-3.2054,0.0,-3.18,-3.1726,-3.1555,-3.1406,-3.1274,-3.123,0.0,0.0,0.0,0.0,0.0,0.0,0.0,0.0,0.0,0.0,0.0,0.0,0.0,0.0,0.0,0.0,0.0,0.0,0.0,0.0,0.0,0.0,0.0,0.0,0.0,0.0,0.0,0.0,0.0,0.0,0.0,0.0,0.0,0.0,0.0,0.0,0.0,0.0,0.0,0.0,0.0,0.0,0.0,0.0,0.0,0.0,0.0,0.0,0.0,0.0,0.0,0.0,0.0,-2.2101,-2.1869,-2.1631,-2.1371,-2.1039,-2.0861,-2.0597,-2.022,-1.9874,-1.9464,0.0,0.0,0.0,0.0,0.0,0.0,0.0,0.0,0.0,0.0,0.0,0.0,0.0,0.0,0.0,0.0,0.0,0.0,0.0,0.0,0.0,0.0,0.0,0.0,0.0,0.0,0.0,0.0,-2.2685,-2.3387,-2.4757,0.0,0.0,0.0,0.0,0.0,0.0,0.0,0.0,0.0,0.0,-3.215,-3.2196,-3.1984,0.0,0.0,-3.1559,-3.1521,-3.15,-3.1346,-3.1421,-3.1896,-3.2161,0.0,0.0,0.0,0.0,0.0,0.0,0.0,0.0,0.0,0.0,0.0,0.0,0.0,0.0,0.0,0.0,0.0,0.0,0.0,0.0,0.0,0.0,0.0,0.0,0.0,0.0,0.0,0.0,0.0,0.0,0.0,0.0,0.0,0.0,0.0,0.0,0.0,0.0,0.0,0.0,0.0,0.0,0.0,0.0,0.0,0.0,0.0,0.0,0.0,0.0,0.0,0.0,-2.1705,-2.1464,-2.1198,-2.0909,-2.0595,-2.0361,-2.0085,-1.9741,-1.9384,-1.8997,0.0,0.0,0.0,0.0,0.0,0.0,0.0,0.0,0.0,0.0,0.0,0.0,0.0,0.0,0.0,0.0,0.0,0.0,0.0,0.0,0.0,0.0,0.0,0.0,0.0,0.0,0.0,0.0,-2.2892,-2.3902,-2.5661,0.0,0.0,0.0,0.0,0.0,0.0,0.0,0.0,0.0,0.0,-3.2214,-3.2003,-3.1748,-3.1665,-3.1884,-3.1807,-3.1854,-3.2154,-3.2066,-3.2116,-3.2757,0.0,0.0,0.0,0.0,0.0,0.0,0.0,0.0,0.0,0.0,0.0,0.0,0.0,0.0,0.0,0.0,0.0,0.0,0.0,0.0,0.0,0.0,0.0,0.0,0.0,0.0,0.0,-2.1524,0.0,0.0,-2.1477,0.0,0.0,0.0,0.0,0.0,0.0,0.0,0.0,0.0,0.0,0.0,0.0,0.0,0.0,0.0,0.0,0.0,0.0,0.0,0.0,0.0,0.0,-2.1245,-2.0942,-2.0648,-2.0395,-2.01,-1.9854,-1.953,-1.9139,-1.8912,-1.85,-1.7828,0.0,0.0,0.0,0.0,0.0,0.0,0.0,0.0,0.0,0.0,0.0,0.0,0.0,0.0,0.0,0.0,0.0,0.0,0.0,0.0,0.0,0.0,0.0,0.0,0.0,0.0,-2.2511,-2.3492,-2.4576,0.0,0.0,0.0,0.0,0.0,0.0,0.0,0.0,0.0,-3.2479,-3.2248,-3.1967,-3.1894,-3.1728,-3.1874,-3.271,-3.2771,-3.3007,-3.3699,-3.3635,-3.3556,0.0,0.0,0.0,0.0,0.0,0.0,0.0,0.0,0.0,0.0,0.0,0.0,0.0,0.0,0.0,0.0,0.0,0.0,0.0,0.0,0.0,0.0,0.0,0.0,0.0,0.0,0.0,-2.2075,-2.1426,0.0,0.0,0.0,0.0,0.0,0.0,0.0,0.0,0.0,0.0,0.0,-2.1222,-2.1509,0.0,0.0,0.0,0.0,0.0,0.0,0.0,0.0,0.0,0.0,0.0,0.0,-2.0795,-2.0447,-2.0104,-1.9818,-1.9457,-1.9199,-1.8936,-1.8592,-1.8226,-1.7828,-1.7282,0.0,0.0,0.0,0.0,0.0,0.0,0.0,0.0,0.0,0.0,0.0,0.0,0.0,0.0,0.0,0.0,0.0,0.0,0.0,0.0,0.0,0.0,0.0,0.0,0.0,-2.3013,0.0,0.0,0.0,0.0,0.0,0.0,0.0,0.0,0.0,0.0,-3.1435,-3.154,-3.2074,-3.1875,-3.1671,-3.1651,-3.1504,-3.1684,0.0,0.0,0.0,0.0,0.0,0.0,0.0,0.0,0.0,0.0,0.0,0.0,0.0,0.0,-3.4878,-3.4878,-3.4211,-3.3656,-3.3785,0.0,0.0,0.0,0.0,0.0,0.0,0.0,0.0,0.0,0.0,0.0,0.0,0.0,0.0,-2.2,-2.134,-2.1355,0.0,0.0,0.0,0.0,0.0,0.0,0.0,0.0,-2.1097,-2.1152,-2.0869,-2.1227,-2.1413,0.0,-2.1641,-2.1598,0.0,0.0,0.0,0.0,0.0,0.0,0.0,0.0,-2.0439,-1.9859,-1.9515,-1.9161,-1.8898,-1.8592,-1.8358,-1.8068,-1.7625,-1.7173,-1.682,-1.6577,-1.6448,0.0,0.0,0.0,0.0,0.0,0.0,0.0,0.0,0.0,0.0,0.0,0.0,0.0,0.0,0.0,0.0,0.0,0.0,0.0,0.0,0.0,0.0,0.0,-2.3644,0.0,0.0,0.0,0.0,0.0,0.0,0.0,0.0,0.0,-3.1923,-3.1825,-3.1933,-3.2475,-3.2124,-3.1849,-3.1832,0.0,0.0,0.0,0.0,0.0,0.0,0.0,-3.4542,-3.5044,-3.4999,-3.4975,-3.5419,-3.5441,-3.5508,-3.5773,0.0,0.0,-3.5577,-3.4948,-3.4355,-3.4423,-3.459,-3.4967,-3.5613,-3.5342,-3.5134,0.0,0.0,0.0,0.0,-2.3215,0.0,0.0,0.0,-2.1759,-2.1505,0.0,-2.1152,0.0,0.0,0.0,0.0,-2.0289,-2.0616,0.0,0.0,-2.0637,-2.0653,-2.0462,-2.1206,-2.1636,-2.1807,-2.2016,-2.1893,-2.1449,-2.1739,0.0,0.0,0.0,0.0,0.0,0.0,-2.0101,-1.9242,-1.8784,-1.8553,-1.8461,-1.8028,-1.776,-1.7625,-1.7005,-1.6637,-1.6479,-1.6163,-1.6001,-1.5988,-1.5869,0.0,0.0,0.0,0.0,0.0,0.0,0.0,0.0,0.0,0.0,0.0,0.0,0.0,0.0,0.0,0.0,0.0,0.0,0.0,0.0,-2.3785,0.0,0.0,0.0,0.0,0.0,0.0,0.0,0.0,0.0,-3.2337,-3.2354,-3.2732,-3.3197,-3.3624,0.0,0.0,0.0,0.0,-3.2872,-3.3791,-3.447,-3.5164,-3.6028,-3.5932,-3.5694,-3.5605,0.0,0.0,-3.5291,-3.5182,-3.5271,-3.5997,-3.5407,-3.5041,-3.5458,-3.5605,-3.5705,-3.5705,-3.5907,-3.6148,-3.6165,-3.613,-3.6113,-2.4069,0.0,0.0,0.0,0.0,-2.3509,-2.3068,-2.2513,-2.2323,-2.1712,-2.0887,-2.0859,0.0,0.0,0.0,0.0,0.0,0.0,-2.0425,-2.0159,-2.0569,-2.0691,-2.0558,-2.0779,-2.1019,-2.1229,-2.1423,-2.152,-2.1545,-2.1629,-2.1482,-2.107,0.0,0.0,0.0,0.0,-1.9558,-1.9039,-1.8328,-1.7868,-1.772,-1.7475,-1.7186,-1.685,-1.6582,-1.6293,-1.6013,-1.5824,-1.568,-1.549,-1.5558,0.0,0.0,0.0,0.0,0.0,0.0,0.0,0.0,0.0,0.0,0.0,0.0,0.0,0.0,0.0,0.0,0.0,0.0,0.0,-2.3887,-2.4551,-2.5236,0.0,0.0,0.0,0.0,0.0,0.0,0.0,0.0,0.0,-3.3877,-3.3745,-3.3659,0.0,0.0,-3.3185,-3.3284,-3.3284,-3.3581,-3.4497,-3.4787,0.0,-3.5916,-3.5844,-3.5622,-3.547,-3.5165,-3.4899,-3.4899,-3.4739,-3.4756,-3.4982,-3.4789,-3.466,-3.4808,-3.5096,-3.5337,-3.552,-3.5656,-3.5745,-3.5861,-3.5844,-3.5827,-2.3666,-2.3918,-2.4158,-2.4032,-2.3636,-2.326,-2.2785,-2.2235,-2.1988,-2.1464,-2.0725,-2.0711,-2.0328,-1.9699,-1.9822,0.0,0.0,0.0,-2.0404,-2.0126,-2.0367,-2.0409,-2.0308,-2.0321,-2.0472,-2.0699,-2.0835,-2.097,-2.1202,-2.1215,-2.1043,-2.0688,0.0,-2.098,-2.0623,-1.9807,-1.9167,-1.8654,-1.7851,-1.7365,-1.724,-1.7018,-1.6735,-1.6306,-1.612,-1.5901,-1.5603,-1.5334,-1.5153,-1.4949,-1.4903,-1.4903,0.0,0.0,0.0,0.0,0.0,0.0,0.0,0.0,0.0,0.0,0.0,-1.8515,-1.9446,0.0,0.0,0.0,-2.3237,-2.399,-2.4744,-2.5513,0.0,0.0,0.0,0.0,0.0,0.0,0.0,-3.1724,-3.2951,-3.3981,-3.429,-3.4353,-3.4372,-3.4372,-3.3821,-3.3448,-3.3507,0.0,-3.36,-3.3836,-3.4321,-3.4865,-3.5273,-3.5138,-3.4952,-3.4958,-3.4626,-3.4349,-3.43,-3.4134,-3.3987,-3.3991,-3.389,-3.3845,-3.3942,-3.4177,-3.4529,-3.5041,-3.5245,-3.5207,-3.5043,-3.4959,-3.4829,-2.2694,-2.2267,-2.2905,-2.3084,-2.2846,-2.2406,-2.1921,-2.1471,-2.1091,-2.0908,-2.0696,-2.061,-2.0322,-1.9921,-2.0065,0.0,-1.9935,-2.0374,-2.0409,-2.0182,-2.0029,-1.9926,-1.9798,-1.9926,-2.0042,-2.0182,-2.0321,-2.0409,-2.056,-2.056,-2.0573,-2.056,-2.1028,-2.1015,-2.0469,-1.9712,-1.8945,-1.8201,-1.7437,-1.7012,-1.6918,-1.6607,-1.6293,-1.5944,-1.568,-1.5445,-1.5209,-1.4789,-1.4477,-1.4326,-1.4129,-1.4082,-1.4326,0.0,0.0,0.0,0.0,0.0,0.0,0.0,0.0,0.0,0.0,0.0,0.0,0.0,0.0,-2.3084,-2.4559,0.0,-2.5699,-2.6459,0.0,0.0,0.0,-2.9425,-2.9605,-3.1059,-3.212,-3.2455,0.0,0.0,-3.3885,-3.4559,-3.5081,-3.5402,-3.425,-3.3448,-3.3381,-3.3322,-3.3111,-3.2553,-3.3431,-3.4202,-3.4185,-3.4029,-3.3978,-3.4153,-3.3984,-3.3781,-3.3626,-3.3351,-3.314,-3.3144,-3.2956,-3.2866,-3.3107,-3.3197,-3.3439,-3.4333,-3.4625,-3.4537,-3.3988,-3.3756,-3.3524,-2.1841,-2.1589,-2.1465,-2.1561,-2.1793,-2.1554,-2.1166,-2.066,-2.0573,-2.0435,-2.0182,-2.0182,-2.0054,-1.999,-2.0128,-2.0078,-1.999,-2.008,-2.008,-1.9901,-1.985,-1.9811,-1.9798,-1.9811,-1.9914,-2.0029,-2.0093,-2.0182,-2.0271,-2.0182,-2.0182,-2.0271,-2.0194,-2.0231,-2.0401,-1.9707,-1.9042,-1.8362,-1.7574,-1.686,-1.6275,-1.6044,-1.5824,-1.5445,-1.522,-1.4858,-1.449,-1.4233,-1.401,-1.3658,-1.3647,-1.3752,-1.381,-1.4093,0.0,0.0,0.0,0.0,0.0,0.0,0.0,0.0,0.0,-1.8963,-2.0146,0.0,-2.2048,0.0,-2.4134,-2.5256,-2.5923,-2.6212,0.0,0.0,-2.8155,-2.9281,-3.0736,-3.1611,-3.2185,-3.2285,-3.3323,-3.404,-3.4055,-3.3904,-3.3818,-3.3895,-3.3786,-3.3523,-3.2973,-3.2873,-3.2807,-3.264,-3.2857,-3.3079,-3.3023,-3.3023,-3.3145,-3.3431,-3.323,-3.3033,-3.2873,-3.2711,-3.2602,-3.2602,-3.2547,-3.2554,-3.2567,-3.264,-3.2819,-3.3077,-3.3265,-3.3484,-3.3494,-3.3096,-3.2685,-2.118,-2.0921,-2.0709,-2.066,-2.0772,-2.0772,-2.0536,-2.0233,-2.0169,-2.0067,-1.9875,-1.9823,-1.9823,-1.9823,-1.9823,-1.9823,-1.9823,-1.9836,-1.9811,-1.9798,-1.9798,-1.9798,-1.9798,-1.9798,-1.9862,-1.9926,-1.9875,-1.9862,-1.9926,-1.9772,-1.9668,-1.9759,-1.9552,-1.9552,-1.9734,-1.9358,-1.8893,-1.841,-1.738,-1.649,-1.5748,-1.5558,-1.5334,-1.5006,-1.4777,-1.4455,-1.4046,-1.381,-1.3573,-1.3296,-1.3296,-1.3324,-1.342,-1.3903,-1.4393,0.0,0.0,0.0,0.0,0.0,0.0,0.0,0.0,0.0,0.0,0.0,-2.2436,-2.3544,-2.4781,-2.5753,-2.6349,-2.6746,-2.7113,-2.7561,-2.8299,-2.9339,-3.0756,-3.1394,-3.1737,-3.1842,-3.2499,-3.2902,-3.2702,-3.2449,-3.2144,-3.1839,-3.195,-3.2055,-3.2077,-3.2067,-3.1968,-3.1671,-3.1764,-3.1782,-3.1586,-3.1823,-3.199,-3.1977,-3.2073,-3.2029,-3.1897,-3.2048,-3.2109,-3.2099,-3.2068,-3.2038,-3.2114,-3.2181,-3.221,-3.1975,-3.1857,-3.1861,-3.2159,-3.1726,-3.118,-2.0686,-2.0372,-2.0321,-2.0182,-1.999,-2.008,-2.008,-1.999,-1.9798,-1.9747,-1.9695,-1.9604,-1.9565,-1.9512,-1.9408,-1.942,-1.9552,-1.9565,-1.9604,-1.9747,-1.9747,-1.9747,-1.9747,-1.9798,-1.9747,-1.9695,-1.9604,-1.9512,-1.9512,-1.9251,-1.9133,-1.9133,-1.9028,-1.8934,-1.8857,-1.8775,-1.8533,-1.8148,-1.6967,-1.5962,-1.5244,-1.5051,-1.4834,-1.4534,-1.4384,-1.415,-1.3763,-1.3515,-1.3306,-1.3154,-1.3067,-1.3067,-1.334,-1.3861,-1.4437,0.0,-1.5574,0.0,0.0,0.0,0.0,0.0,0.0,0.0,0.0,-2.1529,-2.3064,-2.4696,-2.5707,-2.6421,-2.6756,-2.7394,-2.779,-2.7745,-2.8414,-2.9206,-3.0107,-3.0662,-3.106,-3.1152,-3.1297,-3.1275,-3.0931,-3.0744,-3.0467,-2.9982,-2.9826,-3.0037,-3.0703,-3.0912,-3.0656,-3.0082,-3.0328,-3.0428,-3.0275,-3.0523,-3.0666,-3.0479,-3.0731,-3.0952,-3.0873,-3.1147,-3.1498,-3.1468,-3.1294,-3.1282,-3.1498,-3.1483,-3.1358,-3.1058,-3.0472,-3.0222,-3.0503,-3.017,-2.9465,-2.0233,-2.0029,-1.9965,-1.9862,-1.9798,-1.9772,-1.9759,-1.9811,-1.9708,-1.95,-1.9331,-1.9291,-1.9251,-1.9093,-1.9093,-1.9133,-1.9291,-1.9279,-1.9396,-1.9604,-1.9656,-1.9604,-1.9604,-1.9656,-1.9552,-1.9331,-1.9279,-1.9146,-1.8958,-1.8893,-1.8839,-1.8721,-1.8667,-1.8548,-1.8309,0.0,0.0,0.0,-1.6238,-1.5555,-1.4776,-1.4605,-1.4373,-1.4114,-1.3962,0.0,-1.3362,-1.3266,-1.3302,-1.342,-1.3389,0.0,0.0,0.0,0.0,0.0,0.0,0.0,0.0,0.0,0.0,0.0,-1.9028,-1.9758,-2.0953,-2.2205,-2.3478,-2.4751,-2.5312,-2.5908,-2.6645,-2.6872,-2.6989,-2.7181,-2.7733,-2.8228,-2.8557,-2.9346,-2.9922,-2.9907,-3.0213,-3.0416,-3.0268,-2.9975,-2.9593,-2.941,-2.8969,-2.8722,-2.8934,-2.9124,-2.917,-2.8997,-2.903,-2.917,-2.9487,-2.9558,-2.9633,-2.9811,-2.9932,-3.0014,-2.9937,-2.9973,-3.0038,-3.0053,-3.0008,-2.9998,-3.0023,-3.0008,-3.0093,-2.9898,-2.941,-2.9085,-2.955,-2.9141,-2.8647,-2.0016,-1.9875,-1.9759,-1.9545,0.0,-1.9117,-1.8906,-1.8684,-1.9226,-1.9239,-1.8987,-1.875,-1.8655,-1.8655,-1.8494,-1.8602,-1.8922,-1.8922,-1.9028,-1.9291,-1.9291,-1.9303,-1.9291,-1.8983,-1.8903,-1.8975,-1.8501,-1.8342,-1.8429,-1.8116,-1.7975,-1.7897,-1.7799,-1.7634,-1.7457,-1.739,-1.7081,-1.6558,-1.5853,-1.5143,-1.4468,-1.4116,-1.38,-1.3621,-1.3573,0.0,0.0,0.0,0.0,0.0,0.0,0.0,0.0,0.0,0.0,-1.5147,-1.5416,-1.5862,-1.6358,-1.6622,-1.7148,-1.8015,-1.8988,-2.013,-2.1624,-2.2405,-2.3407,-2.471,-2.5254,-2.5771,-2.6269,-2.6404,-2.6525,-2.6664,-2.6949,-2.7277,-2.7748,-2.8272,-2.8557,-2.868,-2.8827,-2.8868,-2.851,-2.8248,-2.806,-2.8051,-2.7769,-2.7584,-2.7625,-2.8155,-2.8558,-2.8479,-2.8398,-2.8409,-2.8534,-2.8591,-2.8531,-2.874,-2.8952,-2.9177,-2.9101,-2.937,-2.9594,-2.9594,-2.9594,-2.9594,-2.9594,-2.9594,-2.949,-2.916,-2.8831,-2.8509,-2.8581,-2.8267,-2.7989,-1.9736,-1.9609,-1.9356,-1.9019,-1.8561,-1.8312,-1.787,-1.7313,-1.8422,0.0,0.0,-1.807,-1.7984,-1.8061,-1.7843,-1.7952,-1.8398,-1.8398,-1.856,-1.8827,-1.8827,-1.8833,-1.8672,-1.8191,-1.8076,-1.8266,-1.7583,-1.7417,-1.7684,-1.7302,-1.7078,-1.7022,-1.6807,-1.6705,-1.6637,-1.6524,-1.6437,-1.632,-1.5564,-1.4852,-1.4214,-1.3654,-1.3314,-1.3218,-1.3218,-1.318,-1.3085,-1.3422,-1.3619,-1.3623,-1.3893,-1.4209,-1.4474,-1.4873,-1.5163,-1.5406,-1.5796,-1.6056,-1.6181,-1.6467,-1.6909,-1.7446,-1.8716,-2.0232,-2.1928,-2.2398,-2.3171,-2.457,-2.516,-2.5495,-2.5674,-2.5851,-2.596,-2.5946,-2.6014,-2.6335,-2.6928,-2.7178,-2.7288,-2.7342,-2.7465,-2.7277,-2.6814,-2.6727,-2.663,-2.663,-2.6712,-2.6592,-2.6736,-2.7458,-2.7974,-2.7925,-2.7825,-2.7825,-2.769,-2.7619,-2.759,-2.7527,-2.7928,-2.8226,-2.8345,-2.8702,-2.9068,-2.8955,-2.9059,-2.9015,-2.9029,-2.8955,-2.8866,-2.8375,-2.8256,-2.8077,-2.7571,-2.7458,-2.7473,-1.9083,-1.8871,-1.8314,-1.7885,-1.7654,-1.73,-1.6758,-1.6233,-1.722,-1.7379,-1.6935,-1.7236,-1.729,-1.7168,-1.7123,-1.7346,-1.7634,-1.7634,-1.7843,-1.8213,-1.8201,-1.8035,-1.7607,-1.7526,-1.7088,-1.6394,-1.6572,-1.6504,-1.6277,-1.6539,-1.657,-1.6467,-1.641,-1.6296,-1.6171,-1.5951,-1.5816,-1.5793,-1.5195,-1.4563,-1.3983,-1.3469,-1.3218,-1.3218,-1.3218,-1.318,-1.3085,-1.3154,-1.3461,-1.4004,-1.4048,-1.4463,-1.5186,-1.5264,-1.538,-1.538,-1.5439,-1.5594,-1.5788,-1.6066,-1.6627,-1.759,-1.8196,-1.9383,-2.138,-2.2229,-2.3051,-2.4066,-2.4408,-2.458,-2.4681,-2.4738,-2.4794,-2.4794,-2.5034,-2.5271,-2.5423,-2.5827,-2.6172,-2.6172,-2.6372,-2.648,-2.6326,-2.6272,-2.6286,-2.6326,-2.6207,-2.6332,-2.6326,-2.6669,-2.693,-2.6945,-2.6945,-2.6893,-2.6945,-2.6893,-2.6893,-2.6826,-2.6928,-2.7112,-2.7112,-2.7229,-2.7331,-2.7147,-2.7302,-2.7272,-2.7243,-2.7103,-2.7147,-2.7112,-2.7112,-2.7024,-2.6893,-2.6878,-2.6997,-1.8277,-1.8142,-1.7605,-1.7135,-1.6657,-1.5782,-1.5152,-1.4708,-1.5329,-1.5836,-1.6224,-1.6274,-1.6395,-1.6616,-1.656,-1.6673,-1.7022,-1.7022,-1.7123,-1.7401,-1.7401,-1.728,-1.7026,-1.6466,-1.621,-1.6267,-1.5839,-1.5773,-1.6011,-1.6089,-1.6077,-1.5951,-1.5884,-1.5768,-1.57,-1.5594,-1.5498,-1.543,-1.5038,-1.4502,-1.3972,-1.3478,-1.3086,-1.2706,-1.2706,-1.2715,-1.2676,-1.2897,-1.3186,-1.3509,-1.3801,-1.4109,-1.453,-1.4828,-1.4954,-1.4964,-1.5225,-1.541,-1.5536,-1.5826,-1.6343,-1.7145,-1.7523,-1.854,-2.0478,-2.1423,-2.2382,-2.3441,-2.3852,-2.4086,-2.4144,-2.4247,-2.4292,-2.4279,-2.4408,-2.4536,-2.465,-2.4821,-2.509,-2.5147,-2.5245,-2.5342,-2.5356,-2.5314,-2.5328,-2.5356,-2.5313,-2.5327,-2.537,-2.5467,-2.5783,-2.6351,-2.6496,-2.651,-2.6457,-2.651,-2.6457,-2.6496,-2.6496,-2.651,-2.651,-2.6457,-2.6457,-2.6443,-2.6457,-2.651,-2.6457,-2.651,-2.651,-2.6496,-2.6457,-2.6457,-2.6443,-2.651,-2.6616,-1.7399,-1.7243,-1.6811,-1.6218,-1.5495,-1.4457,-1.38,-1.3519,-1.3758,-1.4461,-1.5254,-1.5257,-1.5497,-1.5961,-1.5914,-1.6089,-1.64,-1.6467,-1.6524,-1.6637,-1.6637,-1.6595,-1.6416,-1.5604,-1.556,-1.5939,-1.5205,-1.5178,-1.5739,-1.5671,-1.5614,-1.5614,-1.5478,-1.542,-1.542,-1.5362,-1.5313,-1.5137,-1.4878,-1.4455,-1.3882,-1.3408,-1.2846,-1.2252,-1.2175,-1.2184,-1.2184,-1.2471,-1.2726,-1.2941,-1.3284,-1.3509,-1.3666,-1.4164,-1.4449,-1.4534,-1.5071,-1.5371,-1.5478,-1.57,-1.6056,-1.6581,-1.6909,-1.7763,-1.94,-2.0354,-2.1461,-2.2745,-2.339,-2.3641,-2.37,-2.3793,-2.3897,-2.3884,-2.3897,-2.3956,-2.4073,-2.4131,-2.4247,-2.4363,-2.4408,-2.4408,-2.4394,-2.4394,-2.4465,-2.4465,-2.4394,-2.4408,-2.4408,-2.4408,-2.4838,-2.5453,-2.5837,-2.5837,-2.5906,-2.5851,-2.5851,-2.5892,-2.5837,-2.5797,-2.5783,-2.5851,-2.5906,-2.5837,-2.5837,-2.5797,-2.5851,-2.5837,-2.5837,-2.5783,-2.5783,-2.5837,-2.5797,-2.5797,-2.6054,-1.6374,-1.5997,-1.5417,-1.4716,-1.4026,-1.3631,-1.3392,-1.3182,-1.3183,-1.3382,-1.3817,-1.4255,-1.4715,-1.5093,-1.5123,-1.5399,-1.5931,-1.5972,-1.6009,-1.6171,-1.6171,-1.5956,-1.5618,-1.541,-1.5097,-1.4666,-1.48,-1.4923,-1.4978,-1.5244,-1.542,-1.542,-1.542,-1.542,-1.5362,-1.5254,-1.5147,-1.5039,-1.4688,-1.4211,-1.3568,-1.3032,-1.247,-1.1945,-1.1819,-1.1728,-1.1728,-1.1805,-1.1992,-1.2314,-1.2429,-1.2671,-1.3186,-1.3765,-1.4119,-1.4251,-1.4859,-1.5332,-1.5614,-1.5662,-1.5836,-1.6171,-1.6457,-1.719,-1.8485,-1.9242,-2.038,-2.2019,-2.2787,-2.2969,-2.303,-2.3138,-2.3198,-2.3185,-2.333,-2.345,-2.3509,-2.3772,-2.3949,-2.3936,-2.3969,-2.4131,-2.406,-2.406,-2.4118,-2.406,-2.406,-2.406,-2.4073,-2.4073,-2.406,-2.4337,-2.4509,-2.4667,-2.4724,-2.4681,-2.4794,-2.4738,-2.4681,-2.4794,-2.4851,-2.4794,-2.4681,-2.4964,-2.4794,-2.4794,-2.4794,-2.4681,-2.4738,-2.4851,-2.4838,-2.4724,-2.4667,-2.4738,-2.5119,-1.5139,-1.4929,-1.4449,-1.3931,-1.3467,-1.3296,-1.3113,-1.2978,-1.2978,-1.3037,-1.3145,-1.338,-1.3873,-1.4439,-1.4459,-1.4749,-1.5219,-1.5229,-1.5414,-1.568,-1.571,-1.5553,-1.5271,-1.5005,-1.4795,-1.4525,-1.4487,-1.4516,-1.4628,-1.4808,-1.4883,-1.4883,-1.4883,-1.4883,-1.4883,-1.4834,-1.4656,-1.4428,-1.4181,-1.3561,-1.2633,-1.2517,-1.2026,-1.1133,-1.0964,-1.0913,-1.0905,-1.0913,-1.1082,-1.1439,-1.1499,-1.1567,-1.1826,-1.2404,-1.2949,-1.332,-1.4313,-1.4961,-1.5128,-1.5264,-1.5498,-1.571,-1.5989,-1.6726,-1.788,-1.8544,-1.9488,-2.0791,-2.1815,-2.2334,-2.2482,-2.2543,-2.2543,-2.2604,-2.2678,-2.2678,-2.269,-2.2848,-2.303,-2.303,-2.315,-2.3258,-2.3258,-2.3318,-2.3437,-2.3484,-2.3484,-2.3484,-2.3543,-2.3543,-2.3543,-2.3484,-2.3543,-2.3767,-2.4118,-2.4292,-2.4234,-2.4234,-2.4292,-2.4292,-2.4234,-2.4234,-2.4292,-2.4234,-2.4234,-2.4234,-2.4279,-2.4234,-2.4234,-2.4234,-2.4234,-2.4221,-2.4279,-2.4292,-2.4567,-1.4186,-1.4093,-1.3726,-1.343,-1.318,-1.3065,-1.2978,-1.2832,-1.2832,-1.2832,-1.2783,-1.2783,-1.3153,-1.3698,-1.3854,-1.4199,-1.459,-1.4727,-1.4941,-1.5234,-1.5352,-1.5303,-1.5167,-1.4898,-1.4658,-1.4563,-1.431,-1.4203,-1.4332,-1.435,-1.435,-1.435,-1.435,-1.435,-1.435,-1.43,-1.4112,-1.3821,-1.3528,-1.2847,-1.1832,-1.1769,-1.1325,-1.0363,-1.019,-1.019,-1.019,-1.0198,-1.0293,-1.0506,-1.0557,-1.0557,-1.0616,-1.1245,-1.193,-1.2758,-1.3736,-1.441,-1.4538,-1.4843,-1.5079,-1.5235,-1.5526,-1.6246,-1.7287,-1.7945,-1.8678,-1.976,-2.0677,-2.1313,-2.1851,-2.1987,-2.2049,-2.2037,-2.2049,-2.2037,-2.2049,-2.2161,-2.2223,-2.2211,-2.2408,-2.2482,-2.2555,-2.2678,-2.2775,-2.2848,-2.2836,-2.2848,-2.2836,-2.2836,-2.2836,-2.2848,-2.2787,-2.3017,-2.3603,-2.3662,-2.3721,-2.378,-2.3721,-2.3721,-2.3826,-2.3839,-2.3839,-2.3721,-2.378,-2.378,-2.3767,-2.3767,-2.3826,-2.3826,-2.3826,-2.3826,-2.3767,-2.3826,-2.3826,-1.3668,-1.342,-1.322,-1.3123,-1.3075,-1.2978,-1.2832,-1.2725,-1.2735,-1.2627,-1.2529,-1.2529,-1.2607,-1.2811,-1.3297,-1.3727,-1.4189,-1.458,-1.4805,-1.4922,-1.5244,-1.5313,-1.5225,-1.501,-1.4765,-1.435,-1.4136,-1.4025,-1.395,-1.395,-1.401,-1.401,-1.395,-1.3941,-1.3881,-1.3631,-1.345,-1.3208,-1.2728,-1.2057,-1.1346,-1.0806,-1.0357,-0.9896,-0.9718,-0.9673,-0.9614,-0.9621,-0.9673,-0.9666,-0.9718,-0.9718,-0.9895,-1.0515,-1.1501,-1.2777,-1.3339,-1.3752,-1.413,-1.4359,-1.4588,-1.4775,-1.5215,-1.5851,-1.6789,-1.7387,-1.8101,-1.9048,-1.9441,-2.002,-2.0869,-2.1262,-2.1514,-2.1502,-2.1565,-2.1553,-2.1565,-2.1502,-2.1616,-2.1628,-2.1765,-2.1963,-2.2185,-2.2247,-2.2247,-2.2247,-2.2247,-2.2247,-2.2247,-2.2247,-2.2247,-2.2247,-2.2235,-2.2371,-2.2787,-2.2969,-2.2909,-2.2957,-2.3078,-2.303,-2.3078,-2.3125,-2.3138,-2.3138,-2.3185,-2.3185,-2.3138,-2.3198,-2.3245,-2.3245,-2.3305,-2.3305,-2.3365,-2.3185,-2.317,-1.3258,-1.3055,-1.3017,-1.2978,-1.2978,-1.2929,-1.2832,-1.2676,-1.2637,-1.2431,-1.2283,-1.2224,-1.2224,-1.2243,-1.2702,-1.3366,-1.4077,-1.4307,-1.4612,-1.4994,-1.5187,-1.502,-1.4556,-1.4437,-1.3992,-1.3442,-1.3216,-1.2964,-1.272,-1.272,-1.272,-1.272,-1.272,-1.2728,-1.2728,-1.2597,-1.2474,-1.229,-1.1988,-1.1522,-1.0934,-1.0545,-1.0161,-0.975,-0.9414,-0.9211,-0.9211,-0.9211,-0.9263,-0.9368,-0.9368,-0.9361,-0.9508,-1.0235,-1.105,-1.1854,-1.2526,-1.2964,-1.3155,-1.37,-1.4121,-1.4318,-1.5027,-1.5811,-1.6558,-1.7165,-1.783,-1.8455,-1.8865,-1.9253,-1.9584,-2.0042,-2.0291,-2.0302,-2.0302,-2.0366,-2.0366,-2.0484,-2.0666,-2.0666,-2.088,-2.121,-2.14,-2.1526,-2.1588,-2.1765,-2.1765,-2.1765,-2.1827,-2.1839,-2.1776,-2.1776,-2.1651,-2.1588,-2.1702,-2.2173,-2.2371,-2.2432,-2.2494,-2.2482,-2.2543,-2.2531,-2.2531,-2.2641,-2.2641,-2.2775,-2.2836,-2.303,-2.3017,-2.3005,-2.3065,-2.2952,-2.3125,-2.2777,-2.2614,-1.2988,-1.2929,-1.2891,-1.2891,-1.2891,-1.2891,-1.2783,-1.2578,-1.2431,-1.2184,-1.1877,-1.1828,-1.1778,-1.1799,-1.2146,-1.2786,-1.3638,-1.3889,-1.4269,-1.4743,-1.4845,-1.4606,-1.413,-1.3881,-1.3398,-1.272,-1.2359,-1.212,-1.1934,-1.1864,-1.1864,-1.1864,-1.1864,-1.1864,-1.1864,-1.1802,-1.174,-1.1615,-1.1435,-1.1071,-1.0697,-1.041,-1.0147,-0.9845,-0.9451,-0.9194,-0.9248,-0.9194,-0.9248,-0.935,-0.9343,-0.9404,-0.9507,-1.0109,-1.0719,-1.113,-1.1737,-1.2174,-1.2297,-1.292,-1.3398,-1.3649,-1.4662,-1.5508,-1.6119,-1.6915,-1.7463,-1.7871,-1.8202,-1.8337,-1.8395,-1.8731,-1.9142,-1.9341,-1.9407,-1.9473,-1.9473,-1.9671,-1.9857,-1.9824,-2.002,-2.0302,-2.056,-2.0624,-2.0688,-2.0933,-2.0921,-2.0921,-2.0921,-2.0921,-2.0921,-2.0933,-2.0741,-2.0624,-2.0624,-2.0955,-2.1474,-2.16,-2.1726,-2.1788,-2.1925,-2.1913,-2.1975,-2.2087,-2.2211,-2.2408,-2.2531,-2.2787,-2.2823,-2.2859,-2.272,-2.2533,-2.248,-2.2255,-2.201,-1.2891,-1.2891,-1.2891,-1.2891,-1.2891,-1.2891,-1.2686,-1.2332,-1.2175,-1.1828,-1.1368,-1.1167,-1.1192,-1.1328,-1.1625,-1.218,-1.2782,-1.3352,-1.3729,-1.3905,-1.4087,-1.401,-1.37,-1.339,-1.2903,-1.2174,-1.1809,-1.1622,-1.156,-1.156,-1.156,-1.156,-1.156,-1.1498,-1.1567,-1.1373,-1.1303,-1.1247,-1.0996,-1.0793,-1.0766,-1.0411,-1.0154,-1.0094,-0.9833,-0.9744,-0.9686,-0.9646,-0.9663,-0.9684,-0.9684,-0.9717,-0.9897,-1.0223,-1.0537,-1.0781,-1.1138,-1.1476,-1.174,-1.2112,-1.2552,-1.3009,-1.3941,-1.4943,-1.5614,-1.6327,-1.6919,-1.722,-1.7382,-1.7461,-1.7373,-1.7569,-1.8114,-1.8865,-1.8998,-1.8998,-1.9085,-1.925,-1.9306,-1.9156,-1.9299,-1.9375,-1.9528,-1.966,-1.9726,-1.9802,-1.9802,-1.9802,-1.9857,-1.9857,-1.966,-1.966,-1.9726,-1.9791,-1.9671,-1.9671,-2.0248,-2.0752,-2.0944,-2.1071,-2.1135,-2.1198,-2.125,-2.1376,-2.1702,-2.1889,-2.199,-2.2163,-2.2226,-2.2201,-2.2149,-2.1972,-2.1799,-2.1519,-2.1247,-1.2891,-1.2891,-1.2891,-1.2891,-1.2891,-1.2891,-1.2686,-1.2274,-1.2076,-1.1578,-1.0972,-1.0718,-1.0641,-1.0737,-1.106,-1.1511,-1.1919,-1.2381,-1.2912,-1.3467,-1.364,-1.3338,-1.285,-1.2536,-1.1981,-1.1365,-1.1059,-1.094,-1.094,-1.094,-1.087,-1.094,-1.0933,-1.0877,-1.094,-1.087,-1.0807,-1.0807,-1.0744,-1.0681,-1.0681,-1.053,-1.0421,-1.0414,-1.0334,-1.0287,-1.0329,-0.99,-0.9699,-0.9706,-0.9686,-0.9831,-1.0013,-1.0127,-1.0329,-1.0643,-1.0864,-1.0996,-1.1185,-1.163,-1.2149,-1.2696,-1.3719,-1.4624,-1.5268,-1.5967,-1.6441,-1.6576,-1.6664,-1.6664,-1.6811,-1.6881,-1.7285,-1.8046,-1.8269,-1.8337,-1.8405,-1.8559,-1.8607,-1.8643,-1.8721,-1.8808,-1.9008,-1.9075,-1.9075,-1.9208,-1.9208,-1.9208,-1.9274,-1.9208,-1.9243,-1.9288,-1.9177,-1.9075,-1.9075,-1.9008,-1.9264,-1.9781,-1.9977,-2.0237,-2.0431,-2.0484,-2.0473,-2.0666,-2.1049,-2.1192,-2.1369,-2.1389,-2.141,-2.1308,-2.1139,-2.0993,-2.0976,-2.0698,-2.0302,-1.2832,-1.2832,-1.2783,-1.2735,-1.2774,-1.2735,-1.2539,-1.2126,-1.1868,-1.1267,-1.0616,-1.0316,-1.0234,-1.0228,-1.061,-1.0987,-1.1316,-1.1714,-1.2174,-1.265,-1.2834,-1.2536,-1.2058,-1.1677,-1.1365,-1.087,-1.0681,-1.0618,-1.0618,-1.0618,-1.0618,-1.0618,-1.0618,-1.0618,-1.0618,-1.0618,-1.0618,-1.0618,-1.0618,-1.0618,-1.0618,-1.0618,-1.0618,-1.0618,-1.0618,-1.0618,-1.0591,-1.0194,-1.0007,-1.0007,-1.0007,-1.0107,-1.0267,-1.0287,-1.0367,-1.0564,-1.0681,-1.0751,-1.0744,-1.1178,-1.1563,-1.2138,-1.3168,-1.4048,-1.463,-1.5282,-1.5807,-1.5737,-1.5816,-1.5895,-1.5886,-1.6184,-1.6533,-1.695,-1.7442,-1.7735,-1.7959,-1.8086,-1.8202,-1.8269,-1.8269,-1.8414,-1.8482,-1.8482,-1.8549,-1.8674,-1.8674,-1.8674,-1.8674,-1.8674,-1.871,-1.87,-1.8586,-1.8539,-1.8472,-1.8472,-1.8405,-1.8741,-1.9065,-1.9396,-1.9594,-1.966,-1.9715,-1.9901,-2.015,-2.0123,-2.0195,-2.0308,-2.0312,-2.0188,-2.0053,-1.9889,-1.9735,-1.9427,-1.912,-1.2676,-1.2676,-1.2529,-1.248,-1.248,-1.248,-1.2224,-1.1877,-1.1578,-1.0956,-1.0249,-0.9956,-0.987,-0.995,-1.0294,-1.0616,-1.0986,-1.1345,-1.1435,-1.1498,-1.1615,-1.1677,-1.1498,-1.1115,-1.0863,-1.0744,-1.0624,-1.0618,-1.0618,-1.0618,-1.0618,-1.0618,-1.0618,-1.0618,-1.0618,-1.0618,-1.0618,-1.0618,-1.0618,-1.0618,-1.0618,-1.0618,-1.0618,-1.0618,-1.0618,-1.0618,-1.0604,-1.0494,-1.0501,-1.0541,-1.0488,-1.0544,-1.0541,-1.0618,-1.0541,-1.0618,-1.0618,-1.0618,-1.0618,-1.0807,-1.1038,-1.134,-1.2379,-1.3132,-1.3564,-1.4415,-1.4911,-1.4681,-1.4903,-1.4982,-1.4824,-1.518,-1.5621,-1.5833,-1.6603,-1.7323,-1.7842,-1.7959,-1.7862,-1.794,-1.794,-1.8008,-1.7998,-1.7998,-1.8066,-1.8076,-1.8144,-1.8144,-1.8144,-1.8212,-1.8076,-1.8076,-1.8212,-1.8212,-1.8269,-1.8202,-1.8202,-1.8269,-1.8539,-1.8674,-1.8942,-1.8942,-1.8885,-1.9073,-1.9249,-1.9114,-1.9009,-1.9076,-1.9083,-1.8895,-1.8751,-1.8679,-1.8464,-1.8248,-1.8146,-1.248,-1.2382,-1.2175,-1.2135,-1.2175,-1.2126,-1.1877,-1.1578,-1.1318,-1.071,-1.0029,-0.9885,-0.9825,-0.9802,-1.0037,-1.0404,-1.0698,-1.0822,-1.0877,-1.0814,-1.087,-1.0933,-1.0926,-1.0807,-1.0618,-1.0618,-1.0624,-1.0618,-1.0618,-1.0618,-1.0618,-1.0618,-1.0618,-1.0618,-1.0618,-1.0618,-1.0618,-1.0618,-1.0618,-1.0618,-1.0618,-1.0618,-1.0618,-1.0618,-1.0618,-1.0618,-1.0618,-1.0618,-1.0618,-1.0618,-1.0618,-1.0618,-1.0618,-1.0618,-1.0618,-1.0618,-1.0618,-1.0618,-1.0618,-1.0744,-1.0903,-1.1265,-1.1997,-1.2621,-1.2947,-1.3528,-1.3818,-1.3768,-1.392,-1.3992,-1.4042,-1.4186,-1.4474,-1.4966,-1.5895,-1.6899,-1.742,-1.7548,-1.7442,-1.751,-1.752,-1.7657,-1.7716,-1.7784,-1.7794,-1.793,-1.8008,-1.8008,-1.8008,-1.8008,-1.8008,-1.8008,-1.8076,-1.8008,-1.8008,-1.8008,-1.8008,-1.8076,-1.8144,-1.8212,-1.8337,-1.8472,-1.8251,-1.8127,-1.8475,-1.8462,-1.8009,-1.785,-1.7701,-1.7743,-1.753,-1.7459,-1.7372,-1.7188,-1.7199,-1.2234,-1.2017,-1.1669,-1.1578,-1.1578,-1.1477,-1.1377,-1.1175,-1.0922,-1.049,-1.0,-0.9901,-0.9918,-0.9919,-1.004,-1.0281,-1.0534,-1.0618,-1.0624,-1.0624,-1.0618,-1.0681,-1.0681,-1.0624,-1.0618,-1.0618,-1.0618,-1.0618,-1.0618,-1.0618,-1.0618,-1.0618,-1.0618,-1.0618,-1.0618,-1.0618,-1.0618,-1.0618,-1.0618,-1.0618,-1.0618,-1.0618,-1.0618,-1.0618,-1.0618,-1.0618,-1.0618,-1.0618,-1.0618,-1.0618,-1.0618,-1.0618,-1.0618,-1.0618,-1.0618,-1.0618,-1.0618,-1.0618,-1.0624,-1.0688,-1.0826,-1.1043,-1.1636,-1.21,-1.2416,-1.2842,-1.3266,-1.3127,-1.3193,-1.3266,-1.3324,-1.3397,-1.376,-1.4258,-1.4966,-1.5842,-1.6718,-1.683,-1.6881,-1.695,-1.7097,-1.7245,-1.7432,-1.751,-1.7647,-1.7784,-1.7852,-1.793,-1.8008,-1.8008,-1.8008,-1.7998,-1.8008,-1.8008,-1.8008,-1.8008,-1.8008,-1.8008,-1.8008,-1.8008,-1.8007,-1.8065,-1.7858,-1.7764,-1.7815,-1.7684,-1.7173,-1.6809,-1.6748,-1.6722,-1.6451,-1.6384,-1.642,-1.6513,-1.6524,-1.1877,-1.1569,-1.1175,-1.0922,-1.082,-1.081,-1.0808,-1.068,-1.0621,-1.0348,-1.0133,-0.9979,-0.9999,-1.0114,-1.0174,-1.0321,-1.0618,-1.0618,-1.0618,-1.0618,-1.0618,-1.0618,-1.0618,-1.0624,-1.0618,-1.0618,-1.0618,-1.0618,-1.0618,-1.0618,-1.0618,-1.0618,-1.0618,-1.0618,-1.0618,-1.0618,-1.0618,-1.0618,-1.0618,-1.0618,-1.0618,-1.0618,-1.0618,-1.0618,-1.0618,-1.0618,-1.0618,-1.0618,-1.0618,-1.0618,-1.0618,-1.0618,-1.0618,-1.0618,-1.0618,-1.0618,-1.0618,-1.0618,-1.0618,-1.0624,-1.0658,-1.0799,-1.1356,-1.1724,-1.1895,-1.2449,-1.2753,-1.2673,-1.2753,-1.2753,-1.2753,-1.29,-1.3258,-1.3615,-1.3753,-1.433,-1.5259,-1.5895,-1.6237,-1.6464,-1.6464,-1.6682,-1.689,-1.7097,-1.7166,-1.7295,-1.7442,-1.7588,-1.7666,-1.7725,-1.7794,-1.792,-1.792,-1.794,-1.8008,-1.8008,-1.8008,-1.8008,-1.8008,-1.7978,-1.7812,-1.7811,-1.7617,-1.7497,-1.7318,-1.6882,-1.6315,-1.6039,-1.6009,-1.6018,-1.5934,-1.5904,-1.5894,-1.5999,-1.6046,-1.1427,-1.1015,-1.0454,-1.019,-1.0221,-1.0355,-1.0417,-1.0386,-1.0479,-1.0319,-1.0179,-1.0158,-1.0159,-1.014,-1.0347,-1.0571,-1.0618,-1.0618,-1.0618,-1.0618,-1.0618,-1.0618,-1.0618,-1.0618,-1.0618,-1.0618,-1.0618,-1.0618,-1.0618,-1.0618,-1.0618,-1.0618,-1.0618,-1.0618,-1.0618,-1.0618,-1.0618,-1.0618,-1.0618,-1.0618,-1.0618,-1.0618,-1.0618,-1.0618,-1.0618,-1.0618,-1.0618,-1.0618,-1.0618,-1.0618,-1.0618,-1.0618,-1.0618,-1.0618,-1.0618,-1.0618,-1.0618,-1.0618,-1.0624,-1.0588,-1.0661,-1.0889,-1.129,-1.1599,-1.1854,-1.2222,-1.2432,-1.2378,-1.2378,-1.2452,-1.2452,-1.2599,-1.2746,-1.2966,-1.3185,-1.3404,-1.3833,-1.4537,-1.5108,-1.5401,-1.5551,-1.5621,-1.6044,-1.6184,-1.6394,-1.6742,-1.6959,-1.7176,-1.7245,-1.7382,-1.7501,-1.7628,-1.7784,-1.7794,-1.794,-1.794,-1.8008,-1.7949,-1.792,-1.7861,-1.7705,-1.7383,-1.7187,-1.6885,-1.6596,-1.6113,-1.5781,-1.5615,-1.5674,-1.5576,-1.5526,-1.5594,-1.5652,-1.5642,-1.5642,-1.1065,-1.0514,-1.0035,-0.9814,-0.9855,-0.9969,-1.0075,-1.0219,-1.0272,-1.027,-1.0234,-1.0287,-1.0309,-1.0334,-1.0488,-1.0618,-1.0618,-1.0618,-1.0618,-1.0618,-1.0618,-1.0618,-1.0618,-1.0618,-1.0618,-1.0618,-1.0618,-1.0618,-1.0618,-1.0618,-1.0618,-1.0618,-1.0555,-1.0618,-1.0618,-1.0555,-1.0618,-1.0618,-1.0618,-1.0618,-1.0618,-1.0618,-1.0618,-1.0618,-1.0618,-1.0618,-1.0618,-1.0618,-1.0618,-1.0618,-1.0618,-1.0618,-1.0618,-1.0618,-1.0618,-1.0618,-1.0618,-1.0618,-1.0631,-1.0695,-1.0835,-1.0995,-1.1376,-1.165,-1.1891,-1.2138,-1.2285,-1.2305,-1.2305,-1.2305,-1.2298,-1.2378,-1.2452,-1.2452,-1.2673,-1.282,-1.3039,-1.3615,-1.4194,-1.4482,-1.4553,-1.4832,-1.5046,-1.5259,-1.5683,-1.6035,-1.6245,-1.6394,-1.6742,-1.6881,-1.707,-1.7276,-1.7501,-1.7657,-1.7803,-1.794,-1.8008,-1.79,-1.7764,-1.7656,-1.751,-1.71,-1.667,-1.6445,-1.625,-1.5947,-1.5644,-1.5498,-1.542,-1.5478,-1.5478,-1.542,-1.542,-1.5526,-1.5526,-1.0761,-1.0095,-0.9666,-0.9546,-0.9604,-0.9681,-0.9876,-1.0068,-1.0196,-1.0292,-1.0322,-1.0363,-1.0465,-1.0577,-1.0548,-1.0618,-1.0618,-1.0618,-1.0618,-1.0618,-1.0618,-1.0618,-1.0618,-1.0618,-1.0618,-1.0618,-1.0618,-1.0618,-1.0618,-1.0618,-1.0618,-1.0555,-1.0561,-1.0498,-1.0555,-1.0498,-1.0498,-1.0491,-1.0491,-1.0555,-1.0555,-1.0618,-1.0618,-1.0618,-1.0618,-1.0618,-1.0618,-1.0618,-1.0618,-1.0618,-1.0618,-1.0618,-1.0618,-1.0618,-1.0618,-1.0618,-1.0618,-1.0665,-1.0759,-1.0855,-1.1009,-1.1102,-1.1543,-1.187,-1.1997,-1.2151,-1.2271,-1.2305,-1.2305,-1.2305,-1.2305,-1.2305,-1.2305,-1.2305,-1.2305,-1.2378,-1.2599,-1.3046,-1.3404,-1.3622,-1.376,-1.3977,-1.4186,-1.4474,-1.4903,-1.533,-1.5471,-1.5683,-1.5965,-1.6245,-1.6367,-1.6715,-1.7019,-1.751,-1.7716,-1.7794,-1.7862,-1.7881,-1.7695,-1.7432,-1.7246,-1.6777,-1.6387,-1.6208,-1.5994,-1.5752,-1.5557,-1.5469,-1.542,-1.542,-1.542,-1.542,-1.542,-1.542,-1.542,-1.0293,-0.9821,-0.9316,-0.9186,-0.9307,-0.9549,-0.9876,-1.0114,-1.039,-1.049,-1.0524,-1.0551,-1.0551,-1.0618,-1.0618,-1.0618,-1.0618,-1.0618,-1.0618,-1.0618,-1.0618,-1.0618,-1.0618,-1.0618,-1.0618,-1.0618,-1.0618,-1.0618,-1.0618,-1.0618,-1.0618,-1.0561,-1.0434,-1.0364,-1.0308,-1.0244,-1.0244,-1.0308,-1.0371,-1.0428,-1.0498,-1.0561,-1.0561,-1.0561,-1.0618,-1.0618,-1.0618,-1.0618,-1.0618,-1.0618,-1.0618,-1.0618,-1.0618,-1.0618,-1.0618,-1.0618,-1.0624,-1.0705,-1.0848,-1.0962,-1.1269,-1.1597,-1.1837,-1.2004,-1.2164,-1.2258,-1.2298,-1.2305,-1.2305,-1.2305,-1.2305,-1.2305,-1.2305,-1.2305,-1.2305,-1.2305,-1.2378,-1.2526,-1.2753,-1.3039,-1.3112,-1.3112,-1.3477,-1.3688,-1.4049,-1.4338,-1.4474,-1.4689,-1.4966,-1.5251,-1.5463,-1.5965,-1.6464,-1.7088,-1.7569,-1.7647,-1.7774,-1.7803,-1.7637,-1.7197,-1.6914,-1.6445,-1.6133,-1.5936,-1.577,-1.5576,-1.5449,-1.542,-1.542,-1.542,-1.542,-1.542,-1.542,-1.542,-1.542,-1.0087,-0.9569,-0.9159,-0.9072,-0.9259,-0.9559,-0.9846,-1.0134,-1.0428,-1.0618,-1.0618,-1.0618,-1.0618,-1.0618,-1.0618,-1.0618,-1.0618,-1.0618,-1.0618,-1.0618,-1.0618,-1.0618,-1.0618,-1.0618,-1.0618,-1.0618,-1.0618,-1.0618,-1.0618,-1.0618,-1.0555,-1.0561,-1.0434,-1.0308,-1.0244,-1.0117,-1.0053,-1.0117,-1.0174,-1.0174,-1.0308,-1.0371,-1.0498,-1.0561,-1.0618,-1.0618,-1.0618,-1.0618,-1.0618,-1.0618,-1.0618,-1.0618,-1.0618,-1.0618,-1.0618,-1.0618,-1.0624,-1.0752,-1.0969,-1.1116,-1.143,-1.179,-1.1991,-1.2144,-1.2258,-1.2298,-1.2305,-1.2305,-1.2305,-1.2305,-1.2305,-1.2305,-1.2305,-1.2305,-1.2305,-1.2305,-1.2305,-1.2305,-1.2452,-1.2606,-1.2599,-1.2746,-1.2826,-1.3046,-1.3193,-1.3411,-1.355,-1.376,-1.4042,-1.433,-1.4689,-1.5188,-1.5833,-1.6533,-1.7088,-1.7373,-1.7503,-1.7591,-1.7368,-1.6941,-1.6578,-1.6182,-1.5889,-1.5644,-1.5518,-1.542,-1.542,-1.542,-1.542,-1.542,-1.542,-1.542,-1.542,-1.542,-1.542,-0.9932,-0.9361,-0.9061,-0.9025,-0.9259,-0.9559,-0.9846,-1.0134,-1.0434,-1.0618,-1.0618,-1.0618,-1.0618,-1.0618,-1.0618,-1.0618,-1.0618,-1.0618,-1.0618,-1.0618,-1.0618,-1.0618,-1.0618,-1.0618,-1.0618,-1.0618,-1.0618,-1.0618,-1.0618,-1.0561,-1.0498,-1.0428,-1.0308,-1.011,-0.9977,-0.9728,-0.9792,-0.9792,-0.9856,-0.9919,-1.0047,-1.0244,-1.0364,-1.0561,-1.0618,-1.0618,-1.0618,-1.0618,-1.0618,-1.0618,-1.0618,-1.0618,-1.0618,-1.0618,-1.0618,-1.0618,-1.0618,-1.0786,-1.0969,-1.1256,-1.1523,-1.1844,-1.2138,-1.2265,-1.2298,-1.2305,-1.2305,-1.2305,-1.2305,-1.2305,-1.2305,-1.2305,-1.2305,-1.2305,-1.2305,-1.2305,-1.2305,-1.2305,-1.2305,-1.2378,-1.2305,-1.2378,-1.2606,-1.2599,-1.282,-1.282,-1.3039,-1.3112,-1.3324,-1.3622,-1.3977,-1.4545,-1.5188,-1.5903,-1.6473,-1.6899,-1.7045,-1.7206,-1.6882,-1.6488,-1.6201,-1.5897,-1.5673,-1.5469,-1.5488,-1.542,-1.542,-1.542,-1.542,-1.542,-1.542,-1.542,-1.542,-1.542,-1.542,-0.9666,-0.9361,-0.8962,-0.8971,-0.9196,-0.9552,-0.9846,-1.012,-1.0483,-1.0618,-1.0618,-1.0618,-1.0618,-1.0618,-1.0618,-1.0618,-1.0618,-1.0618,-1.0618,-1.0618,-1.0618,-1.0618,-1.0618,-1.0618,-1.0618,-1.0555,-1.0555,-1.0618,-1.0491,-1.0364,-1.0301,-1.0238,-0.9849,-0.9524,-0.9396,-0.9215,-0.9028,-0.9151,-0.9274,-0.9658,-1.0104,-1.0244,-1.0371,-1.0498,-1.0555,-1.0561,-1.0555,-1.0618,-1.0618,-1.0618,-1.0618,-1.0618,-1.0618,-1.0618,-1.0618,-1.0618,-1.0651,-1.0688,-1.0975,-1.1263,-1.1557,-1.185,-1.2138,-1.2271,-1.2305,-1.2305,-1.2305,-1.2305,-1.2305,-1.2305,-1.2305,-1.2305,-1.2305,-1.2305,-1.2305,-1.2305,-1.2305,-1.2305,-1.2305,-1.2305,-1.2305,-1.2305,-1.2378,-1.2378,-1.2372,-1.2372,-1.2452,-1.2599,-1.2746,-1.3039,-1.3404,-1.3977,-1.4474,-1.5196,-1.5694,-1.6131,-1.6455,-1.6661,-1.6309,-1.5987,-1.579,-1.5559,-1.5487,-1.5332,-1.5362,-1.542,-1.542,-1.542,-1.542,-1.542,-1.542,-1.542,-1.542,-1.542,-1.542,-0.9413,-0.9159,-0.891,-0.8878,-0.9051,-0.9486,-0.9753,-0.9947,-1.0416,-1.0618,-1.0618,-1.0618,-1.0618,-1.0618,-1.0618,-1.0618,-1.0618,-1.0618,-1.0618,-1.0618,-1.0618,-1.0618,-1.0618,-1.0618,-1.0618,-1.0561,-1.0498,-1.0301,-1.0231,-1.0168,-1.0047,-0.9786,-0.9466,-0.9069,-0.8818,-0.8565,-0.8495,-0.8624,-0.8888,-0.9268,-0.9716,-0.9849,-1.004,-1.0428,-1.0428,-1.0498,-1.0561,-1.0618,-1.0618,-1.0618,-1.0618,-1.0618,-1.0618,-1.0618,-1.0618,-1.0618,-1.0618,-1.0701,-1.0975,-1.1269,-1.1557,-1.185,-1.2118,-1.2298,-1.2305,-1.2305,-1.2305,-1.2305,-1.2305,-1.2305,-1.2305,-1.2305,-1.2305,-1.2305,-1.2305,-1.2305,-1.2305,-1.2305,-1.2305,-1.2305,-1.2305,-1.2305,-1.2305,-1.2305,-1.2305,-1.2305,-1.2378,-1.2452,-1.2526,-1.2673,-1.3039,-1.3477,-1.3977,-1.441,-1.4877,-1.5233,-1.5515,-1.5668,-1.5615,-1.5294,-1.5359,-1.527,-1.5193,-1.5245,-1.5362,-1.5362,-1.542,-1.542,-1.542,-1.542,-1.542,-1.542,-1.542,-1.542,-1.542,-0.9159,-0.8962,-0.8884,-0.8918,-0.8971,-0.9539,-0.98,-0.986,-1.0334,-1.0618,-1.0618,-1.0618,-1.0618,-1.0618,-1.0618,-1.0618,-1.0618,-1.0618,-1.0618,-1.0618,-1.0618,-1.0618,-1.0561,-1.0561,-1.0498,-1.0498,-1.0244,-1.0047,-0.9786,-0.9652,-0.9466,-0.9268,-0.8818,-0.849,-0.8166,-0.7977,-0.7847,-0.8112,-0.8511,-0.8958,-0.9332,-0.9524,-0.9786,-1.004,-1.0238,-1.0371,-1.0498,-1.0561,-1.0618,-1.0618,-1.0618,-1.0618,-1.0618,-1.0618,-1.0628,-1.0668,-1.0779,-1.0842,-1.1089,-1.1343,-1.157,-1.1844,-1.2111,-1.2305,-1.2305,-1.2305,-1.2305,-1.2305,-1.2305,-1.2305,-1.2305,-1.2305,-1.2305,-1.2305,-1.2305,-1.2305,-1.2305,-1.2305,-1.2305,-1.2305,-1.2305,-1.2305,-1.2305,-1.2305,-1.2305,-1.2305,-1.2305,-1.2305,-1.2378,-1.2452,-1.2673,-1.3112,-1.339,-1.37,-1.3962,-1.4329,-1.4566,-1.4672,-1.4641,-1.4684,-1.4741,-1.4907,-1.5018,-1.5128,-1.5303,-1.5362,-1.542,-1.542,-1.542,-1.542,-1.542,-1.542,-1.542,-1.542,-1.542,-0.8956,-0.8831,-0.9098,-0.9198,-0.9183,-0.9781,-1.008,-1.0074,-1.0414,-1.0618,-1.0618,-1.0618,-1.0618,-1.0618,-1.0618,-1.0618,-1.0618,-1.0618,-1.0618,-1.0618,-1.0618,-1.0561,-1.0498,-1.0434,-1.0301,-1.0238,-0.9919,-0.96,-0.9274,-0.8748,-0.8759,-0.8705,-0.8107,-0.7652,-0.7391,-0.7199,-0.7335,-0.7661,-0.8122,-0.8576,-0.8952,-0.9268,-0.9524,-0.9792,-1.0117,-1.0308,-1.0371,-1.0491,-1.0618,-1.0624,-1.0608,-1.0685,-1.0705,-1.0681,-1.0795,-1.0915,-1.0962,-1.1116,-1.1349,-1.1463,-1.159,-1.1857,-1.2118,-1.2305,-1.2305,-1.2305,-1.2305,-1.2305,-1.2305,-1.2305,-1.2305,-1.2305,-1.2305,-1.2305,-1.2305,-1.2305,-1.2305,-1.2305,-1.2305,-1.2305,-1.2305,-1.2305,-1.2305,-1.2305,-1.2305,-1.2305,-1.2305,-1.2305,-1.2305,-1.2378,-1.2452,-1.2666,-1.2792,-1.3042,-1.3089,-1.3316,-1.3473,-1.3613,-1.362,-1.3853,-1.4082,-1.4327,-1.4725,-1.5079,-1.5254,-1.5362,-1.542,-1.542,-1.542,-1.542,-1.542,-1.542,-1.542,-1.542,-1.542,-0.891,-0.8851,-0.9312,-0.9412,-0.923,-0.9866,-1.012,-1.0167,-1.0428,-1.0618,-1.0618,-1.0618,-1.0618,-1.0618,-1.0618,-1.0618,-1.0618,-1.0618,-1.0618,-1.0618,-1.0561,-1.0561,-1.0434,-1.0174,-0.9977,-0.9646,-0.9338,-0.8748,-0.814,-0.7902,-0.7587,-0.7456,-0.726,-0.7003,-0.6675,-0.6613,-0.6876,-0.7138,-0.7531,-0.7922,-0.8312,-0.8624,-0.8947,-0.9466,-0.9798,-1.011,-1.0301,-1.0498,-1.0561,-1.0615,-1.0748,-1.0802,-1.0855,-1.0962,-1.1102,-1.1229,-1.1256,-1.141,-1.163,-1.1717,-1.1837,-1.2071,-1.2245,-1.2305,-1.2305,-1.2305,-1.2305,-1.2305,-1.2305,-1.2305,-1.2305,-1.2305,-1.2305,-1.2305,-1.2305,-1.2305,-1.2305,-1.2305,-1.2305,-1.2305,-1.2305,-1.2305,-1.2305,-1.2305,-1.2305,-1.2305,-1.2305,-1.2305,-1.2298,-1.2258,-1.2311,-1.2303,-1.2408,-1.2435,-1.2487,-1.2423,-1.241,-1.2558,-1.2696,-1.3099,-1.3484,-1.4088,-1.4488,-1.4902,-1.5196,-1.5245,-1.5352,-1.541,-1.542,-1.541,-1.541,-1.542,-1.542,-1.542,-1.542,-0.891,-0.8864,-0.9339,-0.9486,-0.9452,-1.0,-1.0247,-1.0287,-1.053,-1.0618,-1.0618,-1.0618,-1.0618,-1.0618,-1.0618,-1.0618,-1.0618,-1.0618,-1.0618,-1.0618,-1.0555,-1.0498,-1.0238,-0.9977,-0.9582,-0.9128,-0.8613,-0.8091,-0.7502,-0.7125,-0.6868,-0.6675,-0.6478,-0.628,-0.6214,-0.628,-0.6482,-0.6811,-0.7073,-0.74,-0.7852,-0.8172,-0.856,-0.9239,-0.975,-1.0141,-1.0445,-1.0692,-1.0889,-1.0935,-1.1015,-1.1109,-1.1189,-1.1296,-1.1456,-1.153,-1.159,-1.1697,-1.1904,-1.2024,-1.2091,-1.2245,-1.2285,-1.2305,-1.2305,-1.2305,-1.2305,-1.2305,-1.2305,-1.2305,-1.2305,-1.2305,-1.2305,-1.2305,-1.2305,-1.2305,-1.2305,-1.2305,-1.2305,-1.2305,-1.2305,-1.2305,-1.2305,-1.2305,-1.2305,-1.2305,-1.2305,-1.2298,-1.2278,-1.2211,-1.2104,-1.2076,-1.2033,-1.1961,-1.1867,-1.1803,-1.1744,-1.1897,-1.2085,-1.2585,-1.3033,-1.364,-1.4189,-1.4547,-1.4834,-1.5118,-1.5177,-1.5186,-1.5303,-1.541,-1.541,-1.542,-1.542,-1.542,-1.542,-0.8811,-0.8838,-0.9084,-0.9412,-0.9693,-1.0349,-1.0584,-1.0501,-1.0604,-1.0618,-1.0618,-1.0618,-1.0618,-1.0618,-1.0618,-1.0618,-1.0618,-1.0618,-1.0618,-1.0618,-1.0555,-1.0498,-1.0168,-0.9779,-0.9262,-0.8818,-0.8166,-0.7521,-0.7129,-0.6675,-0.628,-0.6017,-0.5885,-0.5749,-0.5679,-0.6013,-0.6346,-0.6675,-0.7007,-0.7265,-0.7587,-0.8107,-0.8501,-0.9125,-0.9831,-1.0312,-1.0618,-1.1015,-1.1216,-1.1263,-1.1349,-1.1416,-1.1443,-1.1421,-1.1574,-1.1837,-1.1857,-1.1997,-1.2238,-1.2271,-1.2285,-1.2291,-1.2305,-1.2305,-1.2305,-1.2305,-1.2305,-1.2305,-1.2305,-1.2305,-1.2305,-1.2305,-1.2305,-1.2305,-1.2305,-1.2305,-1.2305,-1.2305,-1.2305,-1.2305,-1.2305,-1.2305,-1.2305,-1.2305,-1.2305,-1.2305,-1.2305,-1.2285,-1.2231,-1.2131,-1.1991,-1.1784,-1.1706,-1.1532,-1.1438,-1.1182,-1.1156,-1.1256,-1.1512,-1.2058,-1.2658,-1.3268,-1.3752,-1.4121,-1.4419,-1.4715,-1.4834,-1.497,-1.5137,-1.5303,-1.5362,-1.542,-1.542,-1.542,-1.542,-0.8804,-0.8831,-0.9064,-0.9412,-0.9719,-1.0094,-1.0374,-1.0541,-1.0618,-1.0618,-1.0618,-1.0618,-1.0618,-1.0618,-1.0618,-1.0618,-1.0618,-1.0618,-1.0618,-1.0618,-1.0618,-1.0308,-0.9983,-0.9524,-0.8947,-0.8166,-0.7451,-0.6933,-0.6478,-0.6148,-0.5885,-0.5686,-0.5554,-0.5554,-0.5617,-0.5815,-0.5947,-0.6346,-0.6613,-0.6876,-0.733,-0.7932,-0.8516,-0.919,-0.9989,-1.0594,-1.0944,-1.1299,-1.1496,-1.153,-1.161,-1.1717,-1.1686,-1.1746,-1.1795,-1.1913,-1.1853,-1.1892,-1.2063,-1.2218,-1.2305,-1.2305,-1.2305,-1.2305,-1.2305,-1.2305,-1.2305,-1.2305,-1.2305,-1.2305,-1.2305,-1.2305,-1.2305,-1.2305,-1.2305,-1.2305,-1.2305,-1.2305,-1.2305,-1.2305,-1.2305,-1.2305,-1.2305,-1.2291,-1.2285,-1.2238,-1.2225,-1.2124,-1.2051,-1.1964,-1.1837,-1.1557,-1.1356,-1.1176,-1.1009,-1.0882,-1.0853,-1.1016,-1.1254,-1.1677,-1.2228,-1.2842,-1.3199,-1.3571,-1.3941,-1.4249,-1.4428,-1.4666,-1.5029,-1.5205,-1.5245,-1.5362,-1.542,-1.542,-1.542,-0.8804,-0.8831,-0.9005,-0.9325,-0.9693,-0.9993,-1.0287,-1.0584,-1.0618,-1.0618,-1.0618,-1.0618,-1.0618,-1.0618,-1.0618,-1.0618,-1.0618,-1.0618,-1.0618,-1.0618,-1.0618,-1.0308,-0.9856,-0.9338,-0.8624,-0.7712,-0.6999,-0.6482,-0.6013,-0.5686,-0.5554,-0.5557,-0.5495,-0.5488,-0.5554,-0.5617,-0.5815,-0.6148,-0.6416,-0.6788,-0.7418,-0.8134,-0.8809,-0.9609,-1.0318,-1.093,-1.1286,-1.1517,-1.1724,-1.1777,-1.1877,-1.2011,-1.2012,-1.2018,-1.2003,-1.1929,-1.1929,-1.1848,-1.2003,-1.2224,-1.2305,-1.2305,-1.2305,-1.2305,-1.2305,-1.2305,-1.2305,-1.2305,-1.2305,-1.2305,-1.2305,-1.2305,-1.2305,-1.2305,-1.2305,-1.2305,-1.2305,-1.2305,-1.2305,-1.2305,-1.2305,-1.2305,-1.2298,-1.2278,-1.2258,-1.2198,-1.2138,-1.1997,-1.1837,-1.171,-1.1583,-1.1323,-1.1082,-1.0915,-1.0795,-1.0708,-1.0755,-1.0814,-1.1052,-1.1365,-1.174,-1.2297,-1.2658,-1.2956,-1.3208,-1.3519,-1.401,-1.4309,-1.4606,-1.4843,-1.4951,-1.5118,-1.5362,-1.5352,-1.5352,-0.8804,-0.8804,-0.8804,-0.9158,-0.9673,-1.002,-1.0321,-1.0555,-1.0555,-1.0555,-1.0618,-1.0561,-1.0618,-1.0618,-1.0618,-1.0618,-1.0618,-1.0618,-1.0618,-1.0618,-1.0618,-1.0244,-0.9798,-0.928,-0.8495,-0.7591,-0.6876,-0.6346,-0.5686,-0.5536,-0.547,-0.5466,-0.5504,-0.5514,-0.5511,-0.5645,-0.59,-0.6226,-0.6552,-0.7096,-0.787,-0.8586,-0.9332,-1.0152,-1.0911,-1.1327,-1.169,-1.1965,-1.2164,-1.2225,-1.2265,-1.2285,-1.2218,-1.2077,-1.2003,-1.1929,-1.1929,-1.1929,-1.2003,-1.215,-1.2305,-1.2305,-1.2305,-1.2305,-1.2305,-1.2305,-1.2305,-1.2305,-1.2305,-1.2305,-1.2305,-1.2305,-1.2305,-1.2305,-1.2305,-1.2305,-1.2305,-1.2305,-1.2305,-1.2305,-1.2305,-1.2305,-1.2285,-1.2265,-1.2131,-1.1991,-1.1877,-1.1697,-1.153,-1.1329,-1.1196,-1.1035,-1.0822,-1.0655,-1.0568,-1.0588,-1.0645,-1.0744,-1.087,-1.1185,-1.1498,-1.1685,-1.1981,-1.2228,-1.2359,-1.2736,-1.3277,-1.37,-1.4121,-1.4291,-1.4469,-1.4824,-1.5059,-1.5177,-1.5177,-0.8804,-0.8804,-0.8804,-0.9145,-0.9713,-1.0091,-1.0229,-1.0174,-1.0308,-1.0364,-1.0371,-1.0561,-1.0618,-1.0618,-1.0618,-1.0618,-1.0618,-1.0618,-1.0618,-1.0618,-1.0555,-1.0244,-0.9798,-0.9344,-0.8495,-0.7717,-0.6937,-0.635,-0.5782,-0.5575,-0.5515,-0.5532,-0.5593,-0.5633,-0.572,-0.5881,-0.6157,-0.6507,-0.6823,-0.7537,-0.8354,-0.9029,-0.9886,-1.0716,-1.119,-1.1611,-1.1999,-1.2151,-1.2305,-1.2305,-1.2305,-1.2305,-1.2305,-1.2003,-1.1706,-1.1409,-1.1558,-1.1774,-1.1855,-1.2083,-1.2305,-1.2305,-1.2305,-1.2305,-1.2305,-1.2305,-1.2305,-1.2305,-1.2305,-1.2305,-1.2305,-1.2305,-1.2305,-1.2305,-1.2305,-1.2305,-1.2305,-1.2305,-1.2305,-1.2305,-1.2305,-1.2305,-1.2285,-1.2104,-1.1957,-1.179,-1.161,-1.1416,-1.1243,-1.1049,-1.0922,-1.0775,-1.0695,-1.0638,-1.0618,-1.0568,-1.0631,-1.0688,-1.0807,-1.0933,-1.1059,-1.124,-1.1428,-1.1615,-1.1872,-1.2182,-1.2552,-1.3033,-1.339,-1.3752,-1.3932,-1.435,-1.4706,-1.4824,-1.5001,-0.8804,-0.8804,-0.8804,-0.909,-0.9531,-0.9881,-0.9939,-0.9907,-1.018,-1.0308,-1.0301,-1.0498,-1.0618,-1.0618,-1.0618,-1.0618,-1.0618,-1.0618,-1.0618,-1.0618,-1.0618,-1.0244,-0.9862,-0.9472,-0.8683,-0.7842,-0.7134,-0.6544,-0.5929,-0.5644,-0.5596,-0.5677,-0.5776,-0.5864,-0.6004,-0.62,-0.6643,-0.7016,-0.7425,-0.8042,-0.8765,-0.9499,-1.036,-1.1099,-1.1439,-1.1853,-1.2191,-1.2305,-1.2305,-1.2305,-1.2305,-1.2305,-1.2231,-1.1929,-1.1558,-1.1335,-1.1484,-1.1632,-1.1781,-1.2077,-1.2231,-1.2305,-1.2305,-1.2305,-1.2305,-1.2305,-1.2305,-1.2305,-1.2305,-1.2305,-1.2305,-1.2305,-1.2305,-1.2305,-1.2305,-1.2305,-1.2305,-1.2305,-1.2305,-1.2305,-1.2305,-1.2305,-1.2198,-1.1991,-1.1777,-1.1597,-1.1356,-1.1089,-1.0955,-1.0822,-1.0799,-1.0712,-1.0678,-1.0618,-1.0618,-1.0618,-1.0624,-1.0624,-1.0688,-1.0744,-1.0744,-1.087,-1.0989,-1.1247,-1.1435,-1.1747,-1.2058,-1.2297,-1.2658,-1.2956,-1.3147,-1.3321,-1.3743,-1.424,-1.4478,-0.8804,-0.8811,-0.8838,-0.902,-0.9227,-0.9538,-0.9625,-0.9594,-1.011,-1.0308,-1.0308,-1.0498,-1.0618,-1.0618,-1.0618,-1.0618,-1.0618,-1.0618,-1.0618,-1.0618,-1.0618,-1.0308,-0.9989,-0.9594,-0.8947,-0.8107,-0.7391,-0.6937,-0.6074,-0.5744,-0.5701,-0.58,-0.594,-0.6047,-0.6357,-0.6638,-0.711,-0.7677,-0.7979,-0.8409,-0.9311,-0.9986,-1.0718,-1.1489,-1.1829,-1.2077,-1.2231,-1.2305,-1.2305,-1.2305,-1.2305,-1.2305,-1.2077,-1.1929,-1.1484,-1.1409,-1.1484,-1.1632,-1.1781,-1.2077,-1.2231,-1.2305,-1.2305,-1.2305,-1.2305,-1.2305,-1.2305,-1.2305,-1.2305,-1.2305,-1.2305,-1.2305,-1.2305,-1.2305,-1.2305,-1.2305,-1.2305,-1.2305,-1.2305,-1.2305,-1.2305,-1.2298,-1.2218,-1.2011,-1.167,-1.1443,-1.1129,-1.0828,-1.0735,-1.0698,-1.0665,-1.0631,-1.0624,-1.0618,-1.0618,-1.0618,-1.0618,-1.0624,-1.0624,-1.0624,-1.0681,-1.0681,-1.0681,-1.087,-1.1122,-1.1247,-1.149,-1.1794,-1.1981,-1.2104,-1.2228,-1.2236,-1.2666,-1.3329,-1.3881,-0.8804,-0.8831,-0.8991,-0.9177,-0.9408,-0.97,-0.9848,-0.9919,-1.018,-1.0231,-1.0174,-1.0421,-1.0618,-1.0618,-1.0618,-1.0618,-1.0618,-1.0618,-1.0618,-1.0618,-1.0618,-1.0434,-1.018,-0.9919,-0.9338,-0.8694,-0.8042,-0.7274,-0.6368,-0.5946,-0.584,-0.6053,-0.6264,-0.655,-0.6855,-0.7226,-0.7635,-0.8355,-0.8772,-0.9168,-0.9914,-1.041,-1.1001,-1.1558,-1.1781,-1.2009,-1.2157,-1.2305,-1.2305,-1.2305,-1.2305,-1.2157,-1.1848,-1.1781,-1.1484,-1.126,-1.1484,-1.1632,-1.1781,-1.2077,-1.2231,-1.2305,-1.2305,-1.2305,-1.2305,-1.2305,-1.2305,-1.2305,-1.2305,-1.2305,-1.2305,-1.2305,-1.2305,-1.2305,-1.2305,-1.2305,-1.2305,-1.2305,-1.2305,-1.2305,-1.2305,-1.2265,-1.2198,-1.1944,-1.1603,-1.1249,-1.0882,-1.0635,-1.0635,-1.0645,-1.0651,-1.0624,-1.0624,-1.0618,-1.0618,-1.0618,-1.0618,-1.0618,-1.0624,-1.0618,-1.0618,-1.0618,-1.0618,-1.0681,-1.0807,-1.0933,-1.1115,-1.1303,-1.1428,-1.149,-1.1553,-1.1615,-1.174,-1.229,-1.2895,-0.8804,-0.8824,-0.8978,-0.9108,-0.9284,-0.9571,-0.973,-0.9837,-1.0056,-1.0056,-1.0026,-1.0362,-1.0618,-1.0618,-1.0618,-1.0618,-1.0618,-1.0618,-1.0618,-1.0618,-1.0555,-1.0498,-1.0301,-1.0174,-0.9658,-0.9017,-0.8182,-0.7306,-0.6609,-0.629,-0.6259,-0.6357,-0.6666,-0.7099,-0.7484,-0.7791,-0.8246,-0.8927,-0.9468,-0.9992,-1.0513,-1.0887,-1.126,-1.1632,-1.1855,-1.2009,-1.2157,-1.2305,-1.2305,-1.2305,-1.2305,-1.2083,-1.1855,-1.1706,-1.1484,-1.1335,-1.1409,-1.1706,-1.1781,-1.2003,-1.2305,-1.2305,-1.2305,-1.2305,-1.2305,-1.2305,-1.2305,-1.2305,-1.2305,-1.2305,-1.2305,-1.2305,-1.2305,-1.2305,-1.2305,-1.2305,-1.2305,-1.2305,-1.2305,-1.2305,-1.2305,-1.2298,-1.2151,-1.181,-1.1503,-1.1329,-1.0915,-1.0588,-1.0624,-1.0618,-1.0618,-1.0618,-1.0618,-1.0618,-1.0618,-1.0618,-1.0618,-1.0618,-1.0618,-1.0618,-1.0618,-1.0618,-1.0618,-1.0618,-1.0681,-1.0681,-1.087,-1.0989,-1.0933,-1.0996,-1.1059,-1.1122,-1.124,-1.1365,-1.1856,-0.8804,-0.8804,-0.8811,-0.8877,-0.9036,-0.9284,-0.9499,-0.9618,-0.9825,-0.9918,-0.9991,-1.0332,-1.0488,-1.0501,-1.0618,-1.0618,-1.0618,-1.0618,-1.0618,-1.0618,-1.0618,-1.0498,-1.0434,-1.0308,-0.9849,-0.9139,-0.8242,-0.7621,-0.6992,-0.6756,-0.66,-0.6763,-0.7124,-0.748,-0.794,-0.8322,-0.8856,-0.9463,-0.9997,-1.0519,-1.0887,-1.1186,-1.1484,-1.1781,-1.2003,-1.2077,-1.2231,-1.2305,-1.2305,-1.2305,-1.2305,-1.2003,-1.1855,-1.1706,-1.1403,-1.1329,-1.1477,-1.1626,-1.1781,-1.2077,-1.2231,-1.2305,-1.2305,-1.2305,-1.2305,-1.2305,-1.2305,-1.2305,-1.2305,-1.2305,-1.2305,-1.2305,-1.2305,-1.2305,-1.2305,-1.2305,-1.2305,-1.2305,-1.2305,-1.2305,-1.2305,-1.2305,-1.2031,-1.169,-1.1456,-1.1289,-1.1042,-1.0762,-1.0618,-1.0618,-1.0618,-1.0618,-1.0618,-1.0618,-1.0618,-1.0618,-1.0618,-1.0618,-1.0618,-1.0618,-1.0618,-1.0618,-1.0618,-1.0618,-1.0618,-1.0618,-1.0618,-1.0681,-1.0681,-1.0681,-1.0744,-1.087,-1.087,-1.0989,-1.1052,-0.8804,-0.8804,-0.8804,-0.8918,-0.917,-0.9194,-0.9372,-0.9681,-0.9714,-0.9827,-1.0013,-1.008,-1.02,-1.0214,-1.0468,-1.0618,-1.0618,-1.0618,-1.0618,-1.0618,-1.0618,-1.0561,-1.0498,-1.0434,-1.004,-0.9332,-0.8495,-0.7816,-0.7507,-0.715,-0.6964,-0.7173,-0.7509,-0.8003,-0.8699,-0.9084,-0.9463,-1.0067,-1.0368,-1.0812,-1.1186,-1.1409,-1.1632,-1.1855,-1.2003,-1.215,-1.2224,-1.2305,-1.2305,-1.2305,-1.2305,-1.2077,-1.1855,-1.1706,-1.1484,-1.1403,-1.1552,-1.1706,-1.1855,-1.2077,-1.2224,-1.2305,-1.2305,-1.2305,-1.2305,-1.2305,-1.2305,-1.2305,-1.2305,-1.2305,-1.2305,-1.2305,-1.2305,-1.2305,-1.2305,-1.2305,-1.2305,-1.2305,-1.2305,-1.2305,-1.2305,-1.2184,-1.1951,-1.1637,-1.1349,-1.1142,-1.0855,-1.0672,-1.0624,-1.0618,-1.0555,-1.0555,-1.0555,-1.0618,-1.0618,-1.0618,-1.0618,-1.0618,-1.0618,-1.0618,-1.0618,-1.0618,-1.0618,-1.0618,-1.0618,-1.0618,-1.0618,-1.0618,-1.0618,-1.0618,-1.0618,-1.0618,-1.0618,-1.0681,-1.0807]},{"header":{"parameterUnit":"m.s-1","parameterCategory":1,"la1":31.0,"la2":29.5877,"lo1":-88.7671,"lo2":-86.6584,"dy":0.0162,"dx":0.0185,"nx":115,"ny":88,"refTime":"2024-07-04T18:00:00:Z","depth":0,"parameterNumber":3,"parameterNumberName":"V-component_of_WINDS"},"data":[0.0,0.0,0.0,0.0,0.0,0.0,0.0,0.0,0.0,0.0,0.0,0.0,0.0,0.0,0.0,0.0,0.0,0.0,0.0,0.0,0.0,0.0,0.0,0.0,0.0,0.0,0.0,0.0,0.0,0.0,0.0,0.0,0.0,0.0,0.0,0.0,0.0,0.0,0.0,0.0,0.0,0.0,0.0,0.0,0.0,0.0,0.0,0.0,0.0,0.0,0.0,0.0,0.0,0.0,0.0,0.0,0.0,0.0,0.0,0.0,0.0,0.0,0.0,0.0,0.0,0.0,0.0,0.0,0.0,0.0,0.0,0.0,0.0,0.0,0.0,0.0,0.0,0.0,0.0,0.0,0.0,0.0,0.0,0.0,0.0,0.0,0.0,0.0,0.0,0.0,0.0,0.0,0.0,0.0,0.0,0.0,0.0,0.0,0.0,0.0,0.0,0.0,0.0,0.0,0.0,0.0,0.0,0.0,0.0,0.0,0.0,0.0,0.0,0.0,0.0,0.0,0.0,0.0,0.0,0.0,0.0,0.0,0.0,0.0,0.0,0.0,0.0,0.0,0.0,0.0,0.0,0.0,0.0,0.0,0.0,0.0,0.0,0.0,0.0,0.0,0.0,0.0,0.0,0.0,0.0,0.0,0.0,0.0,0.0,0.0,0.0,0.0,0.0,0.0,0.0,0.0,0.0,0.0,0.0,0.0,0.0,0.0,0.0,0.0,0.0,0.0,0.0,0.0,0.0,0.0,0.0,0.0,0.0,0.0,0.0,0.0,0.0,0.0,0.0,0.0,0.0,0.0,0.0,0.0,0.0,0.0,0.0,0.0,0.0,0.0,0.0,0.0,0.0,0.0,0.0,0.0,0.0,0.0,0.0,0.0,0.0,0.0,0.0,0.0,0.0,0.0,0.0,0.0,0.0,0.0,0.0,0.0,0.0,0.0,0.0,0.0,0.0,0.0,0.0,0.0,0.0,0.0,0.0,0.0,0.0,0.0,0.0,0.0,0.0,0.0,0.0,0.0,0.0,0.0,0.0,0.0,0.0,0.0,0.0,0.0,0.0,0.0,0.0,0.0,0.0,0.0,0.0,0.0,0.0,0.0,0.0,0.0,0.0,0.0,0.0,0.0,0.0,0.0,0.0,0.0,0.0,0.0,0.0,0.0,0.0,0.0,0.0,0.0,0.0,0.0,0.0,0.0,0.0,0.0,0.0,0.0,0.0,0.0,0.0,0.0,0.0,0.0,0.0,0.0,0.0,0.0,0.0,0.0,0.0,0.0,0.0,0.0,0.0,0.0,0.0,0.0,0.0,0.0,0.0,0.0,0.0,0.0,0.0,0.0,0.0,0.0,0.0,0.0,0.0,0.0,0.0,0.0,0.0,0.0,0.0,0.0,0.0,0.0,0.0,0.0,0.0,0.0,0.0,0.0,0.0,0.0,0.0,0.0,0.0,0.0,0.0,0.0,0.0,0.0,0.0,0.0,0.0,0.0,0.0,0.0,0.0,0.0,0.0,0.0,0.0,0.0,0.0,0.0,0.0,0.0,0.0,0.0,0.0,0.0,0.0,0.0,0.0,0.0,0.0,0.0,0.0,0.0,0.0,0.0,0.0,0.0,0.0,0.0,0.0,0.0,0.0,0.0,0.0,0.0,0.0,0.0,0.0,0.0,0.0,0.0,0.0,0.0,0.0,0.0,0.0,0.0,0.0,0.0,0.0,0.0,0.0,0.0,0.0,0.0,0.0,0.0,0.0,0.0,0.0,0.0,0.0,0.0,0.0,0.0,0.0,0.0,0.0,0.0,0.0,0.0,0.0,0.0,0.0,0.0,0.0,0.0,0.0,0.0,0.0,0.0,0.0,0.0,0.0,0.0,0.0,0.0,0.0,0.0,0.0,0.0,0.0,0.0,0.0,0.0,0.0,0.0,0.0,0.0,0.0,0.0,0.0,0.0,0.0,0.0,0.0,0.0,0.0,0.0,0.0,0.0,0.0,0.0,0.0,0.0,0.0,0.0,0.0,0.0,0.0,0.0,0.0,0.0,0.0,0.0,0.0,0.0,0.0,0.0,0.0,0.0,0.0,0.0,0.0,0.0,0.0,0.0,0.0,0.0,0.0,0.0,0.0,0.0,0.0,0.0,0.0,0.0,0.0,0.0,0.0,0.0,0.0,0.0,0.0,0.0,0.0,0.0,0.0,0.0,0.0,0.0,0.0,0.0,0.0,0.0,0.0,0.0,0.0,0.0,0.0,0.0,0.0,0.0,0.0,0.0,0.0,0.0,0.0,0.0,0.0,0.0,0.0,0.0,0.0,0.0,0.0,0.0,0.0,0.0,0.0,0.0,0.0,0.0,0.0,0.0,0.0,0.0,0.0,0.0,0.0,0.0,0.0,0.0,0.0,0.0,0.0,0.0,0.0,0.0,0.0,0.0,0.0,0.0,0.0,0.0,0.0,0.0,0.0,0.0,0.0,0.0,0.0,0.0,0.0,0.0,0.0,0.0,0.0,0.0,0.0,0.0,0.0,0.0,0.0,0.0,0.0,0.0,0.0,0.0,0.0,0.0,0.0,0.0,0.0,0.0,0.0,0.0,0.0,0.0,0.0,0.0,0.0,0.0,0.0,0.0,0.0,0.0,0.0,0.0,0.0,0.0,0.0,0.0,0.0,0.0,0.0,0.0,0.0,0.0,0.0,0.0,0.0,0.0,0.0,0.0,0.0,0.0,0.0,0.0,0.0,0.0,0.0,0.0,0.0,0.0,0.0,0.0,0.0,0.0,0.0,0.0,0.0,0.0,0.0,0.0,0.0,0.0,0.0,0.0,0.0,0.0,0.0,0.0,0.0,0.0,0.0,0.0,0.0,0.0,0.0,0.0,0.0,0.0,0.0,0.0,0.0,0.0,0.0,0.0,0.0,0.0,0.0,0.0,0.0,0.0,0.0,0.0,0.0,0.0,0.0,0.0,0.0,0.0,0.0,0.0,0.0,0.0,0.0,0.0,0.0,0.0,0.0,0.0,0.0,0.0,0.0,0.0,0.0,0.0,0.0,0.0,0.0,0.0,0.0,0.0,0.0,0.0,0.0,0.0,0.0,0.0,0.0,0.0,0.0,0.0,0.0,0.0,0.0,0.0,0.0,0.0,0.0,0.0,0.0,0.0,0.0,0.0,0.0,0.0,0.0,0.0,0.0,0.0,0.0,0.0,0.0,0.0,0.0,0.0,0.0,0.0,0.0,0.0,0.0,0.0,0.0,0.0,0.0,0.0,0.0,0.0,0.0,0.0,0.0,0.0,0.0,0.0,0.0,0.0,0.0,0.0,0.0,0.0,0.0,0.0,0.0,0.0,0.0,0.0,0.0,0.0,0.0,0.0,0.0,0.0,0.0,0.0,0.0,0.0,0.0,0.0,0.0,0.0,0.0,0.0,0.0,0.0,0.0,0.0,0.0,0.0,0.0,0.0,0.0,0.0,0.0,0.0,0.0,0.0,0.0,0.0,0.0,0.0,0.0,0.0,0.0,0.0,0.0,0.0,0.0,0.0,0.0,0.0,0.0,0.0,0.0,0.0,0.0,0.0,0.0,0.0,0.0,0.0,0.0,0.0,0.0,0.0,0.0,0.0,0.0,0.0,0.0,0.0,0.0,0.0,0.0,0.0,0.0,0.0,0.0,0.0,0.0,0.0,0.0,0.0,0.0,0.0,0.0,0.0,0.0,0.0,0.0,0.0,0.0,0.0,0.0,0.0,0.0,0.0,0.0,0.0,0.0,0.0,0.0,0.0,0.0,0.0,0.0,0.0,0.0,0.0,0.0,0.0,0.0,0.0,0.0,0.0,0.0,0.0,0.0,0.0,0.0,0.0,0.0,0.0,0.0,0.0,0.0,0.0,0.0,0.0,0.0,0.0,0.0,0.0,0.0,0.0,0.0,0.0,0.0,0.0,0.0,0.0,0.0,0.0,0.0,0.0,0.0,0.0,0.0,0.0,0.0,0.0,0.0,0.0,0.0,0.0,0.0,0.0,0.0,0.0,0.0,0.0,0.0,0.0,0.0,0.0,0.0,0.0,0.0,0.0,0.0,0.0,0.0,0.0,0.0,0.0,0.0,0.0,0.0,0.0,0.0,0.0,0.0,0.0,0.0,0.0,0.0,0.0,0.0,0.0,0.0,0.0,0.0,0.0,0.0,0.0,0.0,0.0,0.0,0.0,0.0,0.0,0.0,0.0,0.0,0.0,0.0,0.0,0.0,0.0,0.0,0.0,0.0,0.0,0.0,0.0,-0.589,0.0,0.0,0.0,0.0,0.0,0.0,0.0,0.0,0.0,0.0,0.0,0.0,0.0,0.0,0.0,0.0,0.0,0.0,0.0,0.0,0.0,0.0,0.0,0.0,0.0,0.0,0.0,0.0,0.0,0.0,0.0,0.0,0.0,0.0,0.0,0.0,0.0,0.0,0.0,0.0,0.0,0.0,0.0,0.0,0.0,0.0,0.0,0.0,0.0,0.0,0.0,0.0,0.0,0.0,0.0,0.0,0.0,0.0,0.0,0.0,0.0,0.0,0.0,0.0,0.0,0.0,0.0,0.0,0.0,0.0,0.0,0.0,0.0,0.0,0.0,0.0,0.0,0.0,0.0,0.0,0.0,0.0,0.0,0.0,0.0,0.0,0.0,0.0,0.0,0.0,0.0,0.0,0.0,0.0,0.0,0.0,0.0,0.0,0.0,0.0,0.0,0.0,0.0,0.0,0.0,0.0,0.0,0.0,0.0,0.0,0.0213,-0.4708,-0.6318,-0.8651,-1.188,0.0,0.0,0.0,0.0,0.0,0.0,0.0,0.0,0.0,0.0,0.0,0.0,0.0,0.0,0.0,0.0,0.0,0.0,0.0,0.0,0.0,0.0,0.0,0.0,0.0,0.0,0.0,0.0,0.0,0.0,0.0,0.0,0.0,0.0,0.0,0.0,0.0,0.0,0.0,0.0,0.0,0.0,0.0,0.0,0.0,0.0,0.0,0.0,0.0,0.0,0.0,0.0,0.0,0.0,0.0,0.0,0.0,0.0,0.0,0.0,0.0,0.0,0.0,0.0,0.0,0.0,0.0,0.0,0.0,0.0,0.0,0.0,0.0,0.0,0.0,0.0,0.0,0.0,0.0,0.0,0.0,0.0,0.0,0.0,0.0,0.0,0.0,0.0,0.0,0.0,0.0,0.0,0.0,0.0,0.0,0.0,0.0,0.0,0.0,0.0,0.0,0.0,0.0,0.0,0.0,0.0,0.0,0.0,0.0,0.0,0.0,0.0,-1.2673,-1.4403,-1.6396,0.0,0.0,0.0,0.0,0.0,0.0,0.0,0.0,0.0,0.0,0.0,0.0,0.0,0.0,0.0,0.0,0.0,0.0,0.0,0.0,0.0,0.0,0.0,0.0,0.0,0.0,0.0,0.0,0.0,0.0,0.0,0.0,0.0,0.0,0.0,0.0,0.0,0.0,0.0,0.0,0.0,0.0,0.0,0.0,0.0,0.0,0.0,0.0,0.0,0.0,0.0,0.0,0.0,0.0,0.0,0.0,0.0,0.0,0.0,0.0,0.0,0.0,0.0,0.0,0.0,0.0,0.0,0.0,0.0,0.0,0.0,0.0,0.0,0.0,0.0,0.0,0.0,0.0,0.0,0.0,0.0,0.0,0.0,0.0,0.0,0.0,0.0,0.0,0.0,0.0,0.0,0.0,0.0,0.0,0.0,0.0,0.0,0.0,0.0,0.0,0.0,0.0,0.0,0.0,0.0,0.0,0.0,0.0,0.0,0.0,-0.8474,-1.0615,-1.1306,0.0,-1.4994,0.0,0.0,0.0,0.0,0.0,0.0,0.0,0.0,0.0,0.0,0.0,0.0,0.0,0.0,0.0,0.0,0.0,0.0,0.0,0.0,0.0,0.0,0.0,0.0,0.0,0.0,0.0,0.0,0.0,0.0,0.0,0.0,0.0,0.0,0.0,0.0,0.0,0.0,0.0,0.0,0.0,0.0,0.0,0.0,0.0,0.0,0.0,0.0,0.0,0.0,0.0,0.0,0.0,0.0,0.0,0.0,0.0,0.0,0.0,0.0,0.0,0.0,0.0,0.0,0.0,0.0,0.0,0.0,0.0,0.0,0.0,0.0,0.0,0.0,0.0,0.0,0.0,0.0,0.0,0.0,0.0,0.0,0.0,0.0,0.0,0.0,0.0,0.0,0.0,0.0,0.0,0.0,0.0,0.0,0.0,0.0,0.0,0.0,0.0,0.0,0.0,0.0,0.0,0.0,0.0,0.0,0.0,0.0,0.0,0.0,-0.8698,-1.034,-1.1231,-1.2425,0.0,0.0,0.0,0.0,0.0,0.0,0.0,0.0,0.0,0.0,0.0,0.0,0.0,0.0,0.0,0.0,0.0,0.0,0.0,0.0,0.0,0.0,0.0,0.0,0.0,0.0,0.0,0.0,0.0,0.0,0.0,0.0,0.0,0.0,0.0,0.0,0.0,0.0,0.0,0.0,0.0,0.0,0.0,0.0,0.0,0.0,0.0,0.0,0.0,0.0,0.0,0.0,0.0,0.0,0.0,0.0,0.0,0.0,0.0,0.0,0.0,0.0,0.0,0.0,0.0,0.0,0.0,0.0,0.0,0.0,0.0,0.0,0.0,0.0,0.0,0.0,0.0,0.0,0.0,0.0,0.0,0.0,0.0,0.0,0.0,0.0,0.0,0.0,0.0,0.0,0.0,0.0,0.0,0.0,0.0,0.0,0.0,0.0,0.0,0.0,0.0,0.0,0.0,0.0,0.0,0.0,0.0,0.0,0.0,0.0,-0.761,-0.8659,-1.0156,-1.1067,-1.2064,-1.3092,0.0,0.0,0.0,0.0,0.0,0.0,0.0,0.0,0.0,0.0,0.0,0.0,0.0,0.0,0.0,0.0,0.0,0.0,0.0,0.0,0.0,0.0,0.0,0.0,0.0,0.0,0.0,0.0,0.0,0.0,0.0,0.0,0.0,0.0,0.0,0.0,0.0,0.0,0.0,0.0,0.0,0.0,0.0,0.0,0.0,0.0,0.0,0.0,0.0,0.0,0.0,0.0,0.0,0.0,0.0,0.0,0.0,0.0,0.0,0.0,0.0,0.0,0.0,0.0,0.0,0.0,0.0,0.0,0.0,0.0,0.0,0.0,0.0,0.0,0.0,0.0,0.0,0.0,0.0,0.0,0.0,0.0,0.0,0.0,0.0,0.0,0.0,0.0,0.0,0.0,0.0,0.0,0.0,0.0,0.0,0.0,0.0,0.0,0.0,0.0,0.0,0.0,0.0,0.0,0.0,0.0,0.0,0.0,-0.7461,-0.7735,-0.862,-1.0143,-1.0497,-1.1252,0.0,0.0,0.0,0.0,0.0,0.0,0.0,0.0,0.0,0.0,0.0,0.0,0.0,0.0,0.0,0.0,0.0,0.0,0.0,0.0,0.0,0.0,0.0,0.0,0.0,0.0,0.0,0.0,0.0,0.0,0.0,0.0,0.0,0.0,0.0,0.0,0.0,0.0,0.0,0.0,0.0,0.0,0.0,0.0,0.0,0.0,0.0,0.0,0.0,0.0,0.0,0.0,0.0,0.0,0.0,0.0,0.0,0.0,0.0,0.0,0.0,0.0,0.0,0.0,0.0,0.0,0.0,0.0,0.0,0.0,0.0,0.0,0.0,0.0,0.0,0.0,0.0,0.0,0.0,0.0,0.0,0.0,0.0,0.0,0.0,0.0,0.0,0.0,0.0,0.0,0.0,0.0,0.0,0.0,0.0,0.0,0.0,0.0,0.0,0.0,0.0,0.0,0.0,0.0,0.0,0.0,0.0,0.0,0.0,-0.7402,-0.8156,-0.9099,-1.0049,-1.0278,-1.0927,0.0,0.0,0.0,0.0,0.0,0.0,0.0,0.0,0.0,0.0,0.0,0.0,0.0,0.0,0.0,0.0,0.0,0.0,0.0,0.0,0.0,0.0,0.0,0.0,0.0,0.0,0.0,0.0,0.0,0.0,0.0,0.0,0.0,0.0,0.0,0.0,0.0,0.0,0.0,0.0,0.0,0.0,0.0,0.0,0.0,0.0,0.0,0.0,0.0,0.0,0.0,0.0,0.0,0.0,0.0,0.0,0.0,0.0,0.0,0.0,0.0,0.0,0.0,0.0,0.0,0.0,0.0,0.0,0.0,0.0,0.0,0.0,0.0,0.0,0.0,0.0,0.0,0.0,0.0,0.0,0.0,0.0,0.0,0.0,0.0,0.0,0.0,0.0,0.0,0.0,0.0,0.0,0.0,0.0,0.0,0.0,0.0,0.0,0.0,0.0,0.0,0.0,0.0,0.0,0.0,0.0,0.0,0.0,0.0,-0.7711,0.0,-0.9413,-1.0041,-1.0231,-1.0714,0.0,0.0,0.0,0.0,0.0,0.0,0.0,0.0,0.0,0.0,0.0,0.0,0.0,0.0,0.0,0.0,0.0,0.0,0.0,0.0,0.0,0.0,0.0,0.0,0.0,0.0,0.0,0.0,0.0,0.0,0.0,0.0,0.0,0.0,0.0,0.0,0.0,0.0,0.0,0.0,0.0,0.0,0.0,0.0,0.0,0.0,0.0,0.0,0.0,0.0,0.0,0.0,0.0,0.0,0.0,0.0,0.0,0.0,0.0,0.0,0.0,0.0,0.0,0.0,0.0,0.0,0.0,0.0,0.0,0.0,0.0,0.0,0.0,0.0,0.0,0.0,0.0,0.0,0.0,0.0,0.0,0.0,0.0,0.0,0.0,0.0,0.0,0.0,0.0,0.0,0.0,0.0,0.0,0.0,0.0,0.0,0.0,0.0,0.0,0.0,0.0,0.0,0.0,0.0,0.0,0.0,0.0,0.0,-0.7889,-0.8573,-0.8995,-0.951,-1.0151,-1.0295,-1.0732,0.0,0.0,0.0,0.0,0.0,0.0,0.0,0.0,0.0,0.0,0.0,0.0,0.0,0.0,0.0,0.0,0.0,0.0,0.0,0.0,0.0,0.0,0.0,0.0,0.0,0.0,0.0,0.0,0.0,0.0,0.0,0.0,0.0,0.0,0.0,0.0,0.0,0.0,0.0,0.0,0.0,0.0,0.0,0.0,0.0,0.0,0.0,0.0,0.0,0.0,0.0,0.0,0.0,0.0,0.0,0.0,0.0,0.0,0.0,0.0,0.0,0.0,0.0,0.0,0.0,0.0,0.0,0.0,0.0,0.0,0.0,0.0,0.0,0.0,0.0,0.0,0.0,0.0,0.0,0.0,0.0,0.0,0.0,0.0,0.0,0.0,0.0,0.0,0.0,0.0,0.0,0.0,0.0,0.0,0.0,0.0,0.0,0.0,0.0,0.0,0.0,0.0,0.0,0.0,0.0,0.0,0.0,0.0,0.0,-0.9001,-0.9427,-0.9895,-1.0387,-1.0635,-1.0957,0.0,0.0,0.0,0.0,0.0,0.0,0.0,0.0,0.0,0.0,0.0,0.0,0.0,0.0,0.0,0.0,0.0,0.0,0.0,0.0,0.0,0.0,0.0,0.0,0.0,0.0,0.0,0.0,0.0,0.0,0.0,0.0,0.0,0.0,0.0,0.0,0.0,0.0,0.0,0.0,0.0,0.0,0.0,0.0,0.0,0.0,0.0,0.0,0.0,0.0,0.0,0.0,0.0,0.0,0.0,0.0,0.0,0.0,0.0,0.0,0.0,0.0,0.0,0.0,0.0,0.0,0.0,0.0,0.0,0.0,0.0,0.0,0.0,0.0,0.0,0.0,0.0,0.0,0.0,0.0,0.0,0.0,0.0,0.0,0.0,0.0,0.0,0.0,0.0,0.0,0.0,0.0,0.0,0.0,0.0,0.0,0.0,0.0,0.0,0.0,0.0,0.0,0.0,0.0,0.0,0.0,0.0,0.0,0.0,-0.9361,-0.9688,-1.0058,-1.036,-1.0802,-1.1156,-1.1393,0.0,0.0,0.0,0.0,0.0,0.0,0.0,0.0,0.0,0.0,0.0,0.0,0.0,0.0,0.0,0.0,0.0,0.0,0.0,0.0,0.0,0.0,0.0,0.0,0.0,0.0,0.0,0.0,0.0,0.0,0.0,0.0,0.0,0.0,0.0,0.0,0.0,0.0,0.0,0.0,0.0,0.0,0.0,0.0,0.0,0.0,0.0,0.0,0.0,0.0,0.0,0.0,0.0,0.0,0.0,0.0,0.0,0.0,0.0,0.0,0.0,0.0,0.0,0.0,0.0,0.0,0.0,0.0,0.0,0.0,0.0,0.0,0.0,0.0,0.0,0.0,0.0,0.0,0.0,0.0,0.0,0.0,0.0,0.0,0.0,0.0,0.0,0.0,0.0,0.0,0.0,0.0,0.0,0.0,0.0,0.0,0.0,0.0,0.0,0.0,0.0,0.0,0.0,0.0,0.0,0.0,0.0,0.0,-0.9562,-0.9836,-1.0043,-1.0249,-1.0778,-1.13,0.0,0.0,0.0,0.0,0.0,0.0,0.0,0.0,0.0,0.0,0.0,0.0,0.0,0.0,0.0,0.0,0.0,0.0,0.0,0.0,0.0,0.0,0.0,0.0,0.0,0.0,0.0,0.0,0.0,0.0,0.0,0.0,0.0,0.0,0.0,0.0,0.0,0.0,0.0,0.0,0.0,0.0,0.0,0.0,0.0,0.0,0.0,0.0,0.0,0.0,0.0,0.0,0.0,0.0,0.0,0.0,0.0,0.0,0.0,0.0,0.0,0.0,0.0,0.0,0.0,0.0,0.0,0.0,0.0,0.0,0.0,0.0,0.0,0.0,0.0,0.0,0.0,0.0,0.0,0.0,0.0,0.0,0.0,0.0,0.0,0.0,0.0,0.0,0.0,0.0,0.0,0.0,0.0,0.0,0.0,0.0,0.0,0.0,0.0,0.0,0.0,0.0,0.0,0.0,0.0,0.0,0.0,0.0,0.0,-0.9465,-0.9836,-1.0205,-1.0565,-1.1173,-1.1628,0.0,0.0,0.0,0.0,0.0,0.0,0.0,0.0,0.0,0.0,0.0,0.0,0.0,0.0,0.0,0.0,0.0,0.0,0.0,0.0,0.0,0.0,0.0,0.0,0.0,0.0,0.0,0.0,0.0,0.0,0.0,0.0,0.0,0.0,0.0,0.0,0.0,0.0,0.0,0.0,0.0,0.0,0.0,0.0,0.0,0.0,0.0,0.0,0.0,0.0,0.0,0.0,0.0,0.0,0.0,0.0,0.0,0.0,0.0,0.0,0.0,0.0,0.0,0.0,0.0,0.0,0.0,0.0,0.0,0.0,0.0,0.0,0.0,0.0,0.0,0.0,0.0,0.0,0.0,0.0,0.0,0.0,0.0,0.0,0.0,0.0,0.0,0.0,0.0,0.0,0.0,0.0,0.0,0.0,0.0,0.0,0.0,0.0,0.0,0.0,0.0,0.0,0.0,0.0,0.0,0.0,0.0,0.0,-0.9263,-0.9577,-0.9844,-1.0257,-1.0871,-1.1427,-1.1868,0.0,0.0,0.0,0.0,0.0,0.0,0.0,0.0,0.0,0.0,0.0,0.0,0.0,0.0,0.0,0.0,0.0,0.0,0.0,0.0,0.0,0.0,0.0,0.0,0.0,0.0,0.0,0.0,0.0,0.0,0.0,0.0,0.0,0.0,0.0,0.0,0.0,0.0,0.0,0.0,0.0,0.0,0.0,0.0,0.0,0.0,0.0,0.0,0.0,0.0,0.0,0.0,0.0,0.0,0.0,0.0,0.0,0.0,0.0,0.0,0.0,0.0,0.0,0.0,0.0,0.0,0.0,0.0,0.0,0.0,0.0,0.0,0.0,0.0,0.0,0.0,0.0,0.0,0.0,0.0,0.0,0.0,0.0,0.0,0.0,0.0,0.0,0.0,0.0,0.0,0.0,0.0,0.0,0.0,0.0,0.0,0.0,0.0,0.0,0.0,0.0,0.0,0.0,0.0,0.0,0.0,0.0,0.0,-0.9271,-0.9799,-0.9955,-1.036,-1.1074,-1.1528,-1.2026,0.0,0.0,0.0,0.0,0.0,0.0,0.0,0.0,0.0,0.0,0.0,0.0,0.0,0.0,0.0,0.0,0.0,0.0,0.0,0.0,0.0,0.0,0.0,0.0,0.0,0.0,0.0,0.0,0.0,0.0,0.0,0.0,0.0,0.0,0.0,0.0,0.0,0.0,0.0,0.0,0.0,0.0,0.0,0.0,0.0,0.0,0.0,0.0,0.0,0.0,0.0,0.0,0.0,0.0,0.0,0.0,0.0,0.0,0.0,0.0,0.0,0.0,0.0,0.0,0.0,0.0,0.0,0.0,0.0,0.0,0.0,0.0,0.0,0.0,0.0,0.0,0.0,0.0,0.0,0.0,0.0,0.0,0.0,0.0,0.0,0.0,0.0,0.0,0.0,0.0,0.0,0.0,0.0,0.0,0.0,0.0,0.0,0.0,0.0,0.0,0.0,0.0,0.0,0.0,0.0,0.0,0.0,0.0,-0.9472,-0.9799,-1.0058,-1.0514,-1.1074,-1.1578,-1.2175,0.0,0.0,0.0,0.0,0.0,0.0,0.0,0.0,0.0,0.0,0.0,0.0,0.0,0.0,0.0,0.0,0.0,0.0,0.0,0.0,0.0,0.0,0.0,0.0,0.0,0.0,0.0,0.0,0.0,0.0,0.0,0.0,0.0,0.0,0.0,0.0,0.0,0.0,0.0,0.0,0.0,0.0,0.0,0.0,0.0,0.0,0.0,0.0,-1.8123,0.0,0.0,0.0,0.0,0.0,0.0,0.0,0.0,0.0,0.0,0.0,0.0,0.0,0.0,0.0,0.0,0.0,0.0,0.0,0.0,0.0,0.0,0.0,0.0,0.0,0.0,0.0,0.0,0.0,0.0,0.0,0.0,0.0,0.0,0.0,0.0,0.0,0.0,0.0,0.0,0.0,0.0,0.0,0.0,0.0,0.0,0.0,0.0,0.0,0.0,0.0,0.0,0.0,0.0,0.0,0.0,0.0,0.0,0.0,-0.9577,-0.9895,-1.0265,-1.0769,-1.1368,-1.1927,-1.2421,0.0,0.0,0.0,0.0,0.0,0.0,0.0,0.0,0.0,0.0,0.0,0.0,0.0,0.0,0.0,0.0,0.0,0.0,0.0,0.0,0.0,0.0,0.0,0.0,0.0,0.0,0.0,0.0,0.0,0.0,0.0,0.0,0.0,0.0,0.0,0.0,0.0,0.0,0.0,0.0,0.0,0.0,0.0,0.0,0.0,0.0,0.0,0.0,0.0,0.0,0.0,0.0,0.0,0.0,0.0,0.0,0.0,0.0,0.0,0.0,0.0,0.0,0.0,0.0,0.0,0.0,0.0,0.0,0.0,0.0,0.0,0.0,0.0,0.0,0.0,0.0,0.0,0.0,0.0,0.0,0.0,0.0,0.0,0.0,0.0,0.0,0.0,0.0,0.0,0.0,0.0,0.0,0.0,0.0,0.0,0.0,0.0,0.0,0.0,0.0,0.0,0.0,0.0,0.0,0.0,0.0,0.0,-0.942,-0.9732,-1.0102,-1.0565,-1.1074,-1.1719,-1.2224,-1.2715,-1.3112,0.0,0.0,0.0,0.0,0.0,0.0,0.0,0.0,0.0,0.0,0.0,0.0,0.0,0.0,0.0,0.0,0.0,0.0,0.0,0.0,0.0,0.0,0.0,0.0,0.0,0.0,0.0,0.0,0.0,0.0,0.0,0.0,0.0,0.0,0.0,0.0,0.0,0.0,-1.0561,-1.2081,0.0,0.0,0.0,0.0,0.0,0.0,0.0,0.0,-1.8437,0.0,0.0,0.0,0.0,0.0,0.0,0.0,0.0,0.0,0.0,0.0,0.0,0.0,0.0,0.0,0.0,0.0,0.0,0.0,0.0,0.0,0.0,0.0,0.0,0.0,0.0,0.0,0.0,0.0,0.0,0.0,0.0,0.0,0.0,0.0,0.0,0.0,0.0,0.0,0.0,0.0,0.0,0.0,0.0,0.0,0.0,0.0,0.0,0.0,0.0,0.0,0.0,0.0,0.0,0.0,0.0,-0.9517,-0.9947,-1.0316,-1.0573,-1.0972,-1.1427,-1.1868,-1.2372,-1.291,-1.3478,0.0,0.0,0.0,0.0,0.0,0.0,0.0,0.0,0.0,0.0,0.0,0.0,0.0,0.0,0.0,0.0,0.0,0.0,0.0,0.0,0.0,0.0,0.0,0.0,0.0,0.0,0.0,0.0,0.0,0.0,0.0,0.0,0.0,0.0,0.0,0.0,0.0,0.0,0.0,-1.234,-1.3425,0.0,0.0,0.0,0.0,0.0,0.0,0.0,0.0,-1.8246,0.0,0.0,0.0,0.0,0.0,0.0,0.0,0.0,0.0,0.0,0.0,0.0,0.0,0.0,0.0,0.0,0.0,0.0,0.0,0.0,0.0,0.0,0.0,0.0,0.0,0.0,0.0,0.0,0.0,0.0,0.0,0.0,0.0,0.0,0.0,0.0,0.0,0.0,0.0,0.0,0.0,0.0,0.0,0.0,0.0,0.0,0.0,0.0,0.0,0.0,0.0,0.0,0.0,0.0,0.0,-0.9814,-1.0249,-1.0616,-1.0922,-1.1368,-1.1819,-1.2234,-1.2813,-1.3382,0.0,0.0,0.0,0.0,0.0,0.0,0.0,0.0,0.0,0.0,0.0,0.0,0.0,0.0,0.0,0.0,0.0,0.0,0.0,0.0,0.0,0.0,0.0,0.0,0.0,0.0,0.0,0.0,0.0,0.0,0.0,0.0,0.0,0.0,0.0,0.0,0.0,0.0,0.0,0.0,-1.2578,-1.354,-1.4362,0.0,0.0,0.0,0.0,0.0,0.0,-1.8016,-1.8346,0.0,0.0,0.0,0.0,0.0,0.0,0.0,0.0,0.0,0.0,0.0,0.0,0.0,0.0,0.0,0.0,0.0,0.0,0.0,0.0,0.0,0.0,0.0,0.0,0.0,0.0,0.0,0.0,0.0,0.0,0.0,0.0,0.0,0.0,0.0,0.0,0.0,0.0,0.0,0.0,0.0,0.0,0.0,0.0,0.0,0.0,0.0,0.0,0.0,0.0,0.0,0.0,0.0,0.0,0.0,-1.0226,-1.071,-1.1074,-1.1377,-1.1819,-1.2264,-1.2666,-1.3334,-1.3894,0.0,0.0,0.0,0.0,0.0,0.0,0.0,0.0,0.0,0.0,0.0,0.0,0.0,0.0,0.0,0.0,0.0,0.0,0.0,0.0,0.0,0.0,0.0,0.0,0.0,0.0,0.0,0.0,0.0,0.0,0.0,0.0,0.0,0.0,0.0,0.0,0.0,0.0,0.0,0.0,0.0,-1.3685,-1.4592,-1.5037,0.0,0.0,0.0,0.0,-1.7453,-1.8037,0.0,0.0,0.0,0.0,0.0,0.0,0.0,0.0,0.0,0.0,0.0,0.0,0.0,0.0,0.0,0.0,0.0,0.0,0.0,0.0,0.0,0.0,0.0,0.0,0.0,0.0,0.0,0.0,0.0,0.0,0.0,0.0,0.0,0.0,0.0,0.0,0.0,0.0,0.0,0.0,0.0,0.0,0.0,0.0,0.0,0.0,0.0,0.0,0.0,0.0,0.0,0.0,0.0,0.0,0.0,0.0,-1.0964,-1.1368,-1.1778,-1.2175,-1.2491,-1.2871,-1.3266,-1.3847,-1.4419,0.0,0.0,0.0,0.0,0.0,0.0,0.0,0.0,0.0,0.0,0.0,0.0,0.0,0.0,0.0,0.0,0.0,0.0,0.0,0.0,0.0,0.0,0.0,0.0,0.0,0.0,0.0,0.0,0.0,0.0,0.0,0.0,0.0,0.0,0.0,0.0,0.0,0.0,0.0,0.0,0.0,-1.3608,-1.4739,-1.5221,-1.5607,0.0,0.0,-1.6498,-1.7157,-1.7725,0.0,0.0,0.0,0.0,0.0,0.0,0.0,0.0,0.0,0.0,0.0,0.0,0.0,0.0,0.0,0.0,0.0,0.0,0.0,0.0,0.0,0.0,0.0,0.0,0.0,0.0,0.0,0.0,0.0,0.0,0.0,0.0,0.0,0.0,0.0,0.0,0.0,0.0,0.0,0.0,0.0,0.0,0.0,0.0,0.0,0.0,0.0,0.0,0.0,0.0,0.0,0.0,0.0,0.0,0.0,-1.1217,-1.1519,-1.1927,-1.2314,-1.2696,-1.3074,-1.3409,-1.3742,-1.4362,-1.4915,0.0,0.0,0.0,0.0,0.0,0.0,0.0,0.0,0.0,0.0,0.0,0.0,0.0,0.0,0.0,0.0,0.0,0.0,0.0,0.0,0.0,0.0,0.0,0.0,0.0,0.0,0.0,0.0,0.0,0.0,0.0,0.0,0.0,0.0,0.0,0.0,0.0,0.0,0.0,0.0,0.0,0.0,-1.5133,-1.5668,0.0,0.0,0.0,-1.6769,-1.7097,0.0,0.0,0.0,0.0,0.0,0.0,0.0,0.0,0.0,0.0,0.0,0.0,0.0,0.0,0.0,0.0,0.0,0.0,0.0,0.0,0.0,0.0,0.0,0.0,0.0,0.0,0.0,0.0,0.0,0.0,0.0,0.0,0.0,0.0,0.0,0.0,0.0,0.0,0.0,0.0,0.0,0.0,0.0,0.0,0.0,0.0,0.0,0.0,0.0,0.0,0.0,0.0,0.0,0.0,0.0,0.0,0.0,-1.2166,-1.2559,-1.2939,-1.3304,-1.3647,-1.3988,-1.434,-1.4949,0.0,0.0,0.0,0.0,0.0,0.0,0.0,0.0,0.0,0.0,0.0,0.0,0.0,0.0,0.0,0.0,0.0,0.0,0.0,0.0,0.0,0.0,0.0,0.0,0.0,0.0,0.0,-1.2223,0.0,0.0,0.0,0.0,0.0,0.0,0.0,0.0,0.0,0.0,0.0,0.0,0.0,0.0,-1.4375,-1.5384,-1.5991,-1.6412,0.0,0.0,-1.6978,-1.7245,-1.751,-1.7784,0.0,0.0,0.0,0.0,0.0,0.0,0.0,0.0,0.0,0.0,0.0,0.0,0.0,0.0,0.0,0.0,0.0,0.0,0.0,0.0,0.0,0.0,0.0,0.0,0.0,0.0,0.0,0.0,0.0,0.0,0.0,0.0,0.0,0.0,0.0,0.0,0.0,0.0,0.0,0.0,0.0,0.0,0.0,0.0,0.0,0.0,0.0,0.0,0.0,0.0,0.0,0.0,0.0,0.0,-1.2461,-1.2919,-1.3218,-1.361,-1.4129,-1.4316,-1.472,-1.5299,-1.5611,-1.6126,0.0,0.0,0.0,0.0,0.0,0.0,0.0,0.0,0.0,0.0,0.0,0.0,0.0,0.0,0.0,0.0,0.0,0.0,0.0,0.0,0.0,0.0,0.0,0.0,0.0,0.0,0.0,0.0,0.0,0.0,0.0,0.0,0.0,0.0,0.0,0.0,0.0,0.0,0.0,0.0,0.0,-1.429,-1.5376,-1.6,-1.6421,0.0,-1.6908,-1.7047,-1.7401,-1.7588,-1.7784,-1.794,0.0,0.0,0.0,0.0,0.0,0.0,0.0,0.0,0.0,0.0,0.0,0.0,0.0,0.0,0.0,0.0,0.0,0.0,0.0,0.0,0.0,0.0,0.0,0.0,0.0,0.0,0.0,0.0,0.0,0.0,0.0,0.0,0.0,0.0,0.0,0.0,0.0,0.0,0.0,0.0,0.0,0.0,0.0,0.0,0.0,0.0,0.0,0.0,0.0,0.0,0.0,0.0,0.0,-1.3084,-1.3467,-1.3847,-1.428,-1.4731,-1.4949,-1.5311,-1.5869,-1.6238,-1.6697,0.0,0.0,0.0,0.0,0.0,0.0,0.0,0.0,0.0,0.0,0.0,0.0,0.0,0.0,0.0,0.0,0.0,0.0,0.0,0.0,0.0,0.0,0.0,0.0,0.0,0.0,0.0,0.0,-1.2126,-1.166,-1.1283,0.0,0.0,0.0,0.0,0.0,0.0,0.0,0.0,0.0,0.0,-1.5163,-1.5877,-1.6473,0.0,0.0,-1.7314,-1.7382,-1.7461,-1.7735,-1.7959,-1.823,-1.8475,0.0,0.0,0.0,0.0,0.0,0.0,0.0,0.0,0.0,0.0,0.0,0.0,0.0,0.0,0.0,0.0,0.0,0.0,0.0,0.0,0.0,0.0,0.0,0.0,0.0,0.0,0.0,0.0,0.0,0.0,0.0,0.0,0.0,0.0,0.0,0.0,0.0,0.0,0.0,0.0,0.0,0.0,0.0,0.0,0.0,0.0,0.0,0.0,0.0,0.0,0.0,0.0,-1.3695,-1.414,-1.4501,-1.4915,-1.5379,-1.5623,-1.5976,-1.6491,-1.685,-1.7256,0.0,0.0,0.0,0.0,0.0,0.0,0.0,0.0,0.0,0.0,0.0,0.0,0.0,0.0,0.0,0.0,0.0,0.0,0.0,0.0,0.0,0.0,0.0,0.0,0.0,0.0,0.0,0.0,-1.2236,-1.1852,-1.1559,0.0,0.0,0.0,0.0,0.0,0.0,0.0,0.0,0.0,0.0,-1.5886,-1.6306,-1.6881,-1.7282,-1.7492,-1.7631,-1.7748,-1.7731,-1.805,-1.8356,-1.8533,0.0,0.0,0.0,0.0,0.0,0.0,0.0,0.0,0.0,0.0,0.0,0.0,0.0,0.0,0.0,0.0,0.0,0.0,0.0,0.0,0.0,0.0,0.0,0.0,0.0,0.0,0.0,-1.3978,0.0,0.0,-1.4014,0.0,0.0,0.0,0.0,0.0,0.0,0.0,0.0,0.0,0.0,0.0,0.0,0.0,0.0,0.0,0.0,0.0,0.0,0.0,0.0,0.0,0.0,-1.4398,-1.4869,-1.5209,-1.5579,-1.5988,-1.6293,-1.668,-1.7157,-1.7406,-1.7787,-1.8461,0.0,0.0,0.0,0.0,0.0,0.0,0.0,0.0,0.0,0.0,0.0,0.0,0.0,0.0,0.0,0.0,0.0,0.0,0.0,0.0,0.0,0.0,0.0,0.0,0.0,0.0,-1.2607,-1.2229,-1.1987,0.0,0.0,0.0,0.0,0.0,0.0,0.0,0.0,0.0,-1.5059,-1.5816,-1.6376,-1.6603,-1.6959,-1.7306,-1.7484,-1.7701,-1.7921,-1.8202,-1.8644,-1.8985,0.0,0.0,0.0,0.0,0.0,0.0,0.0,0.0,0.0,0.0,0.0,0.0,0.0,0.0,0.0,0.0,0.0,0.0,0.0,0.0,0.0,0.0,0.0,0.0,0.0,0.0,0.0,-1.5601,-1.5567,0.0,0.0,0.0,0.0,0.0,0.0,0.0,0.0,0.0,0.0,0.0,-1.7886,-1.7969,0.0,0.0,0.0,0.0,0.0,0.0,0.0,0.0,0.0,0.0,0.0,0.0,-1.504,-1.5478,-1.592,-1.6337,-1.6765,-1.706,-1.7352,-1.772,-1.8068,-1.8461,-1.9026,0.0,0.0,0.0,0.0,0.0,0.0,0.0,0.0,0.0,0.0,0.0,0.0,0.0,0.0,0.0,0.0,0.0,0.0,0.0,0.0,0.0,0.0,0.0,0.0,0.0,-1.3691,0.0,0.0,0.0,0.0,0.0,0.0,0.0,0.0,0.0,0.0,-1.4243,-1.5128,-1.5992,-1.6682,-1.7107,-1.7185,-1.7373,-1.7653,0.0,0.0,0.0,0.0,0.0,0.0,0.0,0.0,0.0,0.0,0.0,0.0,0.0,0.0,-2.0137,-2.0137,-1.9454,-1.8848,-1.8535,0.0,0.0,0.0,0.0,0.0,0.0,0.0,0.0,0.0,0.0,0.0,0.0,0.0,0.0,-1.7111,-1.7127,-1.714,0.0,0.0,0.0,0.0,0.0,0.0,0.0,0.0,-1.8747,-1.9298,-1.9632,-1.9708,-1.9707,0.0,-1.9486,-1.8858,0.0,0.0,0.0,0.0,0.0,0.0,0.0,0.0,-1.5969,-1.6225,-1.6667,-1.7102,-1.7393,-1.772,-1.7962,-1.8226,-1.8655,-1.9072,-1.9435,-1.9669,-1.9777,0.0,0.0,0.0,0.0,0.0,0.0,0.0,0.0,0.0,0.0,0.0,0.0,0.0,0.0,0.0,0.0,0.0,0.0,0.0,0.0,0.0,0.0,0.0,-1.4347,0.0,0.0,0.0,0.0,0.0,0.0,0.0,0.0,0.0,-1.4633,-1.5436,-1.6358,-1.7177,-1.7624,-1.7837,-1.7827,0.0,0.0,0.0,0.0,0.0,0.0,0.0,-1.9543,-1.9726,-2.0004,-2.0397,-2.076,-2.0876,-2.0916,-2.0967,0.0,0.0,-2.0644,-1.9975,-1.9437,-1.9278,-1.8976,-1.869,-1.8638,-1.8398,-1.829,0.0,0.0,0.0,0.0,-1.6255,0.0,0.0,0.0,-1.8097,-1.8367,0.0,-1.8714,0.0,0.0,0.0,0.0,-1.795,-1.8726,0.0,0.0,-2.0547,-2.1108,-2.1375,-2.1769,-2.1921,-2.1807,-2.1541,-2.105,-2.0355,-1.8814,0.0,0.0,0.0,0.0,0.0,0.0,-1.7244,-1.7099,-1.7516,-1.776,-1.7828,-1.8266,-1.8553,-1.8655,-1.9221,-1.9566,-1.9726,-1.996,-2.0115,-2.01,-2.022,0.0,0.0,0.0,0.0,0.0,0.0,0.0,0.0,0.0,0.0,0.0,0.0,0.0,0.0,0.0,0.0,0.0,0.0,0.0,0.0,-1.5372,0.0,0.0,0.0,0.0,0.0,0.0,0.0,0.0,0.0,-1.6034,-1.6043,-1.6768,-1.7651,-1.8543,0.0,0.0,0.0,0.0,-1.8409,-1.8442,-1.8911,-1.9391,-1.9562,-2.002,-2.0401,-2.0557,0.0,0.0,-2.1205,-2.1349,-2.1614,-2.1736,-2.1804,-2.1578,-2.0886,-2.0557,-2.0304,-2.0304,-1.9904,-1.9627,-1.9636,-1.9413,-1.9404,-1.7973,0.0,0.0,0.0,0.0,-1.87,-1.9271,-1.9917,-2.01,-2.0247,-2.0348,-2.032,0.0,0.0,0.0,0.0,0.0,0.0,-2.0785,-2.1151,-2.1865,-2.2286,-2.2435,-2.2577,-2.254,-2.237,-2.2184,-2.1899,-2.1545,-2.107,-2.0121,-1.8806,0.0,0.0,0.0,0.0,-1.8318,-1.8466,-1.8408,-1.8422,-1.8592,-1.8822,-1.9087,-1.9384,-1.9588,-1.9854,-2.0131,-2.0254,-2.0342,-2.0462,-2.046,0.0,0.0,0.0,0.0,0.0,0.0,0.0,0.0,0.0,0.0,0.0,0.0,0.0,0.0,0.0,0.0,0.0,0.0,0.0,-1.6726,-1.6795,-1.6862,0.0,0.0,0.0,0.0,0.0,0.0,0.0,0.0,0.0,-1.8489,-1.8322,-1.8276,0.0,0.0,-1.8967,-1.8831,-1.8831,-1.8902,-1.9024,-1.9184,0.0,-1.9806,-2.0177,-2.0566,-2.0789,-2.1339,-2.1807,-2.1807,-2.2025,-2.2035,-2.1859,-2.2056,-2.2294,-2.2605,-2.1824,-2.1128,-2.0819,-2.0586,-2.043,-2.0186,-2.0177,-2.0167,-1.9683,-1.9282,-1.9044,-1.9202,-1.9658,-2.0131,-2.0696,-2.1286,-2.1513,-2.1652,-2.1744,-2.173,-2.1421,-2.0941,-2.0797,0.0,0.0,0.0,-2.2073,-2.2352,-2.2819,-2.3068,-2.3157,-2.3172,-2.3038,-2.2888,-2.2737,-2.2586,-2.2342,-2.2356,-2.1791,-2.0688,0.0,-2.0084,-2.0003,-1.9635,-1.9419,-1.9401,-1.9059,-1.895,-1.9064,-1.9236,-1.9508,-1.9869,-1.9995,-2.017,-2.0426,-2.0628,-2.0761,-2.0861,-2.0893,-2.0893,0.0,0.0,0.0,0.0,0.0,0.0,0.0,0.0,0.0,0.0,0.0,-1.9855,-1.9362,0.0,0.0,0.0,-1.8319,-1.8078,-1.7978,-1.8282,0.0,0.0,0.0,0.0,0.0,0.0,0.0,-1.8874,-1.9216,-1.9619,-2.0098,-1.9834,-1.9645,-1.9645,-1.9428,-1.9214,-1.9151,0.0,-1.9107,-1.9046,-1.9418,-1.9726,-1.9957,-2.0389,-2.0897,-2.1527,-2.2166,-2.2628,-2.2703,-2.2916,-2.2925,-2.2498,-2.2859,-2.3479,-2.3988,-2.3271,-2.2317,-2.1578,-2.1282,-2.1155,-2.0745,-2.0695,-2.0721,-2.0795,-2.1224,-2.0534,-2.0333,-2.057,-2.1077,-2.1636,-2.2137,-2.242,-2.2618,-2.2785,-2.2889,-2.257,-2.1932,-2.1801,0.0,-2.1946,-2.2628,-2.3068,-2.3319,-2.3451,-2.3538,-2.3595,-2.3538,-2.3466,-2.3319,-2.3172,-2.3068,-2.2934,-2.2934,-2.2949,-2.2934,-2.2452,-2.1953,-2.1476,-2.0955,-2.0495,-2.0038,-1.9622,-1.9398,-1.9376,-1.9617,-1.9854,-2.0135,-2.0342,-2.0496,-2.0648,-2.1023,-2.1262,-2.134,-2.1448,-2.1479,-2.134,0.0,0.0,0.0,0.0,0.0,0.0,0.0,0.0,0.0,0.0,0.0,0.0,0.0,0.0,-2.0244,-1.9887,0.0,-1.9542,-1.9668,0.0,0.0,0.0,-2.07,-2.0442,-2.1048,-2.1361,-2.0776,0.0,0.0,-2.1071,-2.1281,-2.1288,-2.075,-1.9974,-1.9409,-1.937,-1.9433,-1.9213,-1.8889,-1.9594,-2.0247,-2.0237,-2.065,-2.1438,-2.2606,-2.3139,-2.3434,-2.3655,-2.4009,-2.3967,-2.3424,-2.4054,-2.4766,-2.4835,-2.4452,-2.3852,-2.2617,-2.2059,-2.1686,-2.1238,-2.1093,-2.0948,-2.1746,-2.1969,-2.2035,-2.1941,-2.1793,-2.203,-2.2402,-2.2844,-2.2949,-2.3098,-2.3319,-2.3319,-2.3274,-2.3098,-2.2952,-2.2995,-2.3098,-2.3304,-2.3407,-2.3508,-2.3551,-2.361,-2.3595,-2.361,-2.3523,-2.3451,-2.3422,-2.3319,-2.3216,-2.3319,-2.3319,-2.3216,-2.3231,-2.3069,-2.2657,-2.2177,-2.1618,-2.1123,-2.0667,-2.0272,-1.9919,-2.008,-2.0254,-2.0496,-2.0663,-2.0926,-2.1182,-2.1402,-2.1573,-2.1751,-2.1735,-2.1691,-2.1678,-2.1495,0.0,0.0,0.0,0.0,0.0,0.0,0.0,0.0,0.0,-2.1061,-2.1136,0.0,-2.1199,0.0,-2.0431,-2.0361,-2.0528,-2.0571,0.0,0.0,-2.1313,-2.1766,-2.1924,-2.2548,-2.2852,-2.2711,-2.2582,-2.2424,-2.2222,-2.1808,-2.1544,-2.1386,-2.1009,-2.0543,-2.0206,-2.0145,-2.0104,-2.0002,-2.0135,-2.037,-2.0535,-2.1445,-2.2462,-2.3627,-2.4143,-2.4443,-2.4659,-2.4874,-2.5016,-2.5016,-2.5087,-2.5206,-2.5444,-2.5159,-2.4731,-2.4253,-2.3184,-2.1953,-2.1544,-2.1186,-2.0923,-2.2417,-2.2632,-2.2799,-2.2844,-2.2768,-2.2768,-2.3008,-2.3275,-2.3304,-2.3392,-2.3581,-2.3625,-2.3625,-2.3625,-2.3625,-2.3625,-2.3625,-2.364,-2.361,-2.3595,-2.3595,-2.3595,-2.3595,-2.3595,-2.3566,-2.3538,-2.3581,-2.3566,-2.3538,-2.3668,-2.3754,-2.3653,-2.3824,-2.3824,-2.3623,-2.2867,-2.2416,-2.2234,-2.1463,-2.0824,-2.0339,-2.046,-2.0628,-2.0844,-2.1007,-2.123,-2.1526,-2.1678,-2.1827,-2.202,-2.202,-2.1957,-2.1899,-2.2035,-2.1952,0.0,0.0,0.0,0.0,0.0,0.0,0.0,0.0,0.0,0.0,0.0,-2.2144,-2.1574,-2.1447,-2.1419,-2.1432,-2.1562,-2.1761,-2.1825,-2.2309,-2.2819,-2.3282,-2.3765,-2.4024,-2.3886,-2.372,-2.336,-2.2898,-2.251,-2.2195,-2.1985,-2.1754,-2.1317,-2.0534,-2.0331,-2.0268,-2.008,-2.0333,-2.0738,-2.1105,-2.1973,-2.2924,-2.377,-2.4389,-2.48,-2.5033,-2.5378,-2.577,-2.5877,-2.5853,-2.5828,-2.5889,-2.5712,-2.5392,-2.4869,-2.3897,-2.2936,-2.2414,-2.1907,-2.153,-2.2873,-2.3127,-2.3172,-2.3319,-2.3509,-2.3407,-2.3407,-2.3509,-2.3595,-2.3638,-2.3681,-2.3782,-2.3839,-2.3882,-2.3967,-2.3982,-2.3824,-2.3839,-2.3782,-2.3638,-2.3638,-2.3638,-2.3638,-2.3595,-2.3638,-2.3681,-2.3782,-2.3882,-2.3882,-2.4094,-2.4162,-2.4162,-2.4245,-2.4343,-2.4354,-2.3498,-2.3092,-2.3124,-2.2013,-2.1183,-2.0695,-2.0811,-2.099,-2.1247,-2.1325,-2.1481,-2.1708,-2.184,-2.2036,-2.2332,-2.2406,-2.2406,-2.2312,-2.2842,-2.2992,0.0,-2.309,0.0,0.0,0.0,0.0,0.0,0.0,0.0,0.0,-2.2786,-2.3064,-2.263,-2.2644,-2.2566,-2.2351,-2.2683,-2.2909,-2.2871,-2.3319,-2.3862,-2.4271,-2.4609,-2.4706,-2.4558,-2.4342,-2.389,-2.3309,-2.3167,-2.2854,-2.2491,-2.2374,-2.1924,-2.0807,-2.046,-2.0387,-1.9911,-2.0456,-2.1207,-2.1896,-2.2483,-2.3109,-2.3706,-2.4335,-2.4841,-2.5001,-2.5562,-2.5965,-2.594,-2.6027,-2.6133,-2.5965,-2.5952,-2.5735,-2.4927,-2.4347,-2.3718,-2.3195,-2.2632,-2.2204,-2.3275,-2.3451,-2.348,-2.3566,-2.3595,-2.3668,-2.3653,-2.361,-2.3696,-2.3867,-2.3979,-2.4036,-2.4094,-2.4219,-2.4219,-2.4162,-2.4036,-2.4021,-2.3952,-2.3782,-2.3739,-2.3782,-2.3782,-2.3739,-2.3824,-2.3979,-2.4021,-2.4177,-2.4374,-2.44,-2.4441,-2.4508,-2.4549,-2.4614,-2.4744,0.0,0.0,0.0,-2.2146,-2.1508,-2.1103,-2.1151,-2.1309,-2.1528,-2.1603,0.0,-2.1911,-2.1969,-2.2358,-2.3127,-2.319,0.0,0.0,0.0,0.0,0.0,0.0,0.0,0.0,0.0,0.0,0.0,-2.3921,-2.3756,-2.3683,-2.3812,-2.3891,-2.3798,-2.3603,-2.3533,-2.3677,-2.3774,-2.3878,-2.3837,-2.4214,-2.4538,-2.4606,-2.4734,-2.4775,-2.4763,-2.4357,-2.3978,-2.3755,-2.3209,-2.281,-2.2567,-2.2531,-2.2339,-2.1902,-2.1551,-2.129,-2.1262,-2.1481,-2.1881,-2.2626,-2.2886,-2.3361,-2.414,-2.4455,-2.4632,-2.4788,-2.4928,-2.5094,-2.5106,-2.5069,-2.5172,-2.5081,-2.5069,-2.5028,-2.4866,-2.4352,-2.3763,-2.3087,-2.2564,-2.2181,-2.3436,-2.3581,-2.3653,-2.3501,0.0,-2.3398,-2.3243,-2.297,-2.3637,-2.4078,-2.4302,-2.4436,-2.4533,-2.4533,-2.4655,-2.4574,-2.4328,-2.4328,-2.4245,-2.4036,-2.4036,-2.4051,-2.4036,-2.3758,-2.3871,-2.4287,-2.411,-2.4231,-2.4679,-2.4934,-2.5084,-2.5091,-2.5185,-2.5301,-2.54,-2.5422,-2.4852,-2.3647,-2.3066,-2.2556,-2.2067,-2.1737,-2.1661,-2.1797,-2.1827,0.0,0.0,0.0,0.0,0.0,0.0,0.0,0.0,0.0,0.0,-2.4597,-2.4913,-2.5141,-2.531,-2.5232,-2.5067,-2.491,-2.4746,-2.4638,-2.4549,-2.4451,-2.4558,-2.5035,-2.4709,-2.4455,-2.4496,-2.4408,-2.4305,-2.4326,-2.4478,-2.4668,-2.4875,-2.4903,-2.4934,-2.4822,-2.4621,-2.4331,-2.4029,-2.3703,-2.3441,-2.3329,-2.3301,-2.3248,-2.3078,-2.2396,-2.1913,-2.1951,-2.2087,-2.2296,-2.2799,-2.2946,-2.3207,-2.3691,-2.4079,-2.4266,-2.4418,-2.4644,-2.4833,-2.4833,-2.4833,-2.4833,-2.4833,-2.4833,-2.4745,-2.4469,-2.4192,-2.3816,-2.3145,-2.2788,-2.2665,-2.3417,-2.3473,-2.348,-2.3175,-2.2717,-2.2919,-2.277,-2.2461,-2.3579,0.0,0.0,-2.4871,-2.4981,-2.4974,-2.513,-2.5052,-2.4751,-2.4751,-2.463,-2.4426,-2.4426,-2.4323,-2.4225,-2.3708,-2.3771,-2.424,-2.409,-2.4306,-2.4907,-2.5411,-2.568,-2.5717,-2.5881,-2.597,-2.599,-2.6063,-2.5678,-2.4893,-2.4196,-2.3538,-2.2969,-2.2282,-2.194,-2.1998,-2.1998,-2.2044,-2.2214,-2.2786,-2.3236,-2.3596,-2.4184,-2.4611,-2.4818,-2.5376,-2.5614,-2.5514,-2.6031,-2.633,-2.6277,-2.6099,-2.5791,-2.5384,-2.5293,-2.5209,-2.5114,-2.4985,-2.5286,-2.6119,-2.5715,-2.5384,-2.523,-2.4964,-2.4851,-2.4838,-2.4794,-2.4882,-2.5221,-2.5124,-2.5005,-2.4945,-2.4839,-2.4668,-2.4249,-2.4171,-2.4189,-2.4189,-2.4157,-2.4261,-2.4073,-2.3245,-2.2653,-2.2714,-2.2836,-2.2836,-2.303,-2.3175,-2.315,-2.3406,-2.3748,-2.4001,-2.4102,-2.4406,-2.4608,-2.4621,-2.4709,-2.4672,-2.4684,-2.4621,-2.4545,-2.4128,-2.4026,-2.3874,-2.3444,-2.3245,-2.3258,-2.2843,-2.2892,-2.2415,-2.2285,-2.2294,-2.2545,-2.2854,-2.3183,-2.3702,-2.4141,-2.4526,-2.5196,-2.5513,-2.5572,-2.5626,-2.5476,-2.5301,-2.5301,-2.513,-2.4839,-2.4823,-2.4485,-2.3903,-2.3793,-2.3628,-2.3522,-2.4112,-2.4583,-2.4944,-2.5589,-2.601,-2.6099,-2.6134,-2.6206,-2.626,-2.6417,-2.6453,-2.6284,-2.4796,-2.3764,-2.3157,-2.2417,-2.1998,-2.1998,-2.1998,-2.2044,-2.2214,-2.2332,-2.2967,-2.4255,-2.4455,-2.505,-2.6302,-2.6437,-2.6505,-2.6505,-2.6607,-2.6607,-2.6537,-2.6347,-2.5974,-2.5355,-2.5045,-2.5033,-2.548,-2.5912,-2.6285,-2.6611,-2.6404,-2.6244,-2.6122,-2.6068,-2.6014,-2.6014,-2.5811,-2.5716,-2.5758,-2.5381,-2.5054,-2.5054,-2.47,-2.4585,-2.4549,-2.4607,-2.462,-2.4549,-2.4761,-2.4771,-2.4549,-2.4118,-2.3826,-2.3839,-2.3839,-2.3897,-2.3839,-2.3897,-2.3897,-2.3943,-2.4034,-2.4092,-2.4092,-2.4196,-2.4287,-2.4229,-2.4261,-2.4235,-2.4209,-2.419,-2.4229,-2.4092,-2.4092,-2.4014,-2.3897,-2.3884,-2.378,-2.237,-2.2404,-2.2332,-2.213,-2.1906,-2.1922,-2.2149,-2.254,-2.316,-2.3925,-2.4746,-2.5179,-2.5612,-2.5957,-2.5994,-2.5921,-2.5717,-2.5717,-2.5626,-2.5438,-2.5438,-2.526,-2.489,-2.4184,-2.4145,-2.4694,-2.439,-2.4758,-2.5624,-2.6127,-2.6364,-2.6417,-2.6435,-2.6504,-2.6521,-2.6607,-2.6708,-2.6725,-2.5529,-2.462,-2.3958,-2.3228,-2.2665,-2.2343,-2.2343,-2.236,-2.2405,-2.2796,-2.3306,-2.3998,-2.4394,-2.4938,-2.5552,-2.5944,-2.6165,-2.6182,-2.6505,-2.6691,-2.664,-2.6469,-2.6154,-2.5659,-2.5378,-2.5519,-2.6211,-2.6104,-2.6321,-2.7085,-2.6959,-2.675,-2.6698,-2.6578,-2.651,-2.6496,-2.6404,-2.6312,-2.6204,-2.6042,-2.5756,-2.5701,-2.5577,-2.5453,-2.5467,-2.5536,-2.555,-2.5467,-2.5647,-2.5661,-2.5481,-2.5356,-2.5007,-2.4465,-2.4279,-2.4292,-2.435,-2.4292,-2.435,-2.4279,-2.4279,-2.4292,-2.4292,-2.435,-2.435,-2.4337,-2.435,-2.4292,-2.435,-2.4292,-2.4292,-2.4279,-2.435,-2.435,-2.4337,-2.4292,-2.4176,-2.1972,-2.207,-2.2108,-2.1918,-2.1623,-2.1535,-2.1661,-2.1953,-2.2562,-2.3483,-2.4531,-2.4896,-2.5413,-2.6045,-2.6097,-2.6127,-2.6118,-2.6099,-2.6063,-2.599,-2.599,-2.5924,-2.5645,-2.4611,-2.4661,-2.5508,-2.4813,-2.5013,-2.6066,-2.6471,-2.664,-2.664,-2.6674,-2.6708,-2.6708,-2.6742,-2.6792,-2.6892,-2.6298,-2.555,-2.4662,-2.3942,-2.3294,-2.2684,-2.2659,-2.2676,-2.2676,-2.3209,-2.356,-2.371,-2.4213,-2.4624,-2.4782,-2.5422,-2.58,-2.5819,-2.6368,-2.6759,-2.6674,-2.6521,-2.633,-2.6026,-2.5791,-2.6089,-2.6825,-2.6406,-2.6502,-2.747,-2.7386,-2.7196,-2.7144,-2.7011,-2.6893,-2.6878,-2.6893,-2.6841,-2.6736,-2.6683,-2.6578,-2.6472,-2.6404,-2.6404,-2.639,-2.639,-2.6351,-2.6351,-2.639,-2.6404,-2.6404,-2.6404,-2.5946,-2.5342,-2.4951,-2.4951,-2.4908,-2.4964,-2.4964,-2.4894,-2.4951,-2.5021,-2.5007,-2.4964,-2.4908,-2.4951,-2.4951,-2.5021,-2.4964,-2.4951,-2.4951,-2.5007,-2.5007,-2.4951,-2.5021,-2.5021,-2.4724,-2.163,-2.1717,-2.1318,-2.1311,-2.1702,-2.1814,-2.1961,-2.2157,-2.2269,-2.2719,-2.3573,-2.42,-2.4858,-2.5496,-2.5547,-2.5883,-2.6383,-2.645,-2.6382,-2.626,-2.626,-2.5911,-2.5362,-2.5146,-2.4879,-2.4774,-2.5125,-2.5461,-2.5813,-2.6404,-2.6708,-2.6708,-2.6708,-2.6708,-2.6742,-2.6825,-2.6909,-2.6992,-2.7051,-2.631,-2.4859,-2.4127,-2.3453,-2.2825,-2.2825,-2.2893,-2.2893,-2.292,-2.3285,-2.391,-2.4004,-2.4341,-2.4931,-2.5618,-2.6004,-2.5976,-2.6533,-2.6826,-2.664,-2.6589,-2.6486,-2.626,-2.6082,-2.647,-2.7535,-2.7227,-2.7293,-2.7931,-2.789,-2.774,-2.769,-2.7575,-2.7524,-2.7509,-2.7437,-2.7335,-2.7284,-2.7107,-2.6951,-2.6937,-2.6855,-2.6683,-2.6721,-2.6721,-2.6669,-2.6721,-2.6721,-2.6721,-2.6736,-2.6736,-2.6721,-2.6443,-2.6283,-2.6108,-2.6054,-2.6122,-2.6014,-2.6068,-2.6122,-2.6014,-2.596,-2.6014,-2.6122,-2.5851,-2.6014,-2.6014,-2.6014,-2.6122,-2.6068,-2.596,-2.5946,-2.6054,-2.6108,-2.6068,-2.5673,-2.1421,-2.152,-2.1422,-2.1554,-2.1869,-2.202,-2.2152,-2.2254,-2.2254,-2.2468,-2.2767,-2.3059,-2.3789,-2.4884,-2.4917,-2.5291,-2.5966,-2.5983,-2.6169,-2.6488,-2.6538,-2.6404,-2.6185,-2.5729,-2.5625,-2.5936,-2.5868,-2.6053,-2.6527,-2.6852,-2.6989,-2.6989,-2.6989,-2.6989,-2.6989,-2.7038,-2.7135,-2.7279,-2.7386,-2.676,-2.5477,-2.4968,-2.4252,-2.334,-2.3247,-2.3271,-2.3253,-2.3271,-2.3364,-2.3583,-2.3576,-2.3716,-2.3981,-2.4609,-2.5142,-2.5588,-2.6499,-2.699,-2.6875,-2.6842,-2.6708,-2.6538,-2.6349,-2.6766,-2.7931,-2.7753,-2.7961,-2.8881,-2.8559,-2.8204,-2.8137,-2.8088,-2.8088,-2.8039,-2.8005,-2.8005,-2.802,-2.784,-2.769,-2.769,-2.759,-2.7473,-2.7473,-2.7423,-2.7321,-2.7255,-2.7255,-2.7255,-2.7203,-2.7203,-2.7203,-2.7255,-2.7203,-2.6982,-2.6669,-2.651,-2.6563,-2.6563,-2.651,-2.651,-2.6563,-2.6563,-2.651,-2.6563,-2.6563,-2.6563,-2.6496,-2.6563,-2.6563,-2.6563,-2.6563,-2.6549,-2.6496,-2.651,-2.6229,-2.1433,-2.1495,-2.1754,-2.1915,-2.2044,-2.218,-2.2254,-2.2338,-2.2338,-2.2338,-2.2366,-2.2366,-2.2897,-2.3846,-2.4117,-2.4594,-2.527,-2.5507,-2.5879,-2.6387,-2.659,-2.6775,-2.6808,-2.6332,-2.6444,-2.6963,-2.6633,-2.6713,-2.7241,-2.7276,-2.7276,-2.7276,-2.7276,-2.7276,-2.7276,-2.7324,-2.74,-2.7569,-2.7736,-2.724,-2.6267,-2.5824,-2.4995,-2.3692,-2.3576,-2.3576,-2.3576,-2.3594,-2.3531,-2.3458,-2.3435,-2.3435,-2.343,-2.3978,-2.4734,-2.5589,-2.667,-2.7244,-2.7198,-2.7055,-2.6925,-2.6791,-2.6624,-2.7038,-2.8073,-2.8168,-2.8625,-2.9713,-2.9393,-2.8935,-2.8605,-2.8525,-2.8477,-2.8462,-2.8477,-2.8462,-2.8477,-2.8365,-2.8317,-2.8301,-2.8171,-2.8137,-2.8103,-2.8005,-2.7875,-2.784,-2.7825,-2.784,-2.7825,-2.7825,-2.7825,-2.784,-2.789,-2.7675,-2.7152,-2.71,-2.7049,-2.6997,-2.7049,-2.7049,-2.693,-2.6945,-2.6945,-2.7049,-2.6997,-2.6997,-2.6982,-2.6982,-2.693,-2.693,-2.693,-2.693,-2.6982,-2.693,-2.693,-2.1768,-2.1899,-2.2111,-2.2168,-2.2197,-2.2254,-2.2338,-2.2377,-2.2394,-2.2432,-2.2487,-2.2487,-2.2511,-2.2643,-2.3265,-2.3896,-2.4577,-2.5253,-2.5642,-2.5845,-2.6404,-2.6792,-2.691,-2.694,-2.7053,-2.7276,-2.7299,-2.7378,-2.7526,-2.7526,-2.7496,-2.7496,-2.7526,-2.7509,-2.7539,-2.7642,-2.773,-2.7847,-2.8091,-2.7896,-2.7222,-2.6579,-2.5475,-2.4039,-2.3753,-2.3792,-2.3795,-2.3813,-2.3792,-2.3774,-2.3753,-2.3753,-2.3743,-2.4329,-2.5237,-2.6342,-2.7198,-2.7582,-2.7434,-2.7293,-2.7149,-2.707,-2.6893,-2.7316,-2.8645,-2.8653,-2.9108,-3.0336,-3.0225,-2.9821,-2.9257,-2.8997,-2.8811,-2.8795,-2.8748,-2.8732,-2.8748,-2.8795,-2.8685,-2.8701,-2.8622,-2.8494,-2.8396,-2.8348,-2.8348,-2.8348,-2.8348,-2.8348,-2.8348,-2.8348,-2.8348,-2.8348,-2.8332,-2.825,-2.789,-2.774,-2.779,-2.7725,-2.7625,-2.769,-2.7625,-2.756,-2.7575,-2.7575,-2.7509,-2.7509,-2.7575,-2.7524,-2.7458,-2.7458,-2.7408,-2.7408,-2.7357,-2.7509,-2.7369,-2.2065,-2.2163,-2.2209,-2.2254,-2.2254,-2.2282,-2.2338,-2.2405,-2.2449,-2.2542,-2.2623,-2.2632,-2.2632,-2.2667,-2.3395,-2.3989,-2.4506,-2.478,-2.5438,-2.6367,-2.6707,-2.6957,-2.7233,-2.7296,-2.7461,-2.7713,-2.7864,-2.7961,-2.8073,-2.8073,-2.8073,-2.8073,-2.8073,-2.8091,-2.8091,-2.8128,-2.8183,-2.8264,-2.8414,-2.8164,-2.758,-2.7292,-2.6644,-2.5567,-2.4525,-2.3996,-2.3996,-2.3996,-2.3976,-2.3935,-2.3935,-2.3917,-2.3985,-2.5018,-2.6033,-2.6941,-2.7646,-2.7961,-2.7893,-2.763,-2.7417,-2.7359,-2.7533,-2.7947,-2.8825,-2.9286,-2.9822,-3.0563,-3.0634,-3.0368,-3.0156,-2.9853,-2.9661,-2.9677,-2.9677,-2.9633,-2.9633,-2.9528,-2.9377,-2.9377,-2.9273,-2.9059,-2.892,-2.8826,-2.8779,-2.8622,-2.8622,-2.8622,-2.8574,-2.859,-2.8637,-2.8637,-2.8732,-2.8779,-2.8669,-2.8381,-2.825,-2.8201,-2.8152,-2.8137,-2.8088,-2.8073,-2.8073,-2.7959,-2.7959,-2.7875,-2.7825,-2.769,-2.7675,-2.766,-2.761,-2.7475,-2.756,-2.7265,-2.707,-2.2271,-2.2282,-2.2327,-2.2327,-2.2327,-2.2327,-2.2366,-2.246,-2.2542,-2.2676,-2.2816,-2.2842,-2.2868,-2.3033,-2.371,-2.4303,-2.4731,-2.4927,-2.561,-2.6597,-2.692,-2.7184,-2.7434,-2.7539,-2.7777,-2.8073,-2.8255,-2.838,-2.8458,-2.8466,-2.8466,-2.8466,-2.8466,-2.8466,-2.8466,-2.8492,-2.8518,-2.8569,-2.8662,-2.847,-2.8049,-2.7844,-2.7504,-2.6866,-2.5617,-2.4921,-2.4901,-2.4921,-2.4901,-2.4842,-2.4823,-2.4821,-2.4928,-2.5994,-2.6866,-2.7375,-2.799,-2.8335,-2.8282,-2.8025,-2.7777,-2.7677,-2.8016,-2.8561,-2.9229,-2.9746,-3.04,-3.0954,-3.1055,-3.0975,-3.0918,-3.0716,-3.0485,-3.0359,-3.0316,-3.0274,-3.0274,-3.0146,-3.0,-2.9951,-2.9821,-2.9677,-2.9499,-2.9454,-2.9409,-2.9212,-2.9196,-2.9196,-2.9196,-2.9196,-2.9196,-2.9212,-2.9348,-2.9454,-2.9454,-2.9243,-2.8889,-2.8795,-2.87,-2.8653,-2.8573,-2.8558,-2.851,-2.8398,-2.8301,-2.8171,-2.8073,-2.789,-2.781,-2.773,-2.744,-2.7214,-2.703,-2.6759,-2.6582,-2.2327,-2.2327,-2.2327,-2.2327,-2.2327,-2.2327,-2.2422,-2.2596,-2.2659,-2.2842,-2.3052,-2.3151,-2.3203,-2.3355,-2.4101,-2.4699,-2.5359,-2.5924,-2.6234,-2.6429,-2.7061,-2.7496,-2.763,-2.776,-2.7989,-2.8335,-2.851,-2.8587,-2.8612,-2.8612,-2.8612,-2.8612,-2.8612,-2.8637,-2.863,-2.8687,-2.8694,-2.8737,-2.8834,-2.8868,-2.8795,-2.8219,-2.7897,-2.7732,-2.7016,-2.6591,-2.6612,-2.6502,-2.6371,-2.6426,-2.6426,-2.6518,-2.6472,-2.7163,-2.7629,-2.7724,-2.8276,-2.8583,-2.8518,-2.8362,-2.8191,-2.822,-2.8426,-2.9015,-2.9678,-3.0228,-3.0839,-3.1387,-3.1521,-3.15,-3.1504,-3.1372,-3.1061,-3.0634,-3.0551,-3.0551,-3.0543,-3.0509,-3.045,-3.036,-3.0293,-3.0267,-3.0215,-3.013,-3.0087,-3.006,-3.006,-3.006,-3.0,-3.0,-3.013,-3.013,-3.0087,-3.0044,-3.0146,-3.0146,-2.9738,-2.9364,-2.9227,-2.9136,-2.909,-2.9044,-2.8982,-2.8889,-2.8669,-2.8527,-2.84,-2.824,-2.7941,-2.7786,-2.7352,-2.6892,-2.668,-2.6455,-2.6122,-2.2327,-2.2327,-2.2327,-2.2327,-2.2327,-2.2327,-2.2422,-2.2605,-2.2712,-2.297,-2.3265,-2.3383,-2.3761,-2.4402,-2.5135,-2.5854,-2.6613,-2.7326,-2.7533,-2.7309,-2.7507,-2.7806,-2.8035,-2.8156,-2.8396,-2.8669,-2.881,-2.8876,-2.8876,-2.8876,-2.8881,-2.8876,-2.8858,-2.89,-2.8876,-2.8881,-2.8905,-2.8905,-2.8929,-2.8952,-2.8952,-2.8737,-2.8631,-2.8613,-2.8393,-2.8264,-2.8187,-2.72,-2.6649,-2.6667,-2.6612,-2.683,-2.7325,-2.7636,-2.7999,-2.8466,-2.8675,-2.8834,-2.8761,-2.8605,-2.8622,-2.9024,-2.942,-2.9983,-3.0623,-3.1168,-3.1582,-3.1842,-3.1841,-3.1841,-3.1785,-3.1748,-3.1507,-3.11,-3.1015,-3.0975,-3.0935,-3.0888,-3.0814,-3.0723,-3.0699,-3.0692,-3.0568,-3.0526,-3.0526,-3.0443,-3.0443,-3.0443,-3.0401,-3.0443,-3.0351,-3.0276,-3.0393,-3.0526,-3.0526,-3.0568,-3.0384,-3.0027,-2.9897,-2.9722,-2.9589,-2.9528,-2.9512,-2.9377,-2.9104,-2.8903,-2.8748,-2.8514,-2.8155,-2.7643,-2.7057,-2.675,-2.6489,-2.6137,-2.5753,-2.2338,-2.2338,-2.2366,-2.2394,-2.2349,-2.2394,-2.2504,-2.2685,-2.2799,-2.3102,-2.343,-2.3585,-2.4109,-2.5,-2.5773,-2.6525,-2.7319,-2.8106,-2.8335,-2.8083,-2.8,-2.8156,-2.8406,-2.8543,-2.8669,-2.8881,-2.8952,-2.8975,-2.8975,-2.8975,-2.8975,-2.8975,-2.8975,-2.8975,-2.8975,-2.8975,-2.8975,-2.8975,-2.8975,-2.8975,-2.8975,-2.8975,-2.8975,-2.8975,-2.8975,-2.8975,-2.8902,-2.8007,-2.7493,-2.7493,-2.7493,-2.7769,-2.8209,-2.8264,-2.8484,-2.8828,-2.8952,-2.8947,-2.8929,-2.8743,-2.8801,-2.9304,-2.9926,-3.0472,-3.102,-3.1683,-3.2231,-3.2265,-3.2248,-3.2231,-3.2214,-3.2109,-3.193,-3.1711,-3.1466,-3.1346,-3.1263,-3.1168,-3.1055,-3.1015,-3.1015,-3.0952,-3.0912,-3.0912,-3.0871,-3.0773,-3.0773,-3.0773,-3.0773,-3.0773,-3.0683,-3.0666,-3.0781,-3.0855,-3.0895,-3.0895,-3.0935,-3.0733,-3.051,-3.03,-3.0172,-3.013,-3.007,-2.9924,-2.9733,-2.9279,-2.9111,-2.8602,-2.8215,-2.7532,-2.6854,-2.6514,-2.619,-2.5664,-2.5259,-2.2405,-2.2405,-2.2487,-2.2515,-2.2515,-2.2515,-2.2632,-2.2816,-2.297,-2.323,-2.3571,-2.3887,-2.4429,-2.5259,-2.6132,-2.6949,-2.7538,-2.8257,-2.8662,-2.8637,-2.8569,-2.8543,-2.8637,-2.8767,-2.8863,-2.8929,-2.8994,-2.8975,-2.8975,-2.8975,-2.8975,-2.8975,-2.8975,-2.8975,-2.8975,-2.8975,-2.8975,-2.8975,-2.8975,-2.8975,-2.8975,-2.8975,-2.8975,-2.8975,-2.8975,-2.8975,-2.8938,-2.8833,-2.8851,-2.8962,-2.8815,-2.8773,-2.8962,-2.8975,-2.8962,-2.8975,-2.8975,-2.8975,-2.8975,-2.8905,-2.8943,-2.9162,-3.0071,-3.0751,-3.1011,-3.2001,-3.2719,-3.2781,-3.2702,-3.2687,-3.2716,-3.2553,-3.2386,-3.2283,-3.1894,-3.1576,-3.1375,-3.1263,-3.1252,-3.123,-3.123,-3.119,-3.1173,-3.1173,-3.1134,-3.1151,-3.1112,-3.1112,-3.1112,-3.1072,-3.1151,-3.1151,-3.1072,-3.1072,-3.1015,-3.1055,-3.1055,-3.1015,-3.0855,-3.0773,-3.0609,-3.0609,-3.0369,-3.0228,-3.007,-2.9716,-2.9132,-2.8549,-2.8026,-2.7492,-2.6903,-2.6309,-2.5886,-2.5465,-2.5322,-2.2515,-2.2569,-2.2659,-2.2703,-2.2659,-2.2685,-2.2816,-2.297,-2.3077,-2.3365,-2.3772,-2.4465,-2.5266,-2.6216,-2.7024,-2.7826,-2.8424,-2.8753,-2.89,-2.8923,-2.8881,-2.8858,-2.8839,-2.8905,-2.8975,-2.8975,-2.8994,-2.8975,-2.8975,-2.8975,-2.8975,-2.8975,-2.8975,-2.8975,-2.8975,-2.8975,-2.8975,-2.8975,-2.8975,-2.8975,-2.8975,-2.8975,-2.8975,-2.8975,-2.8975,-2.8975,-2.8975,-2.8975,-2.8975,-2.8975,-2.8975,-2.8975,-2.8975,-2.8975,-2.8975,-2.8975,-2.8975,-2.8975,-2.8975,-2.8929,-2.9161,-2.9734,-3.0457,-3.1238,-3.1844,-3.2661,-3.3154,-3.3238,-3.3196,-3.3165,-3.3081,-3.3019,-3.2894,-3.2651,-3.2231,-3.1783,-3.1589,-3.1496,-3.1466,-3.1428,-3.1445,-3.1368,-3.1312,-3.1274,-3.1291,-3.1213,-3.119,-3.119,-3.119,-3.119,-3.119,-3.119,-3.1151,-3.119,-3.119,-3.119,-3.119,-3.1151,-3.1112,-3.1072,-3.0975,-3.0895,-3.0526,-3.0168,-3.0002,-2.9689,-2.882,-2.802,-2.7652,-2.7322,-2.6738,-2.613,-2.6,-2.5724,-2.574,-2.2649,-2.2721,-2.2902,-2.297,-2.297,-2.302,-2.307,-2.3168,-2.3289,-2.37,-2.4292,-2.4817,-2.5838,-2.7068,-2.7585,-2.8246,-2.8943,-2.8975,-2.8994,-2.8994,-2.8975,-2.8952,-2.8952,-2.8994,-2.8975,-2.8975,-2.8975,-2.8975,-2.8975,-2.8975,-2.8975,-2.8975,-2.8975,-2.8975,-2.8975,-2.8975,-2.8975,-2.8975,-2.8975,-2.8975,-2.8975,-2.8975,-2.8975,-2.8975,-2.8975,-2.8975,-2.8975,-2.8975,-2.8975,-2.8975,-2.8975,-2.8975,-2.8975,-2.8975,-2.8975,-2.8975,-2.8975,-2.8975,-2.8994,-2.897,-2.9148,-2.9734,-3.0513,-3.1318,-3.1928,-3.2811,-3.3462,-3.3538,-3.3491,-3.3462,-3.3397,-3.3368,-3.322,-3.2988,-3.2651,-3.2301,-3.1944,-3.1819,-3.1748,-3.1711,-3.1654,-3.1596,-3.1449,-3.1428,-3.1351,-3.1274,-3.1235,-3.1213,-3.119,-3.119,-3.119,-3.1173,-3.119,-3.119,-3.119,-3.119,-3.119,-3.119,-3.119,-3.119,-3.1033,-3.0977,-3.0622,-3.0157,-2.9945,-2.9432,-2.844,-2.7701,-2.7464,-2.7022,-2.6455,-2.622,-2.6151,-2.6046,-2.6063,-2.2816,-2.2952,-2.3168,-2.3289,-2.3336,-2.3448,-2.3579,-2.3572,-2.3856,-2.4379,-2.5081,-2.5332,-2.6392,-2.7787,-2.7952,-2.8356,-2.8975,-2.8975,-2.8975,-2.8975,-2.8975,-2.8975,-2.8975,-2.8994,-2.8975,-2.8975,-2.8975,-2.8975,-2.8975,-2.8975,-2.8975,-2.8975,-2.8975,-2.8975,-2.8975,-2.8975,-2.8975,-2.8975,-2.8975,-2.8975,-2.8975,-2.8975,-2.8975,-2.8975,-2.8975,-2.8975,-2.8975,-2.8975,-2.8975,-2.8975,-2.8975,-2.8975,-2.8975,-2.8975,-2.8975,-2.8975,-2.8975,-2.8975,-2.8975,-2.8994,-2.9085,-2.947,-3.0576,-3.1356,-3.1814,-3.2858,-3.3661,-3.3671,-3.3661,-3.3661,-3.3661,-3.3605,-3.3444,-3.328,-3.3202,-3.2957,-3.2537,-3.2231,-3.2039,-3.1966,-3.1966,-3.1875,-3.1765,-3.1654,-3.1617,-3.1524,-3.1466,-3.1406,-3.1385,-3.1329,-3.1291,-3.1196,-3.1196,-3.123,-3.119,-3.119,-3.119,-3.119,-3.119,-3.114,-3.0852,-3.0695,-3.0514,-3.0154,-2.94,-2.8659,-2.7837,-2.7365,-2.7178,-2.6924,-2.6519,-2.6468,-2.6452,-2.6365,-2.6314,-2.3045,-2.3223,-2.3481,-2.3576,-2.3647,-2.4249,-2.4541,-2.4617,-2.5298,-2.5701,-2.6176,-2.6812,-2.7354,-2.786,-2.8429,-2.8847,-2.8975,-2.8975,-2.8975,-2.8975,-2.8975,-2.8975,-2.8975,-2.8975,-2.8975,-2.8975,-2.8975,-2.8975,-2.8975,-2.8975,-2.8975,-2.8975,-2.8975,-2.8975,-2.8975,-2.8975,-2.8975,-2.8975,-2.8975,-2.8975,-2.8975,-2.8975,-2.8975,-2.8975,-2.8975,-2.8975,-2.8975,-2.8975,-2.8975,-2.8975,-2.8975,-2.8975,-2.8975,-2.8975,-2.8975,-2.8975,-2.8975,-2.8975,-2.8994,-2.909,-2.9292,-2.9916,-3.0809,-3.1653,-3.2349,-3.313,-3.3698,-3.378,-3.378,-3.3753,-3.3753,-3.3698,-3.3643,-3.3559,-3.3473,-3.3386,-3.319,-3.2844,-3.2586,-3.247,-3.242,-3.2386,-3.2179,-3.2109,-3.2002,-3.1821,-3.1728,-3.1634,-3.1596,-3.1521,-3.1411,-3.1317,-3.1274,-3.1291,-3.123,-3.123,-3.119,-3.1089,-3.1038,-3.0937,-3.0666,-3.0108,-2.977,-2.9245,-2.86,-2.7909,-2.7334,-2.7046,-2.6877,-2.6708,-2.6624,-2.6607,-2.6572,-2.6556,-2.6556,-2.3199,-2.3476,-2.3642,-2.3988,-2.4393,-2.4831,-2.5252,-2.5615,-2.6077,-2.6581,-2.7013,-2.7515,-2.7944,-2.8393,-2.8815,-2.8975,-2.8975,-2.8975,-2.8975,-2.8975,-2.8975,-2.8975,-2.8975,-2.8975,-2.8975,-2.8975,-2.8975,-2.8975,-2.8975,-2.8975,-2.8975,-2.8975,-2.8998,-2.8975,-2.8975,-2.8998,-2.8975,-2.8975,-2.8975,-2.8975,-2.8975,-2.8975,-2.8975,-2.8975,-2.8975,-2.8975,-2.8975,-2.8975,-2.8975,-2.8975,-2.8975,-2.8975,-2.8975,-2.8975,-2.8975,-2.8975,-2.8975,-2.8975,-2.9012,-2.9384,-2.9769,-3.021,-3.1256,-3.2008,-3.2669,-3.3348,-3.3752,-3.3807,-3.3807,-3.3807,-3.3788,-3.378,-3.3753,-3.3753,-3.3671,-3.3615,-3.353,-3.328,-3.3037,-3.2912,-3.288,-3.2734,-3.2636,-3.2537,-3.2335,-3.2162,-3.2056,-3.2002,-3.1821,-3.1748,-3.1603,-3.149,-3.1411,-3.1368,-3.1308,-3.123,-3.119,-3.1004,-3.0768,-3.0581,-3.0328,-2.9617,-2.8873,-2.8484,-2.8146,-2.7621,-2.7097,-2.6843,-2.6708,-2.6674,-2.6674,-2.6708,-2.6708,-2.6624,-2.6624,-2.3342,-2.3638,-2.3774,-2.439,-2.5184,-2.5385,-2.5896,-2.6575,-2.6735,-2.7346,-2.7793,-2.7903,-2.8366,-2.8865,-2.898,-2.8975,-2.8975,-2.8975,-2.8975,-2.8975,-2.8975,-2.8975,-2.8975,-2.8975,-2.8975,-2.8975,-2.8975,-2.8975,-2.8975,-2.8975,-2.8975,-2.8998,-2.9017,-2.904,-2.8998,-2.904,-2.904,-2.9021,-2.9021,-2.8998,-2.8998,-2.8975,-2.8975,-2.8975,-2.8975,-2.8975,-2.8975,-2.8975,-2.8975,-2.8975,-2.8975,-2.8975,-2.8975,-2.8975,-2.8975,-2.8975,-2.8975,-2.9104,-2.936,-2.9824,-3.0246,-3.0503,-3.1715,-3.2614,-3.2963,-3.3385,-3.3715,-3.3807,-3.3807,-3.3807,-3.3807,-3.3807,-3.3807,-3.3807,-3.3807,-3.378,-3.3698,-3.3549,-3.3386,-3.3298,-3.322,-3.3129,-3.3019,-3.2894,-3.2702,-3.2504,-3.2437,-3.2335,-3.2197,-3.2056,-3.195,-3.177,-3.1674,-3.1428,-3.1312,-3.1291,-3.1252,-3.097,-3.0649,-3.0192,-2.9871,-2.9059,-2.8383,-2.8215,-2.7842,-2.7283,-2.6945,-2.6793,-2.6708,-2.6708,-2.6708,-2.6708,-2.6708,-2.6708,-2.6708,-2.3531,-2.371,-2.3955,-2.4569,-2.5399,-2.6059,-2.6771,-2.76,-2.8164,-2.8627,-2.8718,-2.8792,-2.8792,-2.8975,-2.8975,-2.8975,-2.8975,-2.8975,-2.8975,-2.8975,-2.8975,-2.8975,-2.8975,-2.8975,-2.8975,-2.8975,-2.8975,-2.8975,-2.8975,-2.8975,-2.8975,-2.9017,-2.9062,-2.9067,-2.9108,-2.913,-2.913,-2.9108,-2.9085,-2.9044,-2.904,-2.9017,-2.9017,-2.9017,-2.8975,-2.8975,-2.8975,-2.8975,-2.8975,-2.8975,-2.8975,-2.8975,-2.8975,-2.8975,-2.8975,-2.8975,-2.8994,-2.9214,-2.9806,-3.0118,-3.0962,-3.1861,-3.2522,-3.2981,-3.3421,-3.3678,-3.3788,-3.3807,-3.3807,-3.3807,-3.3807,-3.3807,-3.3807,-3.3807,-3.3807,-3.3807,-3.378,-3.3726,-3.3661,-3.353,-3.3502,-3.3502,-3.3357,-3.325,-3.3099,-3.2975,-3.2894,-3.2798,-3.2651,-3.2519,-3.2419,-3.2197,-3.1966,-3.1637,-3.1372,-3.1351,-3.1257,-3.0992,-3.0548,-2.9786,-2.9296,-2.8484,-2.7943,-2.7741,-2.7453,-2.6979,-2.6759,-2.6708,-2.6708,-2.6708,-2.6708,-2.6708,-2.6708,-2.6708,-2.6708,-2.362,-2.3834,-2.4016,-2.4591,-2.5438,-2.6264,-2.7053,-2.7842,-2.865,-2.8975,-2.8975,-2.8975,-2.8975,-2.8975,-2.8975,-2.8975,-2.8975,-2.8975,-2.8975,-2.8975,-2.8975,-2.8975,-2.8975,-2.8975,-2.8975,-2.8975,-2.8975,-2.8975,-2.8975,-2.8975,-2.8998,-2.9017,-2.9062,-2.9108,-2.913,-2.9175,-2.9197,-2.9175,-2.9134,-2.9134,-2.9108,-2.9085,-2.904,-2.9017,-2.8975,-2.8975,-2.8975,-2.8975,-2.8975,-2.8975,-2.8975,-2.8975,-2.8975,-2.8975,-2.8975,-2.8975,-2.8994,-2.9342,-3.0136,-3.054,-3.1403,-3.2394,-3.2944,-3.3366,-3.3678,-3.3788,-3.3807,-3.3807,-3.3807,-3.3807,-3.3807,-3.3807,-3.3807,-3.3807,-3.3807,-3.3807,-3.3807,-3.3807,-3.3753,-3.3716,-3.3698,-3.3643,-3.3633,-3.3549,-3.3491,-3.3404,-3.3327,-3.322,-3.3081,-3.2957,-3.2798,-3.257,-3.2283,-3.193,-3.1637,-3.1504,-3.1253,-3.0934,-3.0387,-2.9641,-2.8859,-2.8027,-2.752,-2.7233,-2.6877,-2.6708,-2.6708,-2.6708,-2.6708,-2.6708,-2.6708,-2.6708,-2.6708,-2.6708,-2.6708,-2.3685,-2.3917,-2.4074,-2.4629,-2.5438,-2.6264,-2.7053,-2.7842,-2.8668,-2.8975,-2.8975,-2.8975,-2.8975,-2.8975,-2.8975,-2.8975,-2.8975,-2.8975,-2.8975,-2.8975,-2.8975,-2.8975,-2.8975,-2.8975,-2.8975,-2.8975,-2.8975,-2.8975,-2.8975,-2.9017,-2.904,-2.9044,-2.9108,-2.9156,-2.9181,-2.9286,-2.9265,-2.9265,-2.9243,-2.9222,-2.9178,-2.913,-2.9067,-2.9017,-2.8975,-2.8975,-2.8975,-2.8975,-2.8975,-2.8975,-2.8975,-2.8975,-2.8975,-2.8975,-2.8975,-2.8975,-2.8975,-2.9434,-3.0136,-3.0925,-3.1659,-3.254,-3.3348,-3.3697,-3.3788,-3.3807,-3.3807,-3.3807,-3.3807,-3.3807,-3.3807,-3.3807,-3.3807,-3.3807,-3.3807,-3.3807,-3.3807,-3.3807,-3.3807,-3.378,-3.3807,-3.378,-3.3716,-3.3698,-3.3615,-3.3615,-3.353,-3.3502,-3.3397,-3.3298,-3.3129,-3.2862,-3.257,-3.2249,-3.1984,-3.1783,-3.1394,-3.0882,-3.0145,-2.9291,-2.8489,-2.7673,-2.7284,-2.6928,-2.6826,-2.6708,-2.6708,-2.6708,-2.6708,-2.6708,-2.6708,-2.6708,-2.6708,-2.6708,-2.6708,-2.3774,-2.3917,-2.4132,-2.4649,-2.5439,-2.6245,-2.7053,-2.7805,-2.8608,-2.8975,-2.8975,-2.8975,-2.8975,-2.8975,-2.8975,-2.8975,-2.8975,-2.8975,-2.8975,-2.8975,-2.8975,-2.8975,-2.8975,-2.8975,-2.8975,-2.8998,-2.8998,-2.8975,-2.9021,-2.9067,-2.9089,-2.9112,-2.9225,-2.9312,-2.9353,-2.9451,-2.953,-2.9471,-2.9412,-2.9289,-2.9138,-2.913,-2.9085,-2.904,-2.8998,-2.9017,-2.8998,-2.8975,-2.8975,-2.8975,-2.8975,-2.8975,-2.8975,-2.8975,-2.8975,-2.8975,-2.9067,-2.9365,-3.0155,-3.0944,-3.1751,-3.2559,-3.3348,-3.3715,-3.3807,-3.3807,-3.3807,-3.3807,-3.3807,-3.3807,-3.3807,-3.3807,-3.3807,-3.3807,-3.3807,-3.3807,-3.3807,-3.3807,-3.3807,-3.3807,-3.3807,-3.3807,-3.378,-3.378,-3.3762,-3.3762,-3.3753,-3.3698,-3.3643,-3.353,-3.3386,-3.3129,-3.2894,-3.2588,-3.2177,-3.2004,-3.1443,-3.0846,-2.9882,-2.899,-2.8339,-2.7641,-2.7097,-2.6826,-2.6742,-2.6708,-2.6708,-2.6708,-2.6708,-2.6708,-2.6708,-2.6708,-2.6708,-2.6708,-2.6708,-2.3896,-2.4016,-2.4151,-2.4392,-2.4869,-2.6062,-2.6796,-2.7328,-2.8425,-2.8975,-2.8975,-2.8975,-2.8975,-2.8975,-2.8975,-2.8975,-2.8975,-2.8975,-2.8975,-2.8975,-2.8975,-2.8975,-2.8975,-2.8975,-2.8975,-2.9017,-2.904,-2.9089,-2.9093,-2.9115,-2.9178,-2.9246,-2.9351,-2.9435,-2.9532,-2.9626,-2.9626,-2.9589,-2.9531,-2.9394,-2.9249,-2.9225,-2.916,-2.9044,-2.9044,-2.904,-2.9017,-2.8975,-2.8975,-2.8975,-2.8975,-2.8975,-2.8975,-2.8975,-2.8975,-2.8975,-2.8975,-2.9402,-3.0155,-3.0962,-3.1751,-3.2559,-3.3293,-3.3788,-3.3807,-3.3807,-3.3807,-3.3807,-3.3807,-3.3807,-3.3807,-3.3807,-3.3807,-3.3807,-3.3807,-3.3807,-3.3807,-3.3807,-3.3807,-3.3807,-3.3807,-3.3807,-3.3807,-3.3807,-3.3807,-3.3807,-3.378,-3.3753,-3.3726,-3.3671,-3.353,-3.3357,-3.3129,-3.2943,-3.2456,-3.2117,-3.1461,-3.075,-2.9523,-2.8765,-2.8287,-2.769,-2.7129,-2.6808,-2.6742,-2.6742,-2.6708,-2.6708,-2.6708,-2.6708,-2.6708,-2.6708,-2.6708,-2.6708,-2.6708,-2.4016,-2.4132,-2.441,-2.4502,-2.4649,-2.6209,-2.6924,-2.709,-2.8393,-2.8975,-2.8975,-2.8975,-2.8975,-2.8975,-2.8975,-2.8975,-2.8975,-2.8975,-2.8975,-2.8975,-2.8975,-2.8975,-2.9017,-2.9017,-2.904,-2.904,-2.913,-2.9178,-2.9246,-2.927,-2.9351,-2.9394,-2.9532,-2.9608,-2.9698,-2.977,-2.9805,-2.9754,-2.9683,-2.9531,-2.9373,-2.9312,-2.9246,-2.916,-2.9112,-2.9085,-2.904,-2.9017,-2.8975,-2.8975,-2.8975,-2.8975,-2.8975,-2.8975,-2.92,-2.931,-2.9415,-2.9787,-3.0467,-3.1164,-3.1788,-3.254,-3.3275,-3.3807,-3.3807,-3.3807,-3.3807,-3.3807,-3.3807,-3.3807,-3.3807,-3.3807,-3.3807,-3.3807,-3.3807,-3.3807,-3.3807,-3.3807,-3.3807,-3.3807,-3.3807,-3.3807,-3.3807,-3.3807,-3.3807,-3.3807,-3.3807,-3.3807,-3.378,-3.3753,-3.3671,-3.3502,-3.335,-3.3076,-3.2499,-3.1996,-3.1416,-3.0589,-2.9365,-2.8511,-2.8019,-2.7599,-2.7093,-2.6875,-2.6775,-2.6742,-2.6708,-2.6708,-2.6708,-2.6708,-2.6708,-2.6708,-2.6708,-2.6708,-2.6708,-2.4113,-2.4263,-2.4997,-2.5273,-2.5403,-2.7056,-2.7695,-2.7677,-2.8613,-2.8975,-2.8975,-2.8975,-2.8975,-2.8975,-2.8975,-2.8975,-2.8975,-2.8975,-2.8975,-2.8975,-2.8975,-2.9017,-2.904,-2.9062,-2.9089,-2.9112,-2.9222,-2.9328,-2.9412,-2.9532,-2.957,-2.9626,-2.9735,-2.9855,-2.9921,-2.9988,-2.9975,-2.9893,-2.9792,-2.9664,-2.9512,-2.9394,-2.9312,-2.9265,-2.9175,-2.9108,-2.9085,-2.9021,-2.8975,-2.8994,-2.9145,-2.9159,-2.9214,-2.9347,-2.9659,-2.9989,-3.0118,-3.054,-3.1182,-3.1494,-3.1843,-3.2577,-3.3293,-3.3807,-3.3807,-3.3807,-3.3807,-3.3807,-3.3807,-3.3807,-3.3807,-3.3807,-3.3807,-3.3807,-3.3807,-3.3807,-3.3807,-3.3807,-3.3807,-3.3807,-3.3807,-3.3807,-3.3807,-3.3807,-3.3807,-3.3807,-3.3807,-3.3807,-3.3807,-3.378,-3.3753,-3.3652,-3.3542,-3.311,-3.2397,-3.1755,-3.0987,-3.022,-2.9207,-2.8403,-2.7788,-2.7376,-2.712,-2.6925,-2.6825,-2.6742,-2.6708,-2.6708,-2.6708,-2.6708,-2.6708,-2.6708,-2.6708,-2.6708,-2.6708,-2.4151,-2.4318,-2.5585,-2.586,-2.5531,-2.7108,-2.7805,-2.7934,-2.865,-2.8975,-2.8975,-2.8975,-2.8975,-2.8975,-2.8975,-2.8975,-2.8975,-2.8975,-2.8975,-2.8975,-2.9017,-2.9017,-2.9062,-2.9134,-2.9181,-2.9251,-2.9392,-2.9532,-2.9604,-2.975,-2.9872,-2.9905,-2.9953,-3.0034,-3.0109,-3.0142,-3.0083,-3.0022,-2.9926,-2.9825,-2.9719,-2.9589,-2.9493,-2.9351,-2.9283,-2.9156,-2.9089,-2.904,-2.9017,-2.9163,-2.9531,-2.9677,-2.9824,-3.0118,-3.0503,-3.0852,-3.0925,-3.1347,-3.1953,-3.2192,-3.2522,-3.3164,-3.3642,-3.3807,-3.3807,-3.3807,-3.3807,-3.3807,-3.3807,-3.3807,-3.3807,-3.3807,-3.3807,-3.3807,-3.3807,-3.3807,-3.3807,-3.3807,-3.3807,-3.3807,-3.3807,-3.3807,-3.3807,-3.3807,-3.3807,-3.3807,-3.3807,-3.3807,-3.3788,-3.3678,-3.3597,-3.335,-3.3186,-3.2821,-3.2111,-3.1338,-3.0523,-2.9764,-2.9024,-2.8415,-2.7801,-2.75,-2.7247,-2.7023,-2.6859,-2.6808,-2.6725,-2.6691,-2.6708,-2.6691,-2.6691,-2.6708,-2.6708,-2.6708,-2.6708,-2.4151,-2.4355,-2.5658,-2.6062,-2.597,-2.7475,-2.8154,-2.8264,-2.8737,-2.8975,-2.8975,-2.8975,-2.8975,-2.8975,-2.8975,-2.8975,-2.8975,-2.8975,-2.8975,-2.8975,-2.8998,-2.904,-2.9112,-2.9181,-2.9272,-2.9397,-2.9551,-2.9678,-2.9813,-2.9965,-3.0045,-3.0109,-3.0152,-3.0194,-3.0207,-3.0194,-3.0171,-3.0098,-3.0038,-2.9959,-2.9823,-2.9717,-2.9608,-2.9526,-2.9567,-2.9662,-2.9701,-2.9779,-2.9916,-3.0044,-3.0265,-3.0522,-3.0742,-3.1035,-3.1476,-3.1678,-3.1843,-3.2137,-3.2706,-3.3036,-3.322,-3.3642,-3.3752,-3.3807,-3.3807,-3.3807,-3.3807,-3.3807,-3.3807,-3.3807,-3.3807,-3.3807,-3.3807,-3.3807,-3.3807,-3.3807,-3.3807,-3.3807,-3.3807,-3.3807,-3.3807,-3.3807,-3.3807,-3.3807,-3.3807,-3.3807,-3.3807,-3.3788,-3.3733,-3.355,-3.3256,-3.2955,-3.2617,-3.2206,-3.1741,-3.0951,-3.0199,-2.9445,-2.8819,-2.8433,-2.795,-2.7659,-2.7404,-2.7215,-2.7038,-2.6858,-2.6825,-2.6842,-2.6775,-2.6691,-2.6691,-2.6708,-2.6708,-2.6708,-2.6708,-2.4208,-2.4281,-2.5127,-2.586,-2.6631,-2.8242,-2.8883,-2.8851,-2.8938,-2.8975,-2.8975,-2.8975,-2.8975,-2.8975,-2.8975,-2.8975,-2.8975,-2.8975,-2.8975,-2.8975,-2.8998,-2.904,-2.9115,-2.9228,-2.9375,-2.9532,-2.9698,-2.9888,-2.9984,-3.0109,-3.0194,-3.0247,-3.0273,-3.0279,-3.0273,-3.0228,-3.018,-3.0109,-3.0053,-2.9972,-2.9872,-2.9735,-2.9645,-2.9847,-3.0033,-3.0161,-3.0406,-3.068,-3.0815,-3.0944,-3.1182,-3.1366,-3.1439,-3.1593,-3.2015,-3.2522,-3.2577,-3.2963,-3.3623,-3.3715,-3.3752,-3.377,-3.3807,-3.3807,-3.3807,-3.3807,-3.3807,-3.3807,-3.3807,-3.3807,-3.3807,-3.3807,-3.3807,-3.3807,-3.3807,-3.3807,-3.3807,-3.3807,-3.3807,-3.3807,-3.3807,-3.3807,-3.3807,-3.3807,-3.3807,-3.3807,-3.3807,-3.3752,-3.3605,-3.333,-3.2944,-3.2375,-3.1946,-3.1469,-3.1004,-3.0516,-2.9838,-2.9132,-2.8674,-2.8406,-2.8101,-2.7818,-2.7582,-2.7417,-2.7261,-2.7103,-2.7038,-2.7007,-2.6892,-2.6775,-2.6742,-2.6708,-2.6708,-2.6708,-2.6708,-2.419,-2.4263,-2.5072,-2.586,-2.6704,-2.7732,-2.8503,-2.8962,-2.8975,-2.8975,-2.8975,-2.8975,-2.8975,-2.8975,-2.8975,-2.8975,-2.8975,-2.8975,-2.8975,-2.8975,-2.8975,-2.9108,-2.92,-2.9312,-2.9493,-2.9698,-2.9886,-3.003,-3.0152,-3.0221,-3.0273,-3.0311,-3.0336,-3.0336,-3.0304,-3.0267,-3.0241,-3.018,-3.0142,-3.0083,-2.9956,-2.9863,-2.9945,-3.0297,-3.0516,-3.0766,-3.112,-3.147,-3.1586,-3.1678,-3.1898,-3.2192,-3.2327,-3.2493,-3.3077,-3.3408,-3.3471,-3.3582,-3.3831,-3.3797,-3.3807,-3.3807,-3.3807,-3.3807,-3.3807,-3.3807,-3.3807,-3.3807,-3.3807,-3.3807,-3.3807,-3.3807,-3.3807,-3.3807,-3.3807,-3.3807,-3.3807,-3.3807,-3.3807,-3.3807,-3.3807,-3.3807,-3.3807,-3.377,-3.3752,-3.3623,-3.3587,-3.3311,-3.3109,-3.2871,-3.2522,-3.1751,-3.1201,-3.0705,-3.0246,-2.9898,-2.9617,-2.9077,-2.8755,-2.8543,-2.8291,-2.8017,-2.7829,-2.7672,-2.7509,-2.7373,-2.7279,-2.7152,-2.6975,-2.6876,-2.6808,-2.6742,-2.6708,-2.6708,-2.6708,-2.419,-2.4263,-2.474,-2.5621,-2.6631,-2.7457,-2.8264,-2.8883,-2.8975,-2.8975,-2.8975,-2.8975,-2.8975,-2.8975,-2.8975,-2.8975,-2.8975,-2.8975,-2.8975,-2.8975,-2.8975,-2.9108,-2.9243,-2.9392,-2.9589,-2.982,-3.0015,-3.0171,-3.0228,-3.0311,-3.0336,-3.0355,-3.0386,-3.0348,-3.0336,-3.0304,-3.0267,-3.0221,-3.0185,-3.0304,-3.0316,-3.0355,-3.0471,-3.0945,-3.1292,-3.1518,-3.1869,-3.2077,-3.221,-3.2357,-3.2632,-3.2999,-3.3227,-3.3474,-3.3895,-3.3921,-3.3921,-3.3928,-3.3895,-3.3815,-3.3807,-3.3807,-3.3807,-3.3807,-3.3807,-3.3807,-3.3807,-3.3807,-3.3807,-3.3807,-3.3807,-3.3807,-3.3807,-3.3807,-3.3807,-3.3807,-3.3807,-3.3807,-3.3807,-3.3807,-3.3807,-3.3807,-3.3788,-3.3733,-3.3678,-3.3513,-3.3348,-3.2963,-3.2522,-3.2173,-3.1825,-3.1109,-3.0448,-2.9989,-2.9659,-2.942,-2.9153,-2.8923,-2.8791,-2.8669,-2.8518,-2.8282,-2.8101,-2.7943,-2.7847,-2.7719,-2.7496,-2.7341,-2.7184,-2.7055,-2.6973,-2.6858,-2.6742,-2.6725,-2.6725,-2.419,-2.419,-2.419,-2.5162,-2.6576,-2.753,-2.8356,-2.8998,-2.8998,-2.8998,-2.8975,-2.9017,-2.8975,-2.8975,-2.8975,-2.8975,-2.8975,-2.8975,-2.8975,-2.8975,-2.8975,-2.913,-2.9283,-2.9431,-2.9626,-2.9891,-3.0083,-3.018,-3.0311,-3.0617,-3.0629,-3.0609,-3.0821,-3.0879,-3.0859,-3.0835,-3.0708,-3.0603,-3.0496,-3.0734,-3.0989,-3.096,-3.1254,-3.1715,-3.2144,-3.2435,-3.2783,-3.3099,-3.3421,-3.3587,-3.3697,-3.3752,-3.3797,-3.3868,-3.3895,-3.3921,-3.3921,-3.3921,-3.3895,-3.3842,-3.3807,-3.3807,-3.3807,-3.3807,-3.3807,-3.3807,-3.3807,-3.3807,-3.3807,-3.3807,-3.3807,-3.3807,-3.3807,-3.3807,-3.3807,-3.3807,-3.3807,-3.3807,-3.3807,-3.3807,-3.3807,-3.3807,-3.3752,-3.3697,-3.333,-3.2944,-3.2632,-3.2137,-3.1678,-3.1127,-3.076,-3.032,-2.9732,-2.9274,-2.9035,-2.909,-2.9049,-2.8929,-2.8881,-2.8761,-2.8637,-2.8562,-2.8396,-2.8291,-2.8255,-2.8109,-2.7836,-2.763,-2.7417,-2.7307,-2.7213,-2.7021,-2.6891,-2.6825,-2.6825,-2.419,-2.419,-2.419,-2.5126,-2.6686,-2.8107,-2.8887,-2.9134,-2.9108,-2.9067,-2.9085,-2.9017,-2.8975,-2.8975,-2.8975,-2.8975,-2.8975,-2.8975,-2.8975,-2.8975,-2.8998,-2.913,-2.9283,-2.9411,-2.9626,-2.9839,-3.0049,-3.0199,-3.0452,-3.0828,-3.1275,-3.1371,-3.1718,-3.1948,-3.2032,-3.2122,-3.1673,-3.1283,-3.1096,-3.1393,-3.1731,-3.1749,-3.2086,-3.2497,-3.273,-3.3018,-3.3419,-3.3613,-3.3807,-3.3807,-3.3807,-3.3807,-3.3807,-3.3895,-3.3998,-3.4099,-3.4049,-3.3954,-3.3947,-3.3887,-3.3807,-3.3807,-3.3807,-3.3807,-3.3807,-3.3807,-3.3807,-3.3807,-3.3807,-3.3807,-3.3807,-3.3807,-3.3807,-3.3807,-3.3807,-3.3807,-3.3807,-3.3807,-3.3807,-3.3807,-3.3807,-3.3807,-3.3752,-3.3256,-3.2852,-3.2394,-3.1898,-3.1366,-3.0889,-3.0356,-3.0008,-2.9604,-2.9384,-2.903,-2.8975,-2.9035,-2.9012,-2.897,-2.8905,-2.8858,-2.881,-2.8718,-2.8644,-2.8569,-2.8484,-2.8353,-2.8191,-2.795,-2.776,-2.7582,-2.7491,-2.7276,-2.7085,-2.7021,-2.6923,-2.419,-2.419,-2.419,-2.5146,-2.673,-2.8098,-2.8864,-2.9185,-2.9152,-2.9108,-2.9089,-2.904,-2.8975,-2.8975,-2.8975,-2.8975,-2.8975,-2.8975,-2.8975,-2.8975,-2.8975,-2.913,-2.9262,-2.937,-2.9551,-2.9786,-3.0003,-3.0138,-3.0503,-3.1212,-3.1737,-3.2199,-3.2756,-3.284,-3.2795,-3.2659,-3.2651,-3.2313,-3.2162,-3.2255,-3.243,-3.2589,-3.2858,-3.3173,-3.3222,-3.3471,-3.3723,-3.3807,-3.3807,-3.3807,-3.3807,-3.3807,-3.3834,-3.3921,-3.4049,-3.4124,-3.4074,-3.4023,-3.3972,-3.3868,-3.3834,-3.3807,-3.3807,-3.3807,-3.3807,-3.3807,-3.3807,-3.3807,-3.3807,-3.3807,-3.3807,-3.3807,-3.3807,-3.3807,-3.3807,-3.3807,-3.3807,-3.3807,-3.3807,-3.3807,-3.3807,-3.3807,-3.3513,-3.2944,-3.2357,-3.1861,-3.1201,-3.0467,-3.0099,-2.9732,-2.947,-2.9232,-2.914,-2.8975,-2.8975,-2.8975,-2.8994,-2.8994,-2.897,-2.8929,-2.8929,-2.8881,-2.8815,-2.8737,-2.8662,-2.8536,-2.8406,-2.8282,-2.8101,-2.7943,-2.7876,-2.7771,-2.7565,-2.7355,-2.723,-2.419,-2.4208,-2.4281,-2.5295,-2.6796,-2.7701,-2.8558,-2.931,-2.9156,-2.9108,-2.9108,-2.904,-2.8975,-2.8975,-2.8975,-2.8975,-2.8975,-2.8975,-2.8975,-2.8975,-2.8975,-2.9108,-2.9218,-2.931,-2.9493,-2.9735,-2.9921,-3.0049,-3.0535,-3.1373,-3.2333,-3.2891,-3.3263,-3.3442,-3.3484,-3.337,-3.3452,-3.3587,-3.3235,-3.3109,-3.3293,-3.3443,-3.3483,-3.3845,-3.3873,-3.3868,-3.3834,-3.3807,-3.3807,-3.3807,-3.3807,-3.3807,-3.3868,-3.3921,-3.4074,-3.4099,-3.4074,-3.4023,-3.3972,-3.3868,-3.3834,-3.3807,-3.3807,-3.3807,-3.3807,-3.3807,-3.3807,-3.3807,-3.3807,-3.3807,-3.3807,-3.3807,-3.3807,-3.3807,-3.3807,-3.3807,-3.3807,-3.3807,-3.3807,-3.3807,-3.3807,-3.3788,-3.3568,-3.2999,-3.2063,-3.1439,-3.0577,-2.9751,-2.9494,-2.9195,-2.9104,-2.9012,-2.8994,-2.8975,-2.8975,-2.8975,-2.8975,-2.8994,-2.8994,-2.8994,-2.8952,-2.8952,-2.8952,-2.8881,-2.8785,-2.8737,-2.8619,-2.8474,-2.8396,-2.8344,-2.8291,-2.8309,-2.8119,-2.7789,-2.7539,-2.419,-2.4263,-2.487,-2.5737,-2.6753,-2.7582,-2.8399,-2.9222,-2.9152,-2.9093,-2.9134,-2.9026,-2.8975,-2.8975,-2.8975,-2.8975,-2.8975,-2.8975,-2.8975,-2.8975,-2.8975,-2.9062,-2.9152,-2.9222,-2.9392,-2.9589,-2.9753,-3.001,-3.0614,-3.1693,-3.2705,-3.3064,-3.3799,-3.4501,-3.4461,-3.4366,-3.4437,-3.4471,-3.4226,-3.3919,-3.4014,-3.405,-3.411,-3.4049,-3.3972,-3.3913,-3.386,-3.3807,-3.3807,-3.3807,-3.3807,-3.386,-3.3928,-3.3972,-3.4074,-3.4148,-3.4074,-3.4023,-3.3972,-3.3868,-3.3834,-3.3807,-3.3807,-3.3807,-3.3807,-3.3807,-3.3807,-3.3807,-3.3807,-3.3807,-3.3807,-3.3807,-3.3807,-3.3807,-3.3807,-3.3807,-3.3807,-3.3807,-3.3807,-3.3807,-3.3807,-3.3697,-3.3513,-3.2816,-3.188,-3.0907,-2.9898,-2.9219,-2.9219,-2.9049,-2.9067,-2.8994,-2.8994,-2.8975,-2.8975,-2.8975,-2.8975,-2.8975,-2.8994,-2.8975,-2.8975,-2.8975,-2.8975,-2.8952,-2.8905,-2.8858,-2.8767,-2.8694,-2.8644,-2.8619,-2.8594,-2.8569,-2.8518,-2.8264,-2.7971,-2.419,-2.4245,-2.4667,-2.5368,-2.6217,-2.7027,-2.7862,-2.8569,-2.8596,-2.8596,-2.871,-2.886,-2.8975,-2.8975,-2.8975,-2.8975,-2.8975,-2.8975,-2.8975,-2.8975,-2.8998,-2.904,-2.9089,-2.9134,-2.9289,-2.9492,-2.9755,-3.0143,-3.0763,-3.1985,-3.2966,-3.3484,-3.4697,-3.5289,-3.5209,-3.5143,-3.5019,-3.4831,-3.4728,-3.4561,-3.4386,-3.4269,-3.4148,-3.4023,-3.3947,-3.3913,-3.386,-3.3807,-3.3807,-3.3807,-3.3807,-3.3887,-3.3947,-3.3998,-3.4074,-3.4124,-3.4099,-3.3998,-3.3972,-3.3895,-3.3807,-3.3807,-3.3807,-3.3807,-3.3807,-3.3807,-3.3807,-3.3807,-3.3807,-3.3807,-3.3807,-3.3807,-3.3807,-3.3807,-3.3807,-3.3807,-3.3807,-3.3807,-3.3807,-3.3807,-3.3807,-3.3788,-3.3385,-3.2449,-3.1604,-3.1127,-2.9989,-2.909,-2.8994,-2.8975,-2.8975,-2.8975,-2.8975,-2.8975,-2.8975,-2.8975,-2.8975,-2.8975,-2.8975,-2.8975,-2.8975,-2.8975,-2.8975,-2.8975,-2.8952,-2.8952,-2.8881,-2.8815,-2.8858,-2.8834,-2.881,-2.8785,-2.8718,-2.8669,-2.8448,-2.419,-2.419,-2.4208,-2.4724,-2.5518,-2.6217,-2.7011,-2.7735,-2.7745,-2.7816,-2.8018,-2.858,-2.8815,-2.8851,-2.8975,-2.8975,-2.8975,-2.8975,-2.8975,-2.8975,-2.8975,-2.904,-2.9062,-2.9108,-2.9225,-2.9434,-2.9718,-3.0286,-3.0898,-3.2129,-3.3178,-3.4002,-3.4626,-3.519,-3.5089,-3.5001,-3.487,-3.471,-3.458,-3.4404,-3.4269,-3.4173,-3.4074,-3.3972,-3.3895,-3.3868,-3.3834,-3.3807,-3.3807,-3.3807,-3.3807,-3.3895,-3.3947,-3.3998,-3.408,-3.4105,-3.4055,-3.4005,-3.3972,-3.3868,-3.3834,-3.3807,-3.3807,-3.3807,-3.3807,-3.3807,-3.3807,-3.3807,-3.3807,-3.3807,-3.3807,-3.3807,-3.3807,-3.3807,-3.3807,-3.3807,-3.3807,-3.3807,-3.3807,-3.3807,-3.3807,-3.3807,-3.3054,-3.2118,-3.1476,-3.1017,-3.0338,-2.9567,-2.8975,-2.8975,-2.8975,-2.8975,-2.8975,-2.8975,-2.8975,-2.8975,-2.8975,-2.8975,-2.8975,-2.8975,-2.8975,-2.8975,-2.8975,-2.8975,-2.8975,-2.8975,-2.8975,-2.8952,-2.8952,-2.8952,-2.8929,-2.8881,-2.8881,-2.8815,-2.8791,-2.419,-2.419,-2.419,-2.4668,-2.5366,-2.5607,-2.6103,-2.678,-2.6872,-2.7184,-2.7699,-2.7882,-2.8026,-2.8062,-2.876,-2.8975,-2.8975,-2.8975,-2.8975,-2.8975,-2.8975,-2.9017,-2.904,-2.9062,-2.916,-2.9373,-2.9626,-2.9954,-3.0677,-3.1924,-3.2764,-3.3039,-3.4585,-3.5015,-3.4889,-3.4811,-3.471,-3.4539,-3.445,-3.4293,-3.4173,-3.4099,-3.4023,-3.3947,-3.3895,-3.3842,-3.3815,-3.3807,-3.3807,-3.3807,-3.3807,-3.3868,-3.3947,-3.3998,-3.4074,-3.408,-3.403,-3.3998,-3.3947,-3.3868,-3.3815,-3.3807,-3.3807,-3.3807,-3.3807,-3.3807,-3.3807,-3.3807,-3.3807,-3.3807,-3.3807,-3.3807,-3.3807,-3.3807,-3.3807,-3.3807,-3.3807,-3.3807,-3.3807,-3.3807,-3.3807,-3.3476,-3.2834,-3.1971,-3.1182,-3.0613,-2.9824,-2.9122,-2.8994,-2.8975,-2.8998,-2.8998,-2.8998,-2.8975,-2.8975,-2.8975,-2.8975,-2.8975,-2.8975,-2.8975,-2.8975,-2.8975,-2.8975,-2.8975,-2.8975,-2.8975,-2.8975,-2.8975,-2.8975,-2.8975,-2.8975,-2.8975,-2.8975,-2.8952,-2.8905]}]]